[[{"header":{"parameterUnit":"m.s-1","parameterCategory":1,"la1":31.0,"la2":29.5877,"lo1":-88.7671,"lo2":-86.6584,"dy":0.0162,"dx":0.0185,"nx":115,"ny":88,"refTime":"2024-05-17T06:00:00:Z","depth":0,"parameterNumber":2,"parameterNumberName":"U-component_of_WINDS"},"data":[0.0,0.0,0.0,0.0,0.0,0.0,0.0,0.0,0.0,0.0,0.0,0.0,0.0,0.0,0.0,0.0,0.0,0.0,0.0,0.0,0.0,0.0,0.0,0.0,0.0,0.0,0.0,0.0,0.0,0.0,0.0,0.0,0.0,0.0,0.0,0.0,0.0,0.0,0.0,0.0,0.0,0.0,0.0,0.0,0.0,0.0,0.0,0.0,0.0,0.0,0.0,0.0,0.0,0.0,0.0,0.0,0.0,0.0,0.0,0.0,0.0,0.0,0.0,0.0,0.0,0.0,0.0,0.0,0.0,0.0,0.0,0.0,0.0,0.0,0.0,0.0,0.0,0.0,0.0,0.0,0.0,0.0,0.0,0.0,0.0,0.0,0.0,0.0,0.0,0.0,0.0,0.0,0.0,0.0,0.0,0.0,0.0,0.0,0.0,0.0,0.0,0.0,0.0,0.0,0.0,0.0,0.0,0.0,0.0,0.0,0.0,0.0,0.0,0.0,0.0,0.0,0.0,0.0,0.0,0.0,0.0,0.0,0.0,0.0,0.0,0.0,0.0,0.0,0.0,0.0,0.0,0.0,0.0,0.0,0.0,0.0,0.0,0.0,0.0,0.0,0.0,0.0,0.0,0.0,0.0,0.0,0.0,0.0,0.0,0.0,0.0,0.0,0.0,0.0,0.0,0.0,0.0,0.0,0.0,0.0,0.0,0.0,0.0,0.0,0.0,0.0,0.0,0.0,0.0,0.0,0.0,0.0,0.0,0.0,0.0,0.0,0.0,0.0,0.0,0.0,0.0,0.0,0.0,0.0,0.0,0.0,0.0,0.0,0.0,0.0,0.0,0.0,0.0,0.0,0.0,0.0,0.0,0.0,0.0,0.0,0.0,0.0,0.0,0.0,0.0,0.0,0.0,0.0,0.0,0.0,0.0,0.0,0.0,0.0,0.0,0.0,0.0,0.0,0.0,0.0,0.0,0.0,0.0,0.0,0.0,0.0,0.0,0.0,0.0,0.0,0.0,0.0,0.0,0.0,0.0,0.0,0.0,0.0,0.0,0.0,0.0,0.0,0.0,0.0,0.0,0.0,0.0,0.0,0.0,0.0,0.0,0.0,0.0,0.0,0.0,0.0,0.0,0.0,0.0,0.0,0.0,0.0,0.0,0.0,0.0,0.0,0.0,0.0,0.0,0.0,0.0,0.0,0.0,0.0,0.0,0.0,0.0,0.0,0.0,0.0,0.0,0.0,0.0,0.0,0.0,0.0,0.0,0.0,0.0,0.0,0.0,0.0,0.0,0.0,0.0,0.0,0.0,0.0,0.0,0.0,0.0,0.0,0.0,0.0,0.0,0.0,0.0,0.0,0.0,0.0,0.0,0.0,0.0,0.0,0.0,0.0,0.0,0.0,0.0,0.0,0.0,0.0,0.0,0.0,0.0,0.0,0.0,0.0,0.0,0.0,0.0,0.0,0.0,0.0,0.0,0.0,0.0,0.0,0.0,0.0,0.0,0.0,0.0,0.0,0.0,0.0,0.0,0.0,0.0,0.0,0.0,0.0,0.0,0.0,0.0,0.0,0.0,0.0,0.0,0.0,0.0,0.0,0.0,0.0,0.0,0.0,0.0,0.0,0.0,0.0,0.0,0.0,0.0,0.0,0.0,0.0,0.0,0.0,0.0,0.0,0.0,0.0,0.0,0.0,0.0,0.0,0.0,0.0,0.0,0.0,0.0,0.0,0.0,0.0,0.0,0.0,0.0,0.0,0.0,0.0,0.0,0.0,0.0,0.0,0.0,0.0,0.0,0.0,0.0,0.0,0.0,0.0,0.0,0.0,0.0,0.0,0.0,0.0,0.0,0.0,0.0,0.0,0.0,0.0,0.0,0.0,0.0,0.0,0.0,0.0,0.0,0.0,0.0,0.0,0.0,0.0,0.0,0.0,0.0,0.0,0.0,0.0,0.0,0.0,0.0,0.0,0.0,0.0,0.0,0.0,0.0,0.0,0.0,0.0,0.0,0.0,0.0,0.0,0.0,0.0,0.0,0.0,0.0,0.0,0.0,0.0,0.0,0.0,0.0,0.0,0.0,0.0,0.0,0.0,0.0,0.0,0.0,0.0,0.0,0.0,0.0,0.0,0.0,0.0,0.0,0.0,0.0,0.0,0.0,0.0,0.0,0.0,0.0,0.0,0.0,0.0,0.0,0.0,0.0,0.0,0.0,0.0,0.0,0.0,0.0,0.0,0.0,0.0,0.0,0.0,0.0,0.0,0.0,0.0,0.0,0.0,0.0,0.0,0.0,0.0,0.0,0.0,0.0,0.0,0.0,0.0,0.0,0.0,0.0,0.0,0.0,0.0,0.0,0.0,0.0,0.0,0.0,0.0,0.0,0.0,0.0,0.0,0.0,0.0,0.0,0.0,0.0,0.0,0.0,0.0,0.0,0.0,0.0,0.0,0.0,0.0,0.0,0.0,0.0,0.0,0.0,0.0,0.0,0.0,0.0,0.0,0.0,0.0,0.0,0.0,0.0,0.0,0.0,0.0,0.0,0.0,0.0,0.0,0.0,0.0,0.0,0.0,0.0,0.0,0.0,0.0,0.0,0.0,0.0,0.0,0.0,0.0,0.0,0.0,0.0,0.0,0.0,0.0,0.0,0.0,0.0,0.0,0.0,0.0,0.0,0.0,0.0,0.0,0.0,0.0,0.0,0.0,0.0,0.0,0.0,0.0,0.0,0.0,0.0,0.0,0.0,0.0,0.0,0.0,0.0,0.0,0.0,0.0,0.0,0.0,0.0,0.0,0.0,0.0,0.0,0.0,0.0,0.0,0.0,0.0,0.0,0.0,0.0,0.0,0.0,0.0,0.0,0.0,0.0,0.0,0.0,0.0,0.0,0.0,0.0,0.0,0.0,0.0,0.0,0.0,0.0,0.0,0.0,0.0,0.0,0.0,0.0,0.0,0.0,0.0,0.0,0.0,0.0,0.0,0.0,0.0,0.0,0.0,0.0,0.0,0.0,0.0,0.0,0.0,0.0,0.0,0.0,0.0,0.0,0.0,0.0,0.0,0.0,0.0,0.0,0.0,0.0,0.0,0.0,0.0,0.0,0.0,0.0,0.0,0.0,0.0,0.0,0.0,0.0,0.0,0.0,0.0,0.0,0.0,0.0,0.0,0.0,0.0,0.0,0.0,0.0,0.0,0.0,0.0,0.0,0.0,0.0,0.0,0.0,0.0,0.0,0.0,0.0,0.0,0.0,0.0,0.0,0.0,0.0,0.0,0.0,0.0,0.0,0.0,0.0,0.0,0.0,0.0,0.0,0.0,0.0,0.0,0.0,0.0,0.0,0.0,0.0,0.0,0.0,0.0,0.0,0.0,0.0,0.0,0.0,0.0,0.0,0.0,0.0,0.0,0.0,0.0,0.0,0.0,0.0,0.0,0.0,0.0,0.0,0.0,0.0,0.0,0.0,0.0,0.0,0.0,0.0,0.0,0.0,0.0,0.0,0.0,0.0,0.0,0.0,0.0,0.0,0.0,0.0,0.0,0.0,0.0,0.0,0.0,0.0,0.0,0.0,0.0,0.0,0.0,0.0,0.0,0.0,0.0,0.0,0.0,0.0,0.0,0.0,0.0,0.0,0.0,0.0,0.0,0.0,0.0,0.0,0.0,0.0,0.0,0.0,0.0,0.0,0.0,0.0,0.0,0.0,0.0,0.0,0.0,0.0,0.0,0.0,0.0,0.0,0.0,0.0,0.0,0.0,0.0,0.0,0.0,0.0,0.0,0.0,0.0,0.0,0.0,0.0,0.0,0.0,0.0,0.0,0.0,0.0,0.0,0.0,0.0,0.0,0.0,0.0,0.0,0.0,0.0,0.0,0.0,0.0,0.0,0.0,0.0,0.0,0.0,0.0,0.0,0.0,0.0,0.0,0.0,0.0,0.0,0.0,0.0,0.0,0.0,0.0,0.0,0.0,0.0,0.0,0.0,0.0,0.0,0.0,0.0,0.0,0.0,0.0,0.0,0.0,0.0,0.0,0.0,0.0,0.0,0.0,0.0,0.0,0.0,0.0,0.0,0.0,0.0,0.0,0.0,0.0,0.0,0.0,0.0,0.0,0.0,0.0,0.0,0.0,0.0,0.0,0.0,0.0,0.0,0.0,0.0,0.0,0.0,0.0,0.0,0.0,0.0,0.0,0.0,0.0,0.0,0.0,0.0,0.0,0.0,0.0,0.0,0.0,0.0,0.0,0.0,0.0,0.0,0.0,0.0,0.0,0.0,0.2056,0.0,0.0,0.0,0.0,0.0,0.0,0.0,0.0,0.0,0.0,0.0,0.0,0.0,0.0,0.0,0.0,0.0,0.0,0.0,0.0,0.0,0.0,0.0,0.0,0.0,0.0,0.0,0.0,0.0,0.0,0.0,0.0,0.0,0.0,0.0,0.0,0.0,0.0,0.0,0.0,0.0,0.0,0.0,0.0,0.0,0.0,0.0,0.0,0.0,0.0,0.0,0.0,0.0,0.0,0.0,0.0,0.0,0.0,0.0,0.0,0.0,0.0,0.0,0.0,0.0,0.0,0.0,0.0,0.0,0.0,0.0,0.0,0.0,0.0,0.0,0.0,0.0,0.0,0.0,0.0,0.0,0.0,0.0,0.0,0.0,0.0,0.0,0.0,0.0,0.0,0.0,0.0,0.0,0.0,0.0,0.0,0.0,0.0,0.0,0.0,0.0,0.0,0.0,0.0,0.0,0.0,0.0,0.0,0.0,0.0,0.2832,0.2664,0.242,0.2333,0.232,0.0,0.0,0.0,0.0,0.0,0.0,0.0,0.0,0.0,0.0,0.0,0.0,0.0,0.0,0.0,0.0,0.0,0.0,0.0,0.0,0.0,0.0,0.0,0.0,0.0,0.0,0.0,0.0,0.0,0.0,0.0,0.0,0.0,0.0,0.0,0.0,0.0,0.0,0.0,0.0,0.0,0.0,0.0,0.0,0.0,0.0,0.0,0.0,0.0,0.0,0.0,0.0,0.0,0.0,0.0,0.0,0.0,0.0,0.0,0.0,0.0,0.0,0.0,0.0,0.0,0.0,0.0,0.0,0.0,0.0,0.0,0.0,0.0,0.0,0.0,0.0,0.0,0.0,0.0,0.0,0.0,0.0,0.0,0.0,0.0,0.0,0.0,0.0,0.0,0.0,0.0,0.0,0.0,0.0,0.0,0.0,0.0,0.0,0.0,0.0,0.0,0.0,0.0,0.0,0.0,0.0,0.0,0.0,0.0,0.0,0.0,0.0,0.2664,0.2555,0.2543,0.0,0.0,0.0,0.0,0.0,0.0,0.0,0.0,0.0,0.0,0.0,0.0,0.0,0.0,0.0,0.0,0.0,0.0,0.0,0.0,0.0,0.0,0.0,0.0,0.0,0.0,0.0,0.0,0.0,0.0,0.0,0.0,0.0,0.0,0.0,0.0,0.0,0.0,0.0,0.0,0.0,0.0,0.0,0.0,0.0,0.0,0.0,0.0,0.0,0.0,0.0,0.0,0.0,0.0,0.0,0.0,0.0,0.0,0.0,0.0,0.0,0.0,0.0,0.0,0.0,0.0,0.0,0.0,0.0,0.0,0.0,0.0,0.0,0.0,0.0,0.0,0.0,0.0,0.0,0.0,0.0,0.0,0.0,0.0,0.0,0.0,0.0,0.0,0.0,0.0,0.0,0.0,0.0,0.0,0.0,0.0,0.0,0.0,0.0,0.0,0.0,0.0,0.0,0.0,0.0,0.0,0.0,0.0,0.0,0.0,0.3229,0.3159,0.2902,0.0,0.2679,0.0,0.0,0.0,0.0,0.0,0.0,0.0,0.0,0.0,0.0,0.0,0.0,0.0,0.0,0.0,0.0,0.0,0.0,0.0,0.0,0.0,0.0,0.0,0.0,0.0,0.0,0.0,0.0,0.0,0.0,0.0,0.0,0.0,0.0,0.0,0.0,0.0,0.0,0.0,0.0,0.0,0.0,0.0,0.0,0.0,0.0,0.0,0.0,0.0,0.0,0.0,0.0,0.0,0.0,0.0,0.0,0.0,0.0,0.0,0.0,0.0,0.0,0.0,0.0,0.0,0.0,0.0,0.0,0.0,0.0,0.0,0.0,0.0,0.0,0.0,0.0,0.0,0.0,0.0,0.0,0.0,0.0,0.0,0.0,0.0,0.0,0.0,0.0,0.0,0.0,0.0,0.0,0.0,0.0,0.0,0.0,0.0,0.0,0.0,0.0,0.0,0.0,0.0,0.0,0.0,0.0,0.0,0.0,0.0,0.0,0.0,0.3726,0.3422,0.3141,0.0,0.0,0.0,0.0,0.0,0.0,0.0,0.0,0.0,0.0,0.0,0.0,0.0,0.0,0.0,0.0,0.0,0.0,0.0,0.0,0.0,0.0,0.0,0.0,0.0,0.0,0.0,0.0,0.0,0.0,0.0,0.0,0.0,0.0,0.0,0.0,0.0,0.0,0.0,0.0,0.0,0.0,0.0,0.0,0.0,0.0,0.0,0.0,0.0,0.0,0.0,0.0,0.0,0.0,0.0,0.0,0.0,0.0,0.0,0.0,0.0,0.0,0.0,0.0,0.0,0.0,0.0,0.0,0.0,0.0,0.0,0.0,0.0,0.0,0.0,0.0,0.0,0.0,0.0,0.0,0.0,0.0,0.0,0.0,0.0,0.0,0.0,0.0,0.0,0.0,0.0,0.0,0.0,0.0,0.0,0.0,0.0,0.0,0.0,0.0,0.0,0.0,0.0,0.0,0.0,0.0,0.0,0.0,0.0,0.0,0.3551,0.0,0.4141,0.3825,0.3458,0.3103,0.0,0.0,0.0,0.0,0.0,0.0,0.0,0.0,0.0,0.0,0.0,0.0,0.0,0.0,0.0,0.0,0.0,0.0,0.0,0.0,0.0,0.0,0.0,0.0,0.0,0.0,0.0,0.0,0.0,0.0,0.0,0.0,0.0,0.0,0.0,0.0,0.0,0.0,0.0,0.0,0.0,0.0,0.0,0.0,0.0,0.0,0.0,0.0,0.0,0.0,0.0,0.0,0.0,0.0,0.0,0.0,0.0,0.0,0.0,0.0,0.0,0.0,0.0,0.0,0.0,0.0,0.0,0.0,0.0,0.0,0.0,0.0,0.0,0.0,0.0,0.0,0.0,0.0,0.0,0.0,0.0,0.0,0.0,0.0,0.0,0.0,0.0,0.0,0.0,0.0,0.0,0.0,0.0,0.0,0.0,0.0,0.0,0.0,0.0,0.0,0.0,0.0,0.0,0.0,0.0,0.0,0.0,0.0,0.0,0.3826,0.4113,0.4373,0.3934,0.358,0.0,0.0,0.0,0.0,0.0,0.0,0.0,0.0,0.0,0.0,0.0,0.0,0.0,0.0,0.0,0.0,0.0,0.0,0.0,0.0,0.0,0.0,0.0,0.0,0.0,0.0,0.0,0.0,0.0,0.0,0.0,0.0,0.0,0.0,0.0,0.0,0.0,0.0,0.0,0.0,0.0,0.0,0.0,0.0,0.0,0.0,0.0,0.0,0.0,0.0,0.0,0.0,0.0,0.0,0.0,0.0,0.0,0.0,0.0,0.0,0.0,0.0,0.0,0.0,0.0,0.0,0.0,0.0,0.0,0.0,0.0,0.0,0.0,0.0,0.0,0.0,0.0,0.0,0.0,0.0,0.0,0.0,0.0,0.0,0.0,0.0,0.0,0.0,0.0,0.0,0.0,0.0,0.0,0.0,0.0,0.0,0.0,0.0,0.0,0.0,0.0,0.0,0.0,0.0,0.0,0.0,0.0,0.0,0.0,0.3612,0.4036,0.4318,0.4395,0.4187,0.3873,0.0,0.0,0.0,0.0,0.0,0.0,0.0,0.0,0.0,0.0,0.0,0.0,0.0,0.0,0.0,0.0,0.0,0.0,0.0,0.0,0.0,0.0,0.0,0.0,0.0,0.0,0.0,0.0,0.0,0.0,0.0,0.0,0.0,0.0,0.0,0.0,0.0,0.0,0.0,0.0,0.0,0.0,0.0,0.0,0.0,0.0,0.0,0.0,0.0,0.0,0.0,0.0,0.0,0.0,0.0,0.0,0.0,0.0,0.0,0.0,0.0,0.0,0.0,0.0,0.0,0.0,0.0,0.0,0.0,0.0,0.0,0.0,0.0,0.0,0.0,0.0,0.0,0.0,0.0,0.0,0.0,0.0,0.0,0.0,0.0,0.0,0.0,0.0,0.0,0.0,0.0,0.0,0.0,0.0,0.0,0.0,0.0,0.0,0.0,0.0,0.0,0.0,0.0,0.0,0.0,0.0,0.0,0.0,0.0,0.3741,0.0,0.4484,0.0,0.447,0.4063,0.0,0.0,0.0,0.0,0.0,0.0,0.0,0.0,0.0,0.0,0.0,0.0,0.0,0.0,0.0,0.0,0.0,0.0,0.0,0.0,0.0,0.0,0.0,0.0,0.0,0.0,0.0,0.0,0.0,0.0,0.0,0.0,0.0,0.0,0.0,0.0,0.0,0.0,0.0,0.0,0.0,0.0,0.0,0.0,0.0,0.0,0.0,0.0,0.0,0.0,0.0,0.0,0.0,0.0,0.0,0.0,0.0,0.0,0.0,0.0,0.0,0.0,0.0,0.0,0.0,0.0,0.0,0.0,0.0,0.0,0.0,0.0,0.0,0.0,0.0,0.0,0.0,0.0,0.0,0.0,0.0,0.0,0.0,0.0,0.0,0.0,0.0,0.0,0.0,0.0,0.0,0.0,0.0,0.0,0.0,0.0,0.0,0.0,0.0,0.0,0.0,0.0,0.0,0.0,0.0,0.0,0.0,0.0,0.3872,0.4005,0.4249,0.4688,0.5238,0.47,0.4121,0.0,0.0,0.0,0.0,0.0,0.0,0.0,0.0,0.0,0.0,0.0,0.0,0.0,0.0,0.0,0.0,0.0,0.0,0.0,0.0,0.0,0.0,0.0,0.0,0.0,0.0,0.0,0.0,0.0,0.0,0.0,0.0,0.0,0.0,0.0,0.0,0.0,0.0,0.0,0.0,0.0,0.0,0.0,0.0,0.0,0.0,0.0,0.0,0.0,0.0,0.0,0.0,0.0,0.0,0.0,0.0,0.0,0.0,0.0,0.0,0.0,0.0,0.0,0.0,0.0,0.0,0.0,0.0,0.0,0.0,0.0,0.0,0.0,0.0,0.0,0.0,0.0,0.0,0.0,0.0,0.0,0.0,0.0,0.0,0.0,0.0,0.0,0.0,0.0,0.0,0.0,0.0,0.0,0.0,0.0,0.0,0.0,0.0,0.0,0.0,0.0,0.0,0.0,0.0,0.0,0.0,0.0,0.0,0.0,0.4345,0.4522,0.464,0.4668,0.4509,0.4127,0.0,0.0,0.0,0.0,0.0,0.0,0.0,0.0,0.0,0.0,0.0,0.0,0.0,0.0,0.0,0.0,0.0,0.0,0.0,0.0,0.0,0.0,0.0,0.0,0.0,0.0,0.0,0.0,0.0,0.0,0.0,0.0,0.0,0.0,0.0,0.0,0.0,0.0,0.0,0.0,0.0,0.0,0.0,0.0,0.0,0.0,0.0,0.0,0.0,0.0,0.0,0.0,0.0,0.0,0.0,0.0,0.0,0.0,0.0,0.0,0.0,0.0,0.0,0.0,0.0,0.0,0.0,0.0,0.0,0.0,0.0,0.0,0.0,0.0,0.0,0.0,0.0,0.0,0.0,0.0,0.0,0.0,0.0,0.0,0.0,0.0,0.0,0.0,0.0,0.0,0.0,0.0,0.0,0.0,0.0,0.0,0.0,0.0,0.0,0.0,0.0,0.0,0.0,0.0,0.0,0.0,0.0,0.0,0.0,0.4673,0.4681,0.4614,0.4392,0.4503,0.4246,0.3552,0.0,0.0,0.0,0.0,0.0,0.0,0.0,0.0,0.0,0.0,0.0,0.0,0.0,0.0,0.0,0.0,0.0,0.0,0.0,0.0,0.0,0.0,0.0,0.0,0.0,0.0,0.0,0.0,0.0,0.0,0.0,0.0,0.0,0.0,0.0,0.0,0.0,0.0,0.0,0.0,0.0,0.0,0.0,0.0,0.0,0.0,0.0,0.0,0.0,0.0,0.0,0.0,0.0,0.0,0.0,0.0,0.0,0.0,0.0,0.0,0.0,0.0,0.0,0.0,0.0,0.0,0.0,0.0,0.0,0.0,0.0,0.0,0.0,0.0,0.0,0.0,0.0,0.0,0.0,0.0,0.0,0.0,0.0,0.0,0.0,0.0,0.0,0.0,0.0,0.0,0.0,0.0,0.0,0.0,0.0,0.0,0.0,0.0,0.0,0.0,0.0,0.0,0.0,0.0,0.0,0.0,0.0,0.0,0.4985,0.4817,0.4646,0.4481,0.4656,0.4382,0.0,0.0,0.0,0.0,0.0,0.0,0.0,0.0,0.0,0.0,0.0,0.0,0.0,0.0,0.0,0.0,0.0,0.0,0.0,0.0,0.0,0.0,0.0,0.0,0.0,0.0,0.0,0.0,0.0,0.0,0.0,0.0,0.0,0.0,0.0,0.0,0.0,0.0,0.0,0.0,0.0,0.0,0.0,0.0,0.0,0.0,0.0,0.0,0.0,0.0,0.0,0.0,0.0,0.0,0.0,0.0,0.0,0.0,0.0,0.0,0.0,0.0,0.0,0.0,0.0,0.0,0.0,0.0,0.0,0.0,0.0,0.0,0.0,0.0,0.0,0.0,0.0,0.0,0.0,0.0,0.0,0.0,0.0,0.0,0.0,0.0,0.0,0.0,0.0,0.0,0.0,0.0,0.0,0.0,0.0,0.0,0.0,0.0,0.0,0.0,0.0,0.0,0.0,0.0,0.0,0.0,0.0,0.0,0.0,0.4915,0.4884,0.4934,0.5058,0.4854,0.4492,0.0,0.0,0.0,0.0,0.0,0.0,0.0,0.0,0.0,0.0,0.0,0.0,0.0,0.0,0.0,0.0,0.0,0.0,0.0,0.0,0.0,0.0,0.0,0.0,0.0,0.0,0.0,0.0,0.0,0.0,0.0,0.0,0.0,0.0,0.0,0.0,0.0,0.0,0.0,0.0,0.0,0.0,0.0,0.0,0.0,0.0,0.0,0.0,0.0,0.0,0.0,0.0,0.0,0.0,0.0,0.0,0.0,0.0,0.0,0.0,0.0,0.0,0.0,0.0,0.0,0.0,0.0,0.0,0.0,0.0,0.0,0.0,0.0,0.0,0.0,0.0,0.0,0.0,0.0,0.0,0.0,0.0,0.0,0.0,0.0,0.0,0.0,0.0,0.0,0.0,0.0,0.0,0.0,0.0,0.0,0.0,0.0,0.0,0.0,0.0,0.0,0.0,0.0,0.0,0.0,0.0,0.0,0.0,0.4614,0.4762,0.4832,0.496,0.517,0.4932,0.4549,0.0,0.0,0.0,0.0,0.0,0.0,0.0,0.0,0.0,0.0,0.0,0.0,0.0,0.0,0.0,0.0,0.0,0.0,0.0,0.0,0.0,0.0,0.0,0.0,0.0,0.0,0.0,0.0,0.0,0.0,0.0,0.0,0.0,0.0,0.0,0.0,0.0,0.0,0.0,0.0,0.0,0.0,0.0,0.0,0.0,0.0,0.0,0.0,0.0,0.0,0.0,0.0,0.0,0.0,0.0,0.0,0.0,0.0,0.0,0.0,0.0,0.0,0.0,0.0,0.0,0.0,0.0,0.0,0.0,0.0,0.0,0.0,0.0,0.0,0.0,0.0,0.0,0.0,0.0,0.0,0.0,0.0,0.0,0.0,0.0,0.0,0.0,0.0,0.0,0.0,0.0,0.0,0.0,0.0,0.0,0.0,0.0,0.0,0.0,0.0,0.0,0.0,0.0,0.0,0.0,0.0,0.0,0.0,0.4528,0.4637,0.4752,0.4861,0.4964,0.4914,0.4551,0.0,0.0,0.0,0.0,0.0,0.0,0.0,0.0,0.0,0.0,0.0,0.0,0.0,0.0,0.0,0.0,0.0,0.0,0.0,0.0,0.0,0.0,0.0,0.0,0.0,0.0,0.0,0.0,0.0,0.0,0.0,0.0,0.0,0.0,0.0,0.0,0.0,0.0,0.0,0.0,0.0,0.0,0.0,0.0,0.0,0.0,0.0,0.0,0.0,0.0,0.0,0.0,0.0,0.0,0.0,0.0,0.0,0.0,0.0,0.0,0.0,0.0,0.0,0.0,0.0,0.0,0.0,0.0,0.0,0.0,0.0,0.0,0.0,0.0,0.0,0.0,0.0,0.0,0.0,0.0,0.0,0.0,0.0,0.0,0.0,0.0,0.0,0.0,0.0,0.0,0.0,0.0,0.0,0.0,0.0,0.0,0.0,0.0,0.0,0.0,0.0,0.0,0.0,0.0,0.0,0.0,0.0,0.0,0.4493,0.4842,0.4768,0.4774,0.4831,0.4674,0.4388,0.0,0.0,0.0,0.0,0.0,0.0,0.0,0.0,0.0,0.0,0.0,0.0,0.0,0.0,0.0,0.0,0.0,0.0,0.0,0.0,0.0,0.0,0.0,0.0,0.0,0.0,0.0,0.0,0.0,0.0,0.0,0.0,0.0,0.0,0.0,0.0,0.0,0.0,0.0,0.0,0.0,0.0,0.0,0.0,0.0,0.0,0.0,0.0,0.3971,0.0,0.0,0.0,0.0,0.0,0.0,0.0,0.0,0.0,0.0,0.0,0.0,0.0,0.0,0.0,0.0,0.0,0.0,0.0,0.0,0.0,0.0,0.0,0.0,0.0,0.0,0.0,0.0,0.0,0.0,0.0,0.0,0.0,0.0,0.0,0.0,0.0,0.0,0.0,0.0,0.0,0.0,0.0,0.0,0.0,0.0,0.0,0.0,0.0,0.0,0.0,0.0,0.0,0.0,0.0,0.0,0.0,0.0,0.0,0.4393,0.4614,0.4567,0.4649,0.4822,0.4387,0.4021,0.0,0.0,0.0,0.0,0.0,0.0,0.0,0.0,0.0,0.0,0.0,0.0,0.0,0.0,0.0,0.0,0.0,0.0,0.0,0.0,0.0,0.0,0.0,0.0,0.0,0.0,0.0,0.0,0.0,0.0,0.0,0.0,0.0,0.0,0.0,0.0,0.0,0.0,0.0,0.0,0.0,0.0,0.0,0.0,0.0,0.0,0.0,0.0,0.0,0.0,0.0,0.0,0.0,0.0,0.0,0.0,0.0,0.0,0.0,0.0,0.0,0.0,0.0,0.0,0.0,0.0,0.0,0.0,0.0,0.0,0.0,0.0,0.0,0.0,0.0,0.0,0.0,0.0,0.0,0.0,0.0,0.0,0.0,0.0,0.0,0.0,0.0,0.0,0.0,0.0,0.0,0.0,0.0,0.0,0.0,0.0,0.0,0.0,0.0,0.0,0.0,0.0,0.0,0.0,0.0,0.0,0.0,0.4024,0.4246,0.4285,0.4328,0.4535,0.4876,0.4106,0.359,0.3391,0.0,0.0,0.0,0.0,0.0,0.0,0.0,0.0,0.0,0.0,0.0,0.0,0.0,0.0,0.0,0.0,0.0,0.0,0.0,0.0,0.0,0.0,0.0,0.0,0.0,0.0,0.0,0.0,0.0,0.0,0.0,0.0,0.0,0.0,0.0,0.0,0.0,0.0,0.3614,0.3955,0.0,0.0,0.0,0.0,0.0,0.0,0.0,0.0,0.4636,0.0,0.0,0.0,0.0,0.0,0.0,0.0,0.0,0.0,0.0,0.0,0.0,0.0,0.0,0.0,0.0,0.0,0.0,0.0,0.0,0.0,0.0,0.0,0.0,0.0,0.0,0.0,0.0,0.0,0.0,0.0,0.0,0.0,0.0,0.0,0.0,0.0,0.0,0.0,0.0,0.0,0.0,0.0,0.0,0.0,0.0,0.0,0.0,0.0,0.0,0.0,0.0,0.0,0.0,0.0,0.0,0.3579,0.3716,0.3913,0.4229,0.4183,0.4412,0.4909,0.4025,0.3311,0.2867,0.0,0.0,0.0,0.0,0.0,0.0,0.0,0.0,0.0,0.0,0.0,0.0,0.0,0.0,0.0,0.0,0.0,0.0,0.0,0.0,0.0,0.0,0.0,0.0,0.0,0.0,0.0,0.0,0.0,0.0,0.0,0.0,0.0,0.0,0.0,0.0,0.0,0.0,0.0,0.4758,0.5114,0.0,0.0,0.0,0.0,0.0,0.0,0.0,0.0,0.5226,0.0,0.0,0.0,0.0,0.0,0.0,0.0,0.0,0.0,0.0,0.0,0.0,0.0,0.0,0.0,0.0,0.0,0.0,0.0,0.0,0.0,0.0,0.0,0.0,0.0,0.0,0.0,0.0,0.0,0.0,0.0,0.0,0.0,0.0,0.0,0.0,0.0,0.0,0.0,0.0,0.0,0.0,0.0,0.0,0.0,0.0,0.0,0.0,0.0,0.0,0.0,0.0,0.0,0.0,0.0,0.3429,0.3508,0.3647,0.3898,0.3877,0.4066,0.4413,0.3675,0.3018,0.0,0.0,0.0,0.0,0.0,0.0,0.0,0.0,0.0,0.0,0.0,0.0,0.0,0.0,0.0,0.0,0.0,0.0,0.0,0.0,0.0,0.0,0.0,0.0,0.0,0.0,0.0,0.0,0.0,0.0,0.0,0.0,0.0,0.0,0.0,0.0,0.0,0.0,0.0,0.0,0.5279,0.5674,0.6072,0.0,0.0,0.0,0.0,0.0,0.0,0.5769,0.5934,0.0,0.0,0.0,0.0,0.0,0.0,0.0,0.0,0.0,0.0,0.0,0.0,0.0,0.0,0.0,0.0,0.0,0.0,0.0,0.0,0.0,0.0,0.0,0.0,0.0,0.0,0.0,0.0,0.0,0.0,0.0,0.0,0.0,0.0,0.0,0.0,0.0,0.0,0.0,0.0,0.0,0.0,0.0,0.0,0.0,0.0,0.0,0.0,0.0,0.0,0.0,0.0,0.0,0.0,0.0,0.3208,0.3297,0.3386,0.3517,0.3581,0.3687,0.3742,0.3204,0.2683,0.0,0.0,0.0,0.0,0.0,0.0,0.0,0.0,0.0,0.0,0.0,0.0,0.0,0.0,0.0,0.0,0.0,0.0,0.0,0.0,0.0,0.0,0.0,0.0,0.0,0.0,0.0,0.0,0.0,0.0,0.0,0.0,0.0,0.0,0.0,0.0,0.0,0.0,0.0,0.0,0.0,0.6186,0.6824,0.6914,0.0,0.0,0.0,0.0,0.6036,0.6431,0.0,0.0,0.0,0.0,0.0,0.0,0.0,0.0,0.0,0.0,0.0,0.0,0.0,0.0,0.0,0.0,0.0,0.0,0.0,0.0,0.0,0.0,0.0,0.0,0.0,0.0,0.0,0.0,0.0,0.0,0.0,0.0,0.0,0.0,0.0,0.0,0.0,0.0,0.0,0.0,0.0,0.0,0.0,0.0,0.0,0.0,0.0,0.0,0.0,0.0,0.0,0.0,0.0,0.0,0.0,0.0,0.2933,0.3078,0.312,0.3173,0.3334,0.3393,0.3268,0.2817,0.2278,0.0,0.0,0.0,0.0,0.0,0.0,0.0,0.0,0.0,0.0,0.0,0.0,0.0,0.0,0.0,0.0,0.0,0.0,0.0,0.0,0.0,0.0,0.0,0.0,0.0,0.0,0.0,0.0,0.0,0.0,0.0,0.0,0.0,0.0,0.0,0.0,0.0,0.0,0.0,0.0,0.0,0.6952,0.7217,0.7445,0.7569,0.0,0.0,0.7372,0.7447,0.7251,0.0,0.0,0.0,0.0,0.0,0.0,0.0,0.0,0.0,0.0,0.0,0.0,0.0,0.0,0.0,0.0,0.0,0.0,0.0,0.0,0.0,0.0,0.0,0.0,0.0,0.0,0.0,0.0,0.0,0.0,0.0,0.0,0.0,0.0,0.0,0.0,0.0,0.0,0.0,0.0,0.0,0.0,0.0,0.0,0.0,0.0,0.0,0.0,0.0,0.0,0.0,0.0,0.0,0.0,0.0,0.2687,0.2964,0.2934,0.2962,0.3045,0.3031,0.3055,0.3197,0.247,0.1757,0.0,0.0,0.0,0.0,0.0,0.0,0.0,0.0,0.0,0.0,0.0,0.0,0.0,0.0,0.0,0.0,0.0,0.0,0.0,0.0,0.0,0.0,0.0,0.0,0.0,0.0,0.0,0.0,0.0,0.0,0.0,0.0,0.0,0.0,0.0,0.0,0.0,0.0,0.0,0.0,0.0,0.0,0.8294,0.8472,0.0,0.0,0.0,0.8749,0.8799,0.0,0.0,0.0,0.0,0.0,0.0,0.0,0.0,0.0,0.0,0.0,0.0,0.0,0.0,0.0,0.0,0.0,0.0,0.0,0.0,0.0,0.0,0.0,0.0,0.0,0.0,0.0,0.0,0.0,0.0,0.0,0.0,0.0,0.0,0.0,0.0,0.0,0.0,0.0,0.0,0.0,0.0,0.0,0.0,0.0,0.0,0.0,0.0,0.0,0.0,0.0,0.0,0.0,0.0,0.0,0.0,0.0,0.2925,0.2892,0.2915,0.2885,0.271,0.2754,0.2887,0.2121,0.0,0.0,0.0,0.0,0.0,0.0,0.0,0.0,0.0,0.0,0.0,0.0,0.0,0.0,0.0,0.0,0.0,0.0,0.0,0.0,0.0,0.0,0.0,0.0,0.0,0.0,0.0,0.272,0.0,0.0,0.0,0.0,0.0,0.0,0.0,0.0,0.0,0.0,0.0,0.0,0.0,0.0,0.8166,0.9249,0.9363,0.9512,0.0,0.0,0.986,0.98,0.9439,0.9111,0.0,0.0,0.0,0.0,0.0,0.0,0.0,0.0,0.0,0.0,0.0,0.0,0.0,0.0,0.0,0.0,0.0,0.0,0.0,0.0,0.0,0.0,0.0,0.0,0.0,0.0,0.0,0.0,0.0,0.0,0.0,0.0,0.0,0.0,0.0,0.0,0.0,0.0,0.0,0.0,0.0,0.0,0.0,0.0,0.0,0.0,0.0,0.0,0.0,0.0,0.0,0.0,0.0,0.0,0.0,0.2717,0.3021,0.2967,0.2641,0.2536,0.2406,0.2167,0.1804,0.1272,0.0,0.0,0.0,0.0,0.0,0.0,0.0,0.0,0.0,0.0,0.0,0.0,0.0,0.0,0.0,0.0,0.0,0.0,0.0,0.0,0.0,0.0,0.0,0.0,0.0,0.0,0.0,0.0,0.0,0.0,0.0,0.0,0.0,0.0,0.0,0.0,0.0,0.0,0.0,0.0,0.0,0.9061,0.9504,0.9845,1.0103,0.0,0.0,1.0137,1.0256,0.9768,0.9315,0.9125,0.0,0.0,0.0,0.0,0.0,0.0,0.0,0.0,0.0,0.0,0.0,0.0,0.0,0.0,0.0,0.0,0.0,0.0,0.0,0.0,0.0,0.0,0.0,0.0,0.0,0.0,0.0,0.0,0.0,0.0,0.0,0.0,0.0,0.0,0.0,0.0,0.0,0.0,0.0,0.0,0.0,0.0,0.0,0.0,0.0,0.0,0.0,0.0,0.0,0.0,0.0,0.0,0.0,0.2419,0.281,0.2633,0.2515,0.2392,0.2129,0.183,0.1685,0.1355,0.0912,0.0,0.0,0.0,0.0,0.0,0.0,0.0,0.0,0.0,0.0,0.0,0.0,0.0,0.0,0.0,0.0,0.0,0.0,0.0,0.0,0.0,0.0,0.0,0.0,0.0,0.0,0.0,0.0,0.3371,0.3579,0.3781,0.0,0.0,0.0,0.0,0.0,0.0,0.0,0.0,0.0,0.0,0.9123,1.0043,1.028,0.0,0.0,1.0791,1.0742,1.0791,1.0314,0.9885,0.9563,0.8762,0.0,0.0,0.0,0.0,0.0,0.0,0.0,0.0,0.0,0.0,0.0,0.0,0.0,0.0,0.0,0.0,0.0,0.0,0.0,0.0,0.0,0.0,0.0,0.0,0.0,0.0,0.0,0.0,0.0,0.0,0.0,0.0,0.0,0.0,0.0,0.0,0.0,0.0,0.0,0.0,0.0,0.0,0.0,0.0,0.0,0.0,0.0,0.0,0.0,0.0,0.0,0.0,0.2453,0.2775,0.2307,0.2086,0.2188,0.1791,0.1494,0.1392,0.1049,0.0653,0.0,0.0,0.0,0.0,0.0,0.0,0.0,0.0,0.0,0.0,0.0,0.0,0.0,0.0,0.0,0.0,0.0,0.0,0.0,0.0,0.0,0.0,0.0,0.0,0.0,0.0,0.0,0.0,0.3514,0.3808,0.4188,0.0,0.0,0.0,0.0,0.0,0.0,0.0,0.0,0.0,0.0,0.9256,1.025,1.0474,1.0681,1.1133,1.1124,1.1074,1.1023,1.0613,1.0198,0.9878,0.0,0.0,0.0,0.0,0.0,0.0,0.0,0.0,0.0,0.0,0.0,0.0,0.0,0.0,0.0,0.0,0.0,0.0,0.0,0.0,0.0,0.0,0.0,0.0,0.0,0.0,0.0,0.0,0.0,0.0,-0.0,0.0,0.0,0.0,0.0,0.0,0.0,0.0,0.0,0.0,0.0,0.0,0.0,0.0,0.0,0.0,0.0,0.0,0.0,0.0,0.0,0.0,0.0,0.2504,0.2495,0.2117,0.1929,0.1967,0.1614,0.1406,0.1353,0.0968,0.0499,-0.0,0.0,0.0,0.0,0.0,0.0,0.0,0.0,0.0,0.0,0.0,0.0,0.0,0.0,0.0,0.0,0.0,0.0,0.0,0.0,0.0,0.0,0.0,0.0,0.0,0.0,0.0,0.3315,0.3713,0.4207,0.0,0.0,0.0,0.0,0.0,0.0,0.0,0.0,0.0,0.0,0.8901,0.9548,1.0019,1.0424,1.0753,1.0863,1.0922,1.0922,1.0922,1.0573,1.0186,0.0,0.0,0.0,0.0,0.0,0.0,0.0,0.0,0.0,0.0,0.0,0.0,0.0,0.0,0.0,0.0,0.0,0.0,0.0,0.0,0.0,0.0,0.0,0.0,0.0,0.0,0.0,-0.028,-0.0,0.0,0.0,0.0,0.0,0.0,0.0,0.0,0.0,0.0,0.0,0.0,0.2261,0.2021,0.0,0.0,0.0,0.0,0.0,0.0,0.0,0.0,0.0,0.0,0.0,0.0,0.2198,0.2149,0.1696,0.1479,0.1566,0.1302,0.1071,0.0925,0.0759,0.0469,-0.0,0.0,0.0,0.0,0.0,0.0,0.0,0.0,0.0,0.0,0.0,0.0,0.0,0.0,0.0,0.0,0.0,0.0,0.0,0.0,0.0,0.0,0.0,0.0,0.0,0.0,0.3637,0.0,0.0,0.0,0.0,0.0,0.0,0.0,0.0,0.0,0.0,0.0,0.7821,0.8542,0.9042,0.9494,0.9981,1.0238,1.047,0.0,0.0,0.0,0.0,0.0,0.0,0.0,0.0,0.0,0.0,0.0,0.0,0.0,0.0,0.7669,0.688,0.6941,0.7221,0.7555,0.0,0.0,0.0,0.0,0.0,0.0,0.0,0.0,0.0,0.0,0.0,0.0,0.0,0.0,-0.032,0.0,-0.0,0.0,0.0,0.0,0.0,0.0,0.0,0.0,0.0,0.1692,0.1867,0.1897,0.1711,0.1668,0.0,0.1867,0.1907,0.0,0.0,0.0,0.0,0.0,0.0,0.0,0.0,0.1952,0.1969,0.1447,0.1286,0.1385,0.1078,0.0855,0.0718,0.0561,0.0318,-0.0,-0.0,-0.0,0.0,0.0,0.0,0.0,0.0,0.0,0.0,0.0,0.0,0.0,0.0,0.0,0.0,0.0,0.0,0.0,0.0,0.0,0.0,0.0,0.0,0.0,0.0,0.3948,0.0,0.0,0.0,0.0,0.0,0.0,0.0,0.0,0.0,0.7244,0.7574,0.808,0.8827,0.9119,0.9377,0.9791,0.0,0.0,0.0,0.0,0.0,0.0,0.0,1.0331,1.0081,0.9606,0.9183,0.9024,0.8899,0.8824,0.8771,0.0,0.0,0.751,0.7595,0.7903,0.8183,0.8009,0.7876,0.8056,0.8003,0.7915,0.0,0.0,0.0,0.0,0.0,0.0,0.0,0.0,-0.0904,-0.0315,0.0,-0.0,0.0,0.0,0.0,0.0,0.0,0.0472,0.0,0.0,0.1322,0.1377,0.1383,0.1235,0.1284,0.1477,0.1605,0.163,0.1516,0.1888,0.0,0.0,0.0,0.0,0.0,0.0,0.1687,0.1844,0.1429,0.1246,0.1343,0.0943,0.0674,0.0674,0.0259,-0.0,-0.0,-0.0,-0.0,-0.0,-0.0,0.0,0.0,0.0,0.0,0.0,0.0,0.0,0.0,0.0,0.0,0.0,0.0,0.0,0.0,0.0,0.0,0.0,0.0,0.0,0.0,0.3899,0.0,0.0,0.0,0.0,0.0,0.0,0.0,0.0,0.0,0.0,0.8177,0.8132,0.8295,0.8983,0.0,0.0,0.0,0.0,0.9746,1.0068,1.0119,1.0284,1.0714,1.0755,1.0735,1.0607,0.0,0.0,0.9764,0.9505,0.9382,0.9402,0.9285,0.8965,0.8151,0.8107,0.8313,0.8692,0.8499,0.8273,0.8377,0.8234,0.8107,-0.3861,0.0,0.0,0.0,0.0,-0.2869,-0.2526,-0.1984,-0.1065,-0.0389,-0.0,-0.0,0.0,0.0,0.0,0.0,0.0,0.0,0.0665,0.0736,0.0958,0.1031,0.1042,0.1004,0.1003,0.1092,0.1227,0.131,0.1389,0.1641,0.1738,0.1692,0.0,0.0,0.0,0.0,0.1373,0.1391,0.1042,0.0887,0.0898,0.0764,0.0539,0.018,0.0086,-0.0,-0.0,-0.0,-0.0,-0.0,-0.0,0.0,0.0,0.0,0.0,0.0,0.0,0.0,0.0,0.0,0.0,0.0,0.0,0.0,0.0,0.0,0.0,0.0,0.0,0.0,0.377,0.4222,0.4647,0.0,0.0,0.0,0.0,0.0,0.0,0.0,0.0,0.0,0.8592,0.8504,0.8459,0.0,0.0,0.9302,0.9606,0.9749,0.9864,1.0059,1.0109,0.0,0.0,1.0335,1.0394,1.0785,1.0282,0.9681,0.9408,0.9445,0.9513,0.9519,0.9623,0.9574,0.9451,0.898,0.8765,0.9013,0.9002,0.8944,0.8963,0.8905,0.8867,-0.4848,-0.3987,-0.3644,-0.3379,-0.324,-0.3147,-0.2904,-0.2456,-0.1534,-0.0847,-0.0376,-0.0367,-0.0227,-0.0,-0.0,0.0,0.0,0.0,0.0481,0.0599,0.0561,0.0571,0.0526,0.0527,0.0526,0.0579,0.0882,0.1082,0.1134,0.1341,0.1365,0.1267,0.0,0.0,0.1234,0.1156,0.1136,0.1273,0.0885,0.0613,0.0425,0.0418,0.0275,-0.0,-0.0,-0.0,-0.0,-0.0,-0.0,-0.0,-0.0,-0.0,0.0,0.0,0.0,0.0,0.0,0.0,0.0,0.0,0.0,0.0,0.0,0.1861,0.0,0.0,0.0,0.0,0.3673,0.3966,0.3982,0.4504,0.0,0.0,0.0,0.0,0.0,0.0,0.0,0.6862,0.761,0.8322,0.8958,0.8938,0.8908,0.9068,0.9432,0.9693,0.9827,0.0,1.0017,1.0093,1.0075,1.02,1.0448,1.037,1.0421,1.0599,1.01,0.9665,0.9497,0.9513,0.9482,0.9506,0.9491,0.9536,0.9594,0.918,0.8813,0.8844,0.8986,0.909,0.9172,0.9061,0.9011,-0.5817,-0.5125,-0.4311,-0.3848,-0.363,-0.3446,-0.3331,-0.3142,-0.2282,-0.1573,-0.0966,-0.0912,-0.0556,-0.005,-0.0051,0.0,-0.0051,-0.0,0.0258,0.0641,0.0214,-0.0,-0.0,-0.0,-0.0,-0.0,0.0543,0.0856,0.0855,0.1087,0.1017,0.0711,0.0983,0.1059,0.0863,0.0743,0.0908,0.1261,0.0857,0.0404,-0.0,-0.0,-0.0,-0.0,-0.0,-0.0,-0.0,-0.0,-0.0,-0.0,-0.0,-0.0,-0.0,0.0,0.0,0.0,0.0,0.0,0.0,0.0,0.0,0.0,0.0,0.0,0.0,0.0,0.0,0.0,0.3903,0.0,0.4148,0.4645,0.0,0.0,0.0,0.6175,0.6742,0.6823,0.7121,0.78,0.0,0.0,0.9207,0.9396,0.9489,0.9716,1.0024,1.025,1.0156,1.0112,1.0107,1.0107,1.0093,1.0309,1.0691,1.0564,1.0319,1.0199,0.9989,0.9703,0.964,0.9448,0.9268,0.9192,0.9081,0.8958,0.9022,0.8977,0.8811,0.8308,0.8573,0.9,0.9086,0.8932,0.8855,-0.6435,-0.5898,-0.5488,-0.4903,-0.4273,-0.409,-0.3797,-0.3464,-0.2967,-0.2347,-0.1582,-0.1116,-0.0673,-0.0302,-0.0303,-0.0308,-0.0315,-0.0105,0.0054,0.0166,0.0055,-0.0,-0.0,-0.0,-0.0,-0.0,0.0167,0.0332,0.0554,0.0824,0.0931,0.0821,0.0651,0.0631,0.0748,0.0703,0.0605,0.0353,0.0252,0.0101,-0.0,-0.0,-0.0,-0.0,-0.0,-0.0,-0.0,-0.0,-0.0,-0.0,-0.0,-0.0,-0.0,0.0314,0.0,0.0,0.0,0.0,0.0,0.0,0.0,0.0,0.0,0.219,0.224,0.0,0.2769,0.0,0.3596,0.3996,0.429,0.4668,0.0,0.0,0.5922,0.6363,0.6807,0.7121,0.7401,0.7859,0.8495,0.8843,0.8868,0.9392,0.9813,0.9827,0.9942,1.0045,1.0198,1.0186,1.0114,1.0194,1.0127,1.0166,1.0478,0.9919,0.9402,0.953,0.9472,0.9344,0.9087,0.8958,0.8894,0.8705,0.8501,0.8565,0.8888,0.8829,0.8538,0.8175,0.8377,0.8689,0.8937,0.8937,0.8914,-0.6977,-0.6485,-0.6213,-0.5708,-0.5108,-0.4627,-0.4237,-0.3974,-0.355,-0.291,-0.2125,-0.1375,-0.0917,-0.0741,-0.0794,-0.0749,-0.0599,-0.049,-0.0275,-0.0,-0.0,-0.0,-0.0,-0.0,-0.0,-0.0,-0.0,0.0056,0.0224,0.0393,0.0617,0.0897,0.0449,0.0275,0.0371,0.037,0.0264,-0.0,-0.0,-0.0,-0.0,-0.0,-0.0,-0.0,-0.0,-0.0,-0.0,-0.0,-0.0,-0.0,-0.0,-0.0,-0.0,0.0174,0.0375,0.0,0.0,0.0,0.0,0.0,0.0,0.0,0.0,0.0,0.0,0.0,0.3029,0.3478,0.3798,0.4093,0.4465,0.4812,0.5194,0.5635,0.6105,0.6566,0.7091,0.7442,0.7687,0.7854,0.8467,0.8875,0.8853,0.9274,0.9603,0.9706,0.9733,0.9877,1.0206,1.0246,1.0187,1.0148,1.011,1.0047,1.0104,0.921,0.87,0.8952,0.8947,0.8759,0.8565,0.8376,0.8247,0.8122,0.7982,0.7977,0.8236,0.8312,0.8117,0.7746,0.7817,0.8133,0.8484,0.8565,0.8565,-0.7413,-0.6933,-0.6603,-0.6332,-0.595,-0.5183,-0.475,-0.4532,-0.3974,-0.3304,-0.2635,-0.1738,-0.129,-0.129,-0.1346,-0.1178,-0.101,-0.0954,-0.0617,-0.0112,-0.0112,-0.0056,-0.0,-0.0,-0.0112,-0.0112,-0.0056,-0.0056,-0.0056,-0.0056,0.0224,0.0729,0.0224,-0.0056,-0.0112,-0.0056,-0.0,-0.0,-0.0,-0.0,-0.0,-0.0,-0.0,-0.0,-0.0,-0.0,-0.0,-0.0,-0.0,-0.0,-0.0,-0.0,-0.0,-0.0,0.0155,0.0,0.0742,0.0,0.0,0.0,0.0,0.0,0.0,0.0,0.0,0.3025,0.3256,0.3906,0.4189,0.4405,0.4586,0.4959,0.5389,0.5802,0.6243,0.6727,0.726,0.7665,0.7931,0.7888,0.8259,0.8587,0.8845,0.9075,0.9262,0.9378,0.9424,0.9545,0.997,1.0091,1.0034,0.9919,0.9977,0.9779,0.9396,0.8624,0.8197,0.8609,0.8435,0.8163,0.8209,0.7956,0.7687,0.7697,0.764,0.7485,0.7456,0.769,0.769,0.7327,0.7376,0.7586,0.7893,0.8022,0.8002,-0.7634,-0.7203,-0.7031,-0.6652,-0.6119,-0.5896,-0.5399,-0.4794,-0.447,-0.3752,-0.2691,-0.224,-0.1903,-0.168,-0.157,-0.1515,-0.1459,-0.1234,-0.101,-0.0729,-0.0729,-0.0449,-0.0056,-0.0505,-0.0729,-0.0729,-0.0449,-0.0336,-0.0336,-0.0336,-0.0168,0.0168,-0.0168,-0.0449,-0.0673,0.0,0.0,0.0,-0.0,-0.0,-0.0,-0.0,-0.0,-0.0,-0.0,0.0,-0.0,-0.0,-0.0,-0.0,-0.0,0.0,0.0,0.0,0.0,0.0,0.0,0.0,0.0,0.0,0.0,0.0,0.271,0.295,0.3276,0.3203,0.3372,0.4075,0.4362,0.4478,0.4588,0.5015,0.5377,0.5634,0.6066,0.6559,0.7047,0.7506,0.7892,0.7969,0.827,0.8539,0.8581,0.8829,0.9017,0.9081,0.9075,0.9139,0.9221,0.9408,0.9472,0.9408,0.9356,0.9145,0.8765,0.8338,0.8093,0.8266,0.8188,0.804,0.7969,0.7873,0.7683,0.7539,0.7482,0.7438,0.7203,0.7158,0.7221,0.7341,0.7263,0.724,0.7637,0.7844,0.8027,-0.7949,0.0,-0.7306,-0.6987,0.0,-0.6277,-0.589,-0.5514,-0.4775,-0.3971,-0.3137,-0.2798,-0.2464,-0.2128,-0.211,-0.2011,-0.1898,-0.1693,-0.1412,-0.1116,-0.0926,-0.0747,-0.0459,-0.0791,-0.0897,-0.0897,-0.0729,-0.0617,-0.0617,-0.0617,-0.0561,-0.0449,-0.0561,-0.0729,-0.0897,-0.0449,-0.0112,-0.0,-0.0,-0.0,-0.0,-0.0,-0.0,-0.0,0.0,0.0,0.0,0.0,0.0,0.0,0.0,0.0,0.0,0.0,0.0,0.0204,0.0488,0.0805,0.1182,0.1554,0.2013,0.256,0.3046,0.3411,0.3599,0.3564,0.3721,0.4148,0.4391,0.4574,0.4743,0.5022,0.535,0.5651,0.5977,0.6406,0.6894,0.7318,0.7634,0.786,0.799,0.8063,0.8107,0.8376,0.8501,0.8511,0.8608,0.8684,0.8667,0.8967,0.9127,0.9085,0.9037,0.8821,0.8424,0.8015,0.7796,0.7905,0.7859,0.7762,0.7778,0.7584,0.7371,0.7233,0.7095,0.6999,0.68,0.6831,0.6952,0.6924,0.6948,0.6984,0.7162,0.7491,0.773,-0.8369,-0.8039,-0.7712,-0.7439,-0.7214,-0.6663,-0.6431,-0.6218,0.0,0.0,0.0,-0.3473,-0.3128,-0.274,-0.2755,-0.261,-0.2317,-0.2193,-0.191,-0.1416,-0.1201,-0.1066,-0.1059,-0.0973,-0.0959,-0.0954,-0.0954,-0.0954,-0.0954,-0.101,-0.0954,-0.0898,-0.0954,-0.0954,-0.0954,-0.0617,-0.0393,-0.0168,-0.0112,-0.0056,-0.0056,-0.0056,-0.0,-0.0,-0.0,-0.0,-0.0,-0.0,-0.0,-0.0,-0.0,-0.0,-0.0,-0.0,-0.0,0.0087,0.0435,0.0772,0.0995,0.1457,0.2022,0.2633,0.3327,0.377,0.3811,0.3979,0.4097,0.4224,0.4443,0.4706,0.4865,0.5075,0.5332,0.567,0.5929,0.6305,0.6741,0.7093,0.7345,0.7567,0.7521,0.7475,0.7724,0.7866,0.7936,0.8052,0.8208,0.825,0.8293,0.8642,0.8865,0.868,0.8786,0.8705,0.8203,0.7748,0.761,0.7713,0.757,0.7444,0.747,0.733,0.7114,0.6929,0.676,0.6622,0.6466,0.676,0.6865,0.6481,0.6604,0.6812,0.6716,0.7041,0.7356,-0.8927,-0.8695,-0.8637,-0.8224,-0.7704,-0.7645,-0.7249,-0.6625,-0.5688,-0.5026,-0.4673,-0.4426,-0.4062,-0.3643,-0.3481,-0.3184,-0.2875,-0.2762,-0.24,-0.191,-0.1841,-0.1751,-0.1647,-0.1403,-0.1208,-0.1237,-0.1235,-0.1234,-0.1234,-0.1235,-0.1122,-0.0954,-0.1122,-0.1234,-0.1122,-0.0954,-0.0785,-0.0785,-0.0505,-0.0336,-0.0336,-0.0112,-0.0,-0.0,-0.0,-0.0,-0.0,-0.0,-0.0,-0.0,-0.0,-0.0,-0.0,-0.0,0.0099,0.0345,0.0394,0.0688,0.127,0.1383,0.1811,0.2542,0.3111,0.355,0.3795,0.4217,0.4358,0.4229,0.4807,0.511,0.4838,0.5114,0.5376,0.5461,0.5856,0.624,0.6416,0.6763,0.6972,0.7007,0.6999,0.7136,0.7472,0.7658,0.7796,0.7938,0.8004,0.8037,0.8117,0.8364,0.8443,0.8122,0.8369,0.8292,0.7856,0.7605,0.753,0.7785,0.7478,0.7302,0.7417,0.7207,0.698,0.6935,0.6836,0.6844,0.6771,0.687,0.6832,0.6723,0.6594,0.6468,0.6729,0.6935,0.7003,-0.9387,-0.9266,-0.8921,-0.8622,-0.8339,-0.7919,-0.7431,-0.6832,-0.6621,-0.6245,-0.5658,-0.5036,-0.454,-0.4186,-0.3944,-0.3721,-0.3467,-0.3272,-0.2972,-0.2648,-0.2478,-0.2443,-0.2533,-0.2129,-0.1977,-0.1951,-0.1833,-0.1714,-0.1712,-0.1686,-0.1555,-0.1379,-0.1529,-0.1515,-0.1403,-0.1178,-0.1066,-0.1122,-0.0841,-0.0673,-0.0673,-0.0561,-0.0336,-0.0,-0.0166,-0.0163,-0.0,-0.0,-0.0,-0.0,-0.0,-0.0,-0.0,-0.0,0.0202,0.0655,0.0655,0.0807,0.1109,0.1489,0.1951,0.2565,0.2952,0.3249,0.3591,0.3971,0.4274,0.4355,0.4855,0.505,0.4928,0.5116,0.528,0.5499,0.5704,0.5929,0.6137,0.6424,0.6626,0.6626,0.6835,0.702,0.7212,0.7464,0.7583,0.774,0.7789,0.792,0.8024,0.8199,0.8212,0.7983,0.7985,0.7938,0.765,0.7403,0.7287,0.7446,0.7211,0.7091,0.7165,0.7019,0.6865,0.6791,0.6714,0.6714,0.6637,0.6563,0.6563,0.6563,0.649,0.6416,0.657,0.6567,0.6637,-0.9937,-0.988,-0.9405,-0.91,-0.8933,-0.8253,-0.7646,-0.7229,-0.745,-0.7163,-0.6599,-0.5693,-0.5068,-0.4712,-0.4498,-0.4285,-0.4038,-0.3791,-0.3563,-0.3351,-0.3085,-0.3045,-0.3151,-0.2894,-0.2795,-0.2716,-0.2465,-0.2279,-0.2273,-0.2164,-0.2071,-0.1937,-0.1953,-0.1922,-0.1738,-0.1458,-0.1345,-0.1458,-0.1289,-0.1122,-0.101,-0.0954,-0.0673,-0.028,-0.0393,-0.0443,-0.0216,-0.0054,-0.0,-0.0,-0.0,-0.0,-0.0,-0.0,0.0207,0.0724,0.0775,0.0827,0.0984,0.1536,0.2069,0.246,0.2763,0.3031,0.3333,0.3757,0.4095,0.4383,0.4732,0.4935,0.5048,0.5098,0.5226,0.5536,0.5617,0.5679,0.5822,0.6129,0.6293,0.6364,0.6639,0.6829,0.6997,0.7176,0.7275,0.7339,0.7472,0.7635,0.7761,0.7795,0.7804,0.7755,0.7599,0.7556,0.76,0.7176,0.7019,0.7103,0.6938,0.6857,0.6865,0.6788,0.6714,0.6563,0.6486,0.6486,0.6335,0.6335,0.6335,0.6335,0.6338,0.6261,0.6338,0.6338,0.6412,-1.0648,-1.0524,-1.0392,-1.0027,-0.937,-0.8709,-0.8404,-0.821,-0.7782,-0.7442,-0.7256,-0.6563,-0.5898,-0.5387,-0.5262,-0.4998,-0.4538,-0.4292,-0.403,-0.3756,-0.3682,-0.3563,-0.3294,-0.3535,-0.3673,-0.3594,-0.3151,-0.2909,-0.2909,-0.2764,-0.2598,-0.2359,-0.2464,-0.2423,-0.2138,-0.1847,-0.179,-0.1959,-0.2015,-0.1793,-0.129,-0.101,-0.0897,-0.0841,-0.0841,-0.084,-0.078,-0.0279,-0.0,-0.0,-0.0,-0.0,-0.0,-0.0,0.0111,0.0443,0.0443,0.0611,0.1055,0.1561,0.1845,0.1912,0.2422,0.2817,0.2895,0.3488,0.3964,0.4203,0.458,0.4795,0.491,0.499,0.5193,0.5415,0.5484,0.5617,0.5641,0.5819,0.5978,0.6119,0.6324,0.6448,0.6713,0.6753,0.6805,0.7011,0.703,0.7126,0.7161,0.7096,0.7096,0.7145,0.7275,0.7271,0.7096,0.6868,0.6791,0.6868,0.6791,0.6637,0.6641,0.6486,0.6338,0.6412,0.6335,0.6338,0.6338,0.6261,0.6261,0.6261,0.6261,0.6261,0.6261,0.6261,0.6335,-1.1126,-1.0877,-1.0688,-1.0168,-0.9518,-0.9204,-0.8894,-0.8452,-0.8182,-0.7852,-0.7521,-0.7199,-0.6675,-0.5958,-0.5686,-0.5359,-0.5093,-0.4894,-0.4558,-0.4087,-0.4087,-0.4,-0.3901,-0.4032,-0.4069,-0.403,-0.3697,-0.3434,-0.3489,-0.3316,-0.3179,-0.3026,-0.297,-0.2801,-0.2705,-0.2261,-0.2127,-0.2296,-0.241,-0.2298,-0.1849,-0.1514,-0.1178,-0.0954,-0.0954,-0.0954,-0.0897,-0.0673,-0.0449,-0.028,-0.0056,-0.0,-0.0,-0.0,0.0056,0.0168,0.0505,0.0785,0.0954,0.1234,0.1528,0.1843,0.2102,0.2388,0.2784,0.3151,0.3492,0.3754,0.4243,0.4607,0.4826,0.4929,0.5027,0.516,0.5289,0.5386,0.5555,0.5617,0.5682,0.6061,0.6205,0.6298,0.6485,0.6603,0.671,0.6857,0.6865,0.6865,0.6865,0.6865,0.6865,0.6791,0.6868,0.6945,0.6865,0.6641,0.6563,0.6637,0.6563,0.6412,0.6412,0.6335,0.6261,0.6261,0.6261,0.6261,0.6261,0.6261,0.6261,0.6261,0.6261,0.6261,0.6261,0.6261,0.6261,-1.1498,-1.1185,-1.0814,-1.0238,-0.9716,-0.9582,-0.9204,-0.8765,-0.8576,-0.8247,-0.7787,-0.7661,-0.7269,-0.6679,-0.6083,-0.5686,-0.5495,-0.5292,-0.4957,-0.4622,-0.4489,-0.4495,-0.457,-0.45,-0.4434,-0.4434,-0.4225,-0.4025,-0.3951,-0.3755,-0.366,-0.3497,-0.3355,-0.3241,-0.3146,-0.2653,-0.2554,-0.2721,-0.2759,-0.2687,-0.2408,-0.2074,-0.1684,-0.1178,-0.1234,-0.1178,-0.101,-0.0954,-0.0785,-0.0561,-0.0336,-0.0168,-0.0,-0.0,-0.0,-0.0,0.0393,0.0729,0.0898,0.1018,0.1263,0.1644,0.1849,0.2151,0.2543,0.2797,0.3025,0.333,0.3763,0.4164,0.4631,0.4634,0.4761,0.4957,0.5052,0.52,0.5428,0.5497,0.5684,0.6009,0.6219,0.63,0.6289,0.6464,0.6637,0.6714,0.6714,0.671,0.671,0.6633,0.6556,0.6405,0.6331,0.6405,0.6637,0.649,0.6416,0.6412,0.6412,0.6338,0.6261,0.6261,0.6261,0.6261,0.6261,0.6261,0.6261,0.6261,0.6261,0.6261,0.6264,0.6268,0.6261,0.6261,0.6261,-1.1747,-1.1498,-1.0877,-1.0498,-1.0244,-0.9786,-0.9454,-0.9332,-0.8829,-0.8517,-0.8387,-0.7992,-0.7666,-0.7396,-0.6675,-0.6156,-0.5892,-0.5561,-0.5359,-0.5226,-0.496,-0.4967,-0.5309,-0.4967,-0.4761,-0.4764,-0.4694,-0.4561,-0.4298,-0.4087,-0.3835,-0.367,-0.3646,-0.36,-0.3503,-0.3216,-0.3107,-0.3208,-0.3128,-0.3021,-0.2852,-0.2687,-0.2355,-0.1796,-0.1628,-0.1459,-0.129,-0.101,-0.0897,-0.0897,-0.0841,-0.0617,-0.0,-0.0,-0.0,-0.0,-0.0,0.0281,0.079,0.0925,0.1061,0.1308,0.1738,0.2055,0.2134,0.2499,0.273,0.3023,0.3161,0.3496,0.4182,0.4308,0.4436,0.4785,0.4881,0.5083,0.5319,0.5614,0.5838,0.5962,0.6139,0.621,0.6234,0.6331,0.6338,0.6338,0.6338,0.6335,0.6257,0.6099,0.6022,0.5957,0.5883,0.5792,0.6183,0.6295,0.6285,0.6305,0.6254,0.6295,0.6268,0.6261,0.6271,0.6285,0.6318,0.6322,0.6278,0.6261,0.6261,0.6268,0.6285,0.6366,0.6332,0.6285,0.6308,-1.1864,-1.1365,-1.0933,-1.0618,-1.0498,-1.0251,-0.9919,-0.9448,-0.9268,-0.9028,-0.8776,-0.8387,-0.8117,-0.7792,-0.733,-0.6811,-0.6222,-0.609,-0.5822,-0.5418,-0.5219,-0.5223,-0.5369,-0.5233,-0.5166,-0.5169,-0.4964,-0.4764,-0.4631,-0.4561,-0.4475,-0.4358,-0.4282,-0.4218,-0.4162,-0.3803,-0.3589,-0.3584,-0.3475,-0.331,-0.3028,-0.2965,-0.2742,-0.2355,-0.2074,-0.1794,-0.1628,-0.1459,-0.1234,-0.101,-0.0954,-0.0841,-0.0561,-0.0224,-0.0,-0.0,-0.0,0.0116,0.0348,0.0776,0.1042,0.1062,0.14,0.1626,0.1783,0.2139,0.2421,0.2488,0.2555,0.2849,0.3376,0.3748,0.4123,0.4535,0.4657,0.4894,0.5324,0.5603,0.5767,0.5775,0.5844,0.5867,0.5944,0.5948,0.587,0.587,0.587,0.5876,0.5873,0.5792,0.5749,0.5817,0.5756,0.5729,0.5796,0.5956,0.601,0.6134,0.6167,0.6124,0.6121,0.6102,0.6112,0.626,0.6254,0.6301,0.6278,0.6346,0.6332,0.6312,0.6407,0.641,0.6444,0.6444,0.6491,-1.1926,-1.1373,-1.1059,-1.0807,-1.0688,-1.0645,-1.0327,-0.9849,-0.9588,-0.9408,-0.9157,-0.8905,-0.8582,-0.8187,-0.7922,-0.7461,-0.6745,-0.6482,-0.6152,-0.5745,-0.5477,-0.5415,-0.5422,-0.5422,-0.5428,-0.5372,-0.503,-0.4894,-0.4897,-0.4831,-0.4827,-0.4752,-0.4733,-0.4625,-0.4601,-0.4299,-0.4186,-0.4059,-0.3949,-0.3767,-0.3465,-0.337,-0.3182,-0.2954,-0.2591,-0.224,-0.2076,-0.1797,-0.1572,-0.1346,-0.1066,-0.0897,-0.0841,-0.0336,-0.0,-0.0,-0.0,-0.0,-0.0,0.0431,0.0759,0.0968,0.1172,0.132,0.1476,0.1748,0.2018,0.2091,0.2198,0.2445,0.274,0.3207,0.3682,0.4169,0.4351,0.4651,0.5107,0.5397,0.546,0.5446,0.555,0.5634,0.5634,0.5634,0.5637,0.5562,0.559,0.562,0.5701,0.5589,0.5548,0.5633,0.5488,0.5459,0.5523,0.5505,0.5696,0.5748,0.5976,0.5945,0.5978,0.5972,0.6053,0.613,0.6271,0.6312,0.6325,0.6388,0.6424,0.64,0.6464,0.6559,0.6597,0.6637,0.6661,-1.1934,-1.156,-1.1254,-1.0996,-1.0807,-1.0638,-1.0595,-1.0391,-0.9856,-0.9588,-0.9466,-0.9426,-0.904,-0.8646,-0.8479,-0.8138,-0.7489,-0.6841,-0.6436,-0.6284,-0.5745,-0.5481,-0.5481,-0.5415,-0.5418,-0.5365,-0.5223,-0.5087,-0.509,-0.4964,-0.4831,-0.4827,-0.4888,-0.4869,-0.4824,-0.4755,-0.4686,-0.4574,-0.4479,-0.4357,-0.4227,-0.3929,-0.3698,-0.3516,-0.3206,-0.2992,-0.2705,-0.2193,-0.1797,-0.1685,-0.1234,-0.0954,-0.0845,-0.0395,-0.0,-0.0,-0.0,-0.0,-0.0,-0.0,0.0388,0.0781,0.0993,0.1072,0.1209,0.1412,0.1681,0.1759,0.2039,0.2245,0.2298,0.2669,0.3121,0.3644,0.3997,0.4355,0.4707,0.4936,0.4996,0.5074,0.5318,0.5482,0.5404,0.5401,0.5407,0.5442,0.5583,0.5574,0.5594,0.542,0.5339,0.5199,0.5121,0.5022,0.5068,0.5129,0.5323,0.5476,0.567,0.5774,0.58,0.5806,0.5902,0.5981,0.6111,0.6158,0.6309,0.6388,0.6443,0.6518,0.6585,0.6698,0.6736,0.6763,0.6773,-1.2058,-1.1747,-1.1373,-1.1185,-1.0996,-1.0744,-1.0561,-1.0588,-1.0321,-0.9983,-0.9588,-0.9466,-0.9344,-0.9074,-0.8871,-0.8682,-0.8415,-0.7673,-0.7007,-0.644,-0.6156,-0.6083,-0.5958,-0.5617,-0.5418,-0.5428,-0.5359,-0.5292,-0.5292,-0.5229,-0.5229,-0.5229,-0.5229,-0.5229,-0.5226,-0.518,-0.512,-0.4826,-0.5038,-0.4905,-0.4433,-0.4321,-0.4057,-0.3633,-0.3662,-0.3649,-0.353,-0.2815,-0.2247,-0.1856,-0.1628,-0.1361,-0.1043,-0.083,-0.0482,-0.0,-0.0,-0.0,-0.0,-0.0,-0.0,0.0333,0.0537,0.0808,0.1078,0.1212,0.1277,0.1351,0.1484,0.1617,0.1964,0.2332,0.2769,0.3364,0.3612,0.3886,0.4246,0.4441,0.4693,0.4932,0.4854,0.4776,0.4776,0.4776,0.4894,0.4877,0.4929,0.4976,0.5054,0.4939,0.4907,0.4877,0.4718,0.4486,0.4521,0.4544,0.4592,0.4821,0.509,0.5448,0.5464,0.5472,0.5653,0.5818,0.5949,0.6096,0.6248,0.6307,0.6444,0.6518,0.6625,0.6739,0.6773,0.6885,0.6905,-1.2243,-1.1864,-1.156,-1.131,-1.1059,-1.073,-1.0611,-1.0581,-1.0588,-1.0456,-1.0199,-0.9947,-0.9807,-0.9645,-0.9474,-0.9196,-0.899,-0.8579,-0.7815,-0.6857,-0.6444,-0.642,-0.6358,-0.5888,-0.5547,-0.5488,-0.5491,-0.5425,-0.5428,-0.5428,-0.5428,-0.5428,-0.5428,-0.5428,-0.5428,-0.5425,-0.5308,-0.5168,-0.5291,-0.5182,-0.4835,-0.4646,-0.4436,-0.4117,-0.4083,-0.4064,-0.3992,-0.3436,-0.2787,-0.2327,-0.2037,-0.1648,-0.114,-0.1039,-0.0806,-0.0441,-0.0,-0.0,-0.0,-0.0,-0.0,-0.0,0.0202,0.0405,0.0674,0.0875,0.1076,0.1083,0.121,0.135,0.1629,0.2016,0.238,0.2688,0.3147,0.3473,0.3832,0.4075,0.4307,0.4462,0.4462,0.4307,0.4229,0.437,0.4398,0.4458,0.4529,0.4502,0.458,0.4455,0.4506,0.4459,0.4212,0.4066,0.3926,0.3935,0.3937,0.4119,0.4372,0.47,0.4963,0.5051,0.5144,0.5571,0.572,0.5967,0.6127,0.627,0.6411,0.65,0.6586,0.6714,0.6843,0.6957,0.6974,-1.2468,-1.2096,-1.1807,-1.1529,-1.122,-1.0819,-1.0641,-1.0564,-1.0591,-1.0835,-1.1035,-1.0724,-1.0429,-1.0353,-1.0118,-0.9869,-0.9443,-0.9233,-0.872,-0.7748,-0.7043,-0.6614,-0.6398,-0.6106,-0.5818,-0.5617,-0.5617,-0.5554,-0.5495,-0.5428,-0.5428,-0.5428,-0.5428,-0.5428,-0.5428,-0.5428,-0.5422,-0.5342,-0.5415,-0.5269,-0.512,-0.4961,-0.4897,-0.4763,-0.4478,-0.43,-0.4176,-0.3845,-0.3451,-0.2952,-0.2331,-0.1787,-0.13,-0.1116,-0.1012,-0.0905,-0.0389,-0.0,-0.0,-0.0,-0.0,-0.0,-0.0,-0.0,-0.0,0.061,0.0885,0.0886,0.1013,0.1217,0.1327,0.1647,0.1881,0.2041,0.2657,0.313,0.3288,0.3684,0.3919,0.3912,0.4146,0.4162,0.3789,0.4125,0.4236,0.4374,0.4309,0.4293,0.4262,0.4128,0.3916,0.384,0.3652,0.3481,0.3318,0.3227,0.3227,0.3317,0.3585,0.3942,0.4478,0.4569,0.4837,0.5188,0.545,0.5714,0.5968,0.6098,0.618,0.6274,0.6383,0.6694,0.6789,0.6871,0.6959,-1.2949,-1.259,-1.2503,-1.227,-1.1931,-1.1276,-1.0836,-1.0642,-1.0587,-1.1001,-1.1343,-1.1669,-1.1292,-1.0635,-1.0544,-1.0408,-1.0045,-0.9691,-0.9563,-0.915,-0.8103,-0.7194,-0.6519,-0.634,-0.609,-0.5888,-0.5822,-0.5822,-0.5756,-0.5624,-0.5554,-0.555,-0.5428,-0.5428,-0.5428,-0.5428,-0.5428,-0.5428,-0.5428,-0.5359,-0.5355,-0.5259,-0.5239,-0.5232,-0.4993,-0.4643,-0.4324,-0.4069,-0.3594,-0.303,-0.2394,-0.2038,-0.1851,-0.1492,-0.1183,-0.1059,-0.0932,-0.0668,-0.0403,-0.0202,-0.0,-0.0,-0.0,-0.0,-0.0,-0.0,-0.0,-0.0,0.0373,0.0622,0.1176,0.1415,0.1573,0.1886,0.2356,0.2668,0.2902,0.3137,0.3452,0.3761,0.3606,0.3427,0.3421,0.3455,0.3647,0.3727,0.3791,0.3756,0.3712,0.3556,0.3315,0.3226,0.3133,0.2868,0.2691,0.2602,0.2512,0.2511,0.269,0.305,0.3674,0.4121,0.448,0.4835,0.5008,0.5272,0.5453,0.5612,0.5811,0.5905,0.6169,0.6435,0.652,0.6517,0.6605,-1.3348,-1.311,-1.2989,-1.2736,-1.239,-1.188,-1.1376,-1.1083,-1.1191,-1.151,-1.1839,-1.2116,-1.1898,-1.1242,-1.1033,-1.0882,-1.0668,-1.0307,-1.0018,-0.9769,-0.9186,-0.8122,-0.7112,-0.6752,-0.6422,-0.6156,-0.609,-0.6024,-0.5892,-0.5756,-0.5752,-0.5686,-0.5554,-0.5491,-0.5488,-0.5425,-0.5428,-0.5428,-0.5428,-0.5428,-0.5428,-0.5428,-0.5425,-0.5359,-0.5156,-0.4818,-0.4353,-0.4159,-0.383,-0.3166,-0.2731,-0.2494,-0.2169,-0.1865,-0.1479,-0.1143,-0.1077,-0.101,-0.0808,-0.0539,-0.0405,-0.0,-0.0135,-0.0,-0.0,-0.0,-0.0,-0.0,-0.0,-0.0,0.0863,0.1179,0.1415,0.1572,0.1885,0.2119,0.2435,0.2591,0.2904,0.3067,0.302,0.2831,0.2766,0.2866,0.3074,0.3118,0.3151,0.3098,0.3127,0.2957,0.2781,0.2691,0.2602,0.2512,0.2423,0.2333,0.2243,0.2154,0.2154,0.2423,0.296,0.3585,0.3942,0.43,0.4565,0.4832,0.501,0.5277,0.5458,0.5727,0.5988,0.6077,0.6166,0.6163,0.6251,-1.3875,-1.364,-1.3367,-1.3044,-1.2802,-1.2604,-1.222,-1.1737,-1.2026,-1.2249,-1.2281,-1.2264,-1.2143,-1.2003,-1.1563,-1.1323,-1.1093,-1.0852,-1.0409,-1.006,-0.9685,-0.9052,-0.7924,-0.7223,-0.6852,-0.6539,-0.6436,-0.6284,-0.6086,-0.602,-0.5954,-0.5888,-0.5752,-0.5683,-0.562,-0.5488,-0.5428,-0.5425,-0.5425,-0.5428,-0.5428,-0.5428,-0.5428,-0.5359,-0.5223,-0.4954,-0.4558,-0.4361,-0.4018,-0.3355,-0.3226,-0.2883,-0.2351,-0.2287,-0.1884,-0.1412,-0.1278,-0.121,-0.1076,-0.101,-0.0944,-0.0607,-0.0338,-0.0068,-0.0,-0.0,-0.0,-0.0,-0.0,-0.0,0.0469,0.0864,0.11,0.1179,0.1257,0.1415,0.1729,0.2042,0.2196,0.2435,0.2497,0.2308,0.2209,0.2263,0.2666,0.2722,0.2658,0.2674,0.2598,0.2422,0.2333,0.2243,0.2154,0.2154,0.2064,0.2064,0.2064,0.1974,0.1974,0.2154,0.2422,0.2868,0.3315,0.3671,0.3939,0.4297,0.4746,0.4926,0.5104,0.5282,0.5458,0.5725,0.5902,0.5808,0.5897,-1.4613,-1.4235,-1.4237,-1.3993,-1.3581,-1.3373,-1.2992,-1.2604,-1.2387,-1.2328,-1.2278,-1.2291,-1.2178,-1.2003,-1.1855,-1.1706,-1.1335,-1.1111,-1.0651,-0.9948,-0.9879,-0.9786,-0.9016,-0.8106,-0.7274,-0.6979,-0.6871,-0.6688,-0.6548,-0.635,-0.6214,-0.6148,-0.5954,-0.5822,-0.5822,-0.5686,-0.5554,-0.555,-0.5491,-0.5428,-0.5428,-0.5428,-0.5428,-0.5362,-0.5359,-0.5292,-0.5093,-0.4761,-0.4361,-0.403,-0.3563,-0.3159,-0.2893,-0.2557,-0.2288,-0.2018,-0.1748,-0.1547,-0.121,-0.1144,-0.1078,-0.1013,-0.0823,-0.0696,-0.007,-0.0,-0.0,-0.0,-0.0,-0.0,-0.0,-0.0,0.0471,0.0707,0.0786,0.0943,0.1336,0.1729,0.1963,0.1977,0.2012,0.1914,0.1663,0.1921,0.2209,0.2222,0.2234,0.2242,0.2155,0.1974,0.1974,0.1885,0.1705,0.1615,0.1615,0.1615,0.1615,0.1615,0.1615,0.1705,0.1973,0.2241,0.2689,0.3047,0.3315,0.3674,0.4123,0.4389,0.4478,0.4746,0.5015,0.5191,0.5369,0.5366,0.5453,-1.5095,-1.5018,-1.4712,-1.4425,-1.4072,-1.3645,-1.3353,-1.3053,-1.2579,-1.2278,-1.2285,-1.2291,-1.2231,-1.215,-1.2003,-1.1855,-1.1632,-1.126,-1.0881,-1.0496,-1.0443,-1.0237,-0.986,-0.9082,-0.8264,-0.7587,-0.74,-0.7176,-0.6964,-0.6745,-0.6618,-0.6548,-0.6288,-0.6156,-0.609,-0.5885,-0.5686,-0.5617,-0.5554,-0.5488,-0.5422,-0.5425,-0.5428,-0.5428,-0.5428,-0.5428,-0.5362,-0.5024,-0.4691,-0.4292,-0.3964,-0.3563,-0.3228,-0.2958,-0.2758,-0.2624,-0.2221,-0.1951,-0.1681,-0.1412,-0.1346,-0.1349,-0.1242,-0.0985,-0.0643,-0.0589,-0.0604,-0.0537,-0.0,-0.0,-0.0,-0.0,-0.0,0.0236,0.0471,0.0786,0.1179,0.1493,0.1584,0.1602,0.1637,0.1615,0.1572,0.1673,0.1682,0.1788,0.1789,0.1795,0.1795,0.1615,0.1615,0.1525,0.1256,0.1076,0.1076,0.1076,0.1076,0.1076,0.1076,0.1256,0.1615,0.1794,0.2063,0.242,0.278,0.305,0.3409,0.3676,0.3942,0.4123,0.4302,0.4569,0.4837,0.4924,0.5099,-1.5358,-1.5735,-1.4999,-1.4641,-1.4353,-1.3855,-1.3572,-1.3368,-1.2813,-1.2505,-1.2271,-1.2291,-1.2291,-1.2224,-1.2157,-1.2009,-1.1855,-1.1484,-1.118,-1.1019,-1.098,-1.0657,-1.0256,-0.9952,-0.941,-0.8299,-0.7913,-0.7659,-0.7311,-0.7073,-0.6942,-0.6881,-0.6613,-0.6486,-0.6416,-0.6152,-0.5954,-0.5885,-0.5749,-0.5617,-0.5481,-0.5422,-0.5425,-0.5428,-0.5428,-0.5428,-0.5359,-0.5156,-0.4888,-0.4489,-0.4431,-0.403,-0.356,-0.3293,-0.3226,-0.3159,-0.2691,-0.2354,-0.2153,-0.1885,-0.1684,-0.1622,-0.139,-0.1214,-0.117,-0.1122,-0.1147,-0.1009,-0.0,-0.0,-0.0,-0.0,-0.0,-0.0,0.0314,0.0708,0.1026,0.1106,0.1202,0.1307,0.1253,0.1122,0.1147,0.1161,0.1254,0.1256,0.1256,0.1256,0.1256,0.1346,0.1346,0.1436,0.1256,0.0718,0.0628,-0.0,-0.0,-0.0,-0.0,0.0897,0.1166,0.1345,0.1614,0.1974,0.2243,0.2513,0.2872,0.3141,0.3318,0.3499,0.3678,0.3855,0.4214,0.4482,0.4569,-1.5797,-1.5805,-1.5434,-1.507,-1.4569,-1.4129,-1.3783,-1.3499,-1.3287,-1.29,-1.2352,-1.2278,-1.2285,-1.2298,-1.2305,-1.2157,-1.2003,-1.1706,-1.1477,-1.1236,-1.1186,-1.1037,-1.0858,-1.076,-1.0431,-0.985,-0.896,-0.8096,-0.7729,-0.7461,-0.733,-0.7134,-0.6942,-0.6815,-0.6749,-0.6482,-0.6284,-0.6148,-0.5951,-0.5818,-0.5683,-0.555,-0.5488,-0.5425,-0.5425,-0.5428,-0.5359,-0.5223,-0.5156,-0.5156,-0.4897,-0.4498,-0.4164,-0.3828,-0.3627,-0.3293,-0.3094,-0.2825,-0.249,-0.2293,-0.2045,-0.1878,-0.1712,-0.1463,-0.135,-0.1304,-0.1322,-0.1251,-0.11,-0.0,-0.0,-0.0,-0.0,-0.0,0.0079,-0.0,-0.0,0.0567,0.0813,0.1076,0.085,0.0697,0.0709,0.0718,0.0808,0.0808,0.0808,0.0808,0.0808,0.0897,0.0897,0.1166,0.1346,0.0808,0.027,-0.0,-0.0,-0.0,-0.0,-0.0,0.0808,0.0897,0.1076,0.1615,0.1885,0.2064,0.2333,0.2603,0.2782,0.2872,0.3051,0.323,0.3499,0.3765,0.3855,-1.5945,-1.6061,-1.5788,-1.53,-1.4792,-1.4489,-1.4049,-1.355,-1.3499,-1.328,-1.2893,-1.2505,-1.2352,-1.2372,-1.2298,-1.2224,-1.2157,-1.2096,-1.1861,-1.17,-1.1719,-1.1416,-1.1168,-1.1129,-1.0979,-1.0491,-0.9631,-0.8779,-0.8368,-0.8027,-0.7792,-0.7591,-0.74,-0.7269,-0.7199,-0.6937,-0.6675,-0.6478,-0.6218,-0.6152,-0.6017,-0.5749,-0.5484,-0.5418,-0.5422,-0.5422,-0.5362,-0.5359,-0.5223,-0.5223,-0.5024,-0.4827,-0.4628,-0.4428,-0.4164,-0.3835,-0.35,-0.323,-0.2905,-0.272,-0.263,-0.2384,-0.2178,-0.2011,-0.1819,-0.1698,-0.157,-0.1415,-0.1336,-0.1179,-0.0,-0.0471,-0.0314,-0.0236,-0.0157,-0.0,-0.0,-0.0,-0.0,-0.0,-0.0,-0.0,0.0178,0.0269,0.0359,0.0359,-0.0,-0.0,-0.0,-0.0,-0.0,-0.0,-0.0,-0.0,-0.0,-0.0,-0.0,-0.0,-0.0,-0.0,0.0451,0.0542,0.09,0.1346,0.1525,0.1627,0.1705,0.1974,0.2064,0.2244,0.2424,0.2602,0.2871,0.305,0.3148,-1.5978,-1.6305,-1.5965,-1.5584,-1.5078,-1.4713,-1.4274,-1.376,-1.355,-1.3506,-1.3368,-1.2893,-1.2586,-1.2526,-1.2378,-1.2305,-1.2305,-1.2251,-1.2251,-1.2244,-1.219,-1.1868,-1.1539,-1.1304,-1.1323,-1.1082,-1.042,-0.9691,-0.8963,-0.8543,-0.8252,-0.8047,-0.7922,-0.7727,-0.7591,-0.733,-0.6999,-0.6736,-0.6544,-0.6548,-0.628,-0.5881,-0.5547,-0.5481,-0.5481,-0.5484,-0.5422,-0.5425,-0.5359,-0.5223,-0.5156,-0.5093,-0.4964,-0.4897,-0.4788,-0.456,-0.4011,-0.3662,-0.3413,-0.3271,-0.3189,-0.2945,-0.2737,-0.2562,-0.2371,-0.2175,-0.1886,-0.1649,-0.1335,-0.1336,-0.11,-0.0943,-0.0786,-0.0708,-0.0474,-0.0,-0.0,-0.0,-0.0,-0.0,-0.0,-0.0,-0.0,-0.0,-0.0,-0.0,-0.0,-0.0,-0.0,-0.0,-0.0,-0.0,-0.0,-0.0,-0.0,-0.0,-0.0,-0.0,-0.0,-0.0,-0.0,0.0273,-0.0,-0.0,0.1191,0.1196,0.1273,0.1347,0.1615,0.1795,0.1885,0.2162,0.2448,0.2639,0.2646,-1.6029,-1.6287,-1.6131,-1.5929,-1.5584,-1.4927,-1.4569,-1.4353,-1.3833,-1.3477,-1.3499,-1.336,-1.298,-1.2606,-1.2378,-1.2305,-1.2305,-1.2305,-1.2311,-1.2311,-1.2251,-1.2251,-1.2096,-1.2197,-1.1861,-1.1573,-1.1056,-1.0317,-0.9541,-0.8986,-0.8646,-0.8452,-0.8242,-0.8042,-0.7922,-0.7792,-0.7531,-0.7391,-0.7199,-0.6876,-0.6482,-0.6284,-0.6086,-0.5888,-0.5822,-0.5752,-0.555,-0.5554,-0.5495,-0.5379,-0.5372,-0.5365,-0.5292,-0.5156,-0.5307,-0.5272,-0.4874,-0.4242,-0.3916,-0.3854,-0.3721,-0.3548,-0.3317,-0.3135,-0.2865,-0.2652,-0.2434,-0.2354,-0.1805,-0.1413,-0.1414,-0.1258,-0.1179,-0.1189,-0.104,-0.0571,-0.0,-0.0,-0.0,-0.0,-0.0,-0.0,-0.0,-0.0,-0.0,-0.0,-0.0,-0.0,-0.0,-0.0,-0.0,-0.0,-0.0,-0.0,-0.0,-0.0,-0.0,-0.0,-0.0,-0.0,-0.0,-0.0,-0.0,-0.0,-0.0,-0.0,0.1014,0.1094,0.1353,0.1446,0.1459,0.1833,0.2118,0.2217,0.2224,-1.6056,-1.6264,-1.6079,-1.5948,-1.5788,-1.5434,-1.5007,-1.4561,-1.4266,-1.3905,-1.355,-1.3499,-1.3134,-1.268,-1.2526,-1.2378,-1.2305,-1.2305,-1.2305,-1.2305,-1.2311,-1.2318,-1.2318,-1.2331,-1.2183,-1.1951,-1.1433,-1.0891,-1.0164,-0.9638,-0.9128,-0.877,-0.8694,-0.8501,-0.8317,-0.8187,-0.8057,-0.7857,-0.7526,-0.7199,-0.6872,-0.6609,-0.6346,-0.6156,-0.6226,-0.6102,-0.5973,-0.5822,-0.574,-0.5656,-0.562,-0.5507,-0.5504,-0.544,-0.5614,-0.5688,-0.5397,-0.4928,-0.4459,-0.4403,-0.4254,-0.4009,-0.3825,-0.3571,-0.3292,-0.3141,-0.2982,-0.2746,-0.2277,-0.1962,-0.1727,-0.165,-0.1507,-0.1442,-0.1462,-0.1165,-0.0,-0.0,-0.0,-0.0,-0.0,-0.0,-0.0,-0.0,-0.0,-0.0,-0.0,-0.0,-0.0,-0.0,-0.0,-0.0,-0.0,-0.0,-0.0,-0.0,-0.0,-0.0,-0.0,-0.0,-0.0,-0.0,-0.0,-0.0,-0.0,-0.0,-0.0,0.0922,0.1091,0.1101,0.1022,0.1404,0.1696,0.1791,0.1798,-1.586,-1.615,-1.6087,-1.6056,-1.6,-1.5867,-1.5443,-1.4935,-1.4641,-1.4274,-1.3833,-1.363,-1.32,-1.2826,-1.2673,-1.2526,-1.2378,-1.2298,-1.2305,-1.2305,-1.2305,-1.2305,-1.2311,-1.2318,-1.2325,-1.2325,-1.1767,-1.1333,-1.0925,-1.0362,-0.9741,-0.9163,-0.9139,-0.8958,-0.877,-0.8576,-0.8511,-0.8257,-0.7857,-0.7526,-0.7269,-0.692,-0.6676,-0.6568,-0.6522,-0.655,-0.6495,-0.6304,-0.6104,-0.5949,-0.5916,-0.5745,-0.5665,-0.5684,-0.5833,-0.5915,-0.5761,-0.5532,-0.5152,-0.498,-0.4793,-0.4525,-0.425,-0.3988,-0.3684,-0.3769,-0.3692,-0.3215,-0.2981,-0.2668,-0.2357,-0.2131,-0.1999,-0.1785,-0.1649,-0.1521,-0.0,-0.0,-0.0,-0.0,-0.0,-0.0,-0.0,-0.0,-0.0,-0.0,-0.0,-0.0,-0.0,-0.0,-0.0,-0.0,-0.0,-0.0,-0.0,-0.0,-0.0,-0.0,-0.0,-0.0,-0.0,-0.0,-0.0,-0.0,-0.0,-0.0,-0.0,-0.0,0.0919,0.0751,0.0669,0.096,0.1253,0.1253,0.1355,-1.5463,-1.5871,-1.6122,-1.636,-1.6455,-1.6,-1.5788,-1.5584,-1.4935,-1.4641,-1.4353,-1.3848,-1.3419,-1.3119,-1.282,-1.2599,-1.2599,-1.2378,-1.2305,-1.2305,-1.2305,-1.2305,-1.2305,-1.2305,-1.2305,-1.2305,-1.1991,-1.1768,-1.1456,-1.0987,-1.025,-0.959,-0.9484,-0.9344,-0.9151,-0.8958,-0.877,-0.8522,-0.8208,-0.7892,-0.7683,-0.743,-0.7265,-0.6958,-0.6937,-0.6974,-0.6982,-0.673,-0.6529,-0.635,-0.6219,-0.6136,-0.6006,-0.594,-0.605,-0.6173,-0.6084,-0.5872,-0.5686,-0.5484,-0.5289,-0.4991,-0.4611,-0.4384,-0.4231,-0.3921,-0.3765,-0.3765,-0.3684,-0.3381,-0.3005,-0.2637,-0.2586,-0.2313,-0.2103,-0.1886,-0.1748,-0.0,-0.0,-0.0,-0.1077,-0.0718,-0.0,-0.0,-0.0,-0.0,-0.0,-0.0,-0.0,-0.0,-0.0,-0.0,-0.0,-0.0,-0.0,-0.0,-0.0,-0.0,-0.0,-0.0,-0.0,-0.0,-0.0,-0.0,-0.0,-0.0,-0.0,-0.0,-0.0,-0.0,0.0294,0.059,0.0788,0.0789,0.0794,-1.5505,-1.5808,-1.5936,-1.6132,-1.6397,-1.6056,-1.5852,-1.578,-1.5443,-1.5007,-1.4553,-1.4,-1.3572,-1.3346,-1.3127,-1.2826,-1.2599,-1.2358,-1.2291,-1.2298,-1.2305,-1.2305,-1.2305,-1.2305,-1.2305,-1.2305,-1.2218,-1.2005,-1.1779,-1.1394,-1.0905,-1.0293,-0.9955,-0.9664,-0.9402,-0.9227,-0.8975,-0.8826,-0.8646,-0.8456,-0.8369,-0.8113,-0.7883,-0.7692,-0.7799,-0.781,-0.7673,-0.7237,-0.7089,-0.6868,-0.6672,-0.6537,-0.6475,-0.6368,-0.6352,-0.6468,-0.6332,-0.62,-0.6076,-0.5944,-0.5631,-0.5401,-0.5007,-0.4771,-0.4774,-0.4384,-0.4231,-0.4231,-0.4399,-0.4193,-0.3612,-0.3399,-0.3275,-0.2944,-0.2577,-0.2357,-0.2119,-0.1785,-0.1523,-0.1524,-0.1436,-0.1166,-0.0807,-0.0,-0.0,-0.0,-0.0,-0.0,-0.0,-0.0,-0.0,-0.0,-0.0,-0.0,-0.0,-0.0,-0.0,-0.0,-0.0,-0.0,-0.0,-0.0,-0.0,-0.0,-0.0,-0.0,-0.0,-0.0,-0.0,-0.0,-0.0,0.0201,0.0302,-0.0,-0.0,-1.5537,-1.5689,-1.5648,-1.5826,-1.6158,-1.5987,-1.6044,-1.6067,-1.5869,-1.5211,-1.4277,-1.3853,-1.3637,-1.3395,-1.3194,-1.3055,-1.2785,-1.2586,-1.2358,-1.2291,-1.2298,-1.2305,-1.2305,-1.2305,-1.2305,-1.2305,-1.2291,-1.2164,-1.2017,-1.1703,-1.1273,-1.0855,-1.0516,-1.018,-0.9887,-0.9491,-0.9255,-0.9254,-0.9231,-0.9168,-0.9064,-0.8829,-0.8517,-0.8332,-0.8471,-0.8461,-0.8189,-0.7906,-0.7647,-0.7418,-0.7238,-0.706,-0.69,-0.6868,-0.6714,-0.6641,-0.649,-0.6416,-0.6257,-0.6022,-0.5864,-0.5634,-0.5398,-0.5243,-0.5085,-0.4851,-0.4621,-0.4628,-0.4909,-0.4906,-0.4247,-0.4035,-0.3851,-0.3521,-0.3141,-0.2921,-0.2578,-0.224,-0.1973,-0.1793,-0.1615,-0.1346,-0.1076,-0.0718,-0.0,-0.0,-0.0,-0.0,-0.0,-0.0,-0.0,-0.0,-0.0,-0.0,-0.0,-0.0,-0.0,-0.0,-0.0,-0.0,-0.0,-0.0,-0.0,-0.0,-0.0,-0.0,-0.0,-0.0,-0.0,-0.0,-0.0,-0.0,-0.0,-0.0,-0.0,-1.543,-1.5371,-1.5303,-1.5472,-1.5835,-1.5771,-1.6113,-1.6487,-1.5915,-1.4889,-1.3811,-1.3593,-1.3545,-1.3329,-1.3164,-1.3013,-1.3013,-1.2764,-1.2485,-1.2345,-1.2372,-1.2305,-1.2305,-1.2298,-1.2305,-1.2305,-1.2298,-1.2278,-1.2238,-1.185,-1.1597,-1.1369,-1.1062,-1.0705,-1.054,-1.0077,-0.9916,-0.9831,-0.9788,-0.9742,-0.9606,-0.9504,-0.9233,-0.8988,-0.8946,-0.8941,-0.8796,-0.8421,-0.8143,-0.8023,-0.7656,-0.7452,-0.7399,-0.7176,-0.6945,-0.6718,-0.6641,-0.649,-0.6338,-0.6096,-0.5941,-0.5864,-0.5631,-0.5556,-0.5482,-0.5246,-0.5012,-0.5021,-0.5342,-0.5257,-0.4821,-0.4455,-0.4284,-0.4098,-0.3807,-0.3477,-0.3132,-0.2689,-0.2331,-0.2152,-0.1794,-0.1436,-0.1256,-0.0987,-0.0538,-0.0,-0.0,-0.0,-0.0,-0.0,-0.0,-0.0,-0.0,-0.0,-0.0,-0.0,-0.0,-0.0,-0.0,-0.0,-0.0,-0.0,-0.0,-0.0,-0.0,-0.0,-0.0,-0.0,-0.0,-0.0,-0.0,-0.0,-0.0,-0.0,-0.0,-1.542,-1.541,-1.5362,-1.5359,-1.5415,-1.5442,-1.5677,-1.5808,-1.4846,-1.3983,-1.3653,-1.3576,-1.3597,-1.3369,-1.3066,-1.2932,-1.2984,-1.2821,-1.2555,-1.2391,-1.2412,-1.2365,-1.2365,-1.2298,-1.2305,-1.2305,-1.2305,-1.2298,-1.2285,-1.1884,-1.1908,-1.1826,-1.1363,-1.1055,-1.0712,-1.04,-1.0397,-1.048,-1.0435,-1.0379,-1.0337,-1.0171,-0.9925,-0.9532,-0.9567,-0.9539,-0.9397,-0.8937,-0.8627,-0.8479,-0.8093,-0.7791,-0.7714,-0.7488,-0.7253,-0.7026,-0.6872,-0.6714,-0.6486,-0.6331,-0.6177,-0.6103,-0.5944,-0.5789,-0.5786,-0.5559,-0.5404,-0.5378,-0.5566,-0.5391,-0.5103,-0.4939,-0.4858,-0.468,-0.4376,-0.4111,-0.3762,-0.3135,-0.2688,-0.269,-0.2422,-0.1884,-0.1525,-0.1346,-0.0987,-0.072,-0.045,-0.0091,-0.0,-0.0,-0.0,-0.0,-0.0,-0.0,-0.0,-0.0,-0.0,-0.0,-0.0,-0.0,-0.0,-0.0,-0.0,-0.0,-0.0,-0.0,-0.0,-0.0,-0.0,-0.0,-0.0,-0.0,-0.0,-0.0,-0.0,-1.542,-1.542,-1.542,-1.5362,-1.5244,-1.5264,-1.5293,-1.5114,-1.4242,-1.37,-1.3564,-1.3518,-1.3445,-1.332,-1.3053,-1.2878,-1.2895,-1.2702,-1.289,-1.2611,-1.2508,-1.241,-1.2318,-1.2352,-1.2378,-1.2298,-1.2285,-1.2271,-1.2124,-1.177,-1.1641,-1.1641,-1.1482,-1.1169,-1.0922,-1.0857,-1.0923,-1.1077,-1.1066,-1.1082,-1.09,-1.0781,-1.0576,-1.0346,-1.0218,-0.9997,-0.9776,-0.9468,-0.9008,-0.8775,-0.8475,-0.8174,-0.8021,-0.7872,-0.7638,-0.733,-0.7022,-0.6788,-0.656,-0.6486,-0.6335,-0.6261,-0.6099,-0.6099,-0.6022,-0.5948,-0.5836,-0.5839,-0.5764,-0.5779,-0.5687,-0.5532,-0.5269,-0.5095,-0.4919,-0.4654,-0.43,-0.3673,-0.3314,-0.3317,-0.2869,-0.2332,-0.1885,-0.1615,-0.1436,-0.117,-0.0903,-0.0549,-0.0093,-0.0,-0.0,-0.0,-0.0,-0.0,-0.0,-0.0,-0.0,-0.0,-0.0,-0.0,-0.0,-0.0,-0.0,-0.0,-0.0,-0.0,-0.0,-0.0,-0.0,-0.0,-0.0,-0.0,-0.0,-0.0,-0.0,-1.542,-1.542,-1.542,-1.542,-1.5362,-1.5244,-1.4959,-1.4565,-1.4501,-1.4132,-1.3554,-1.3544,-1.3422,-1.3092,-1.2996,-1.2933,-1.2796,-1.2631,-1.2807,-1.295,-1.265,-1.2506,-1.2473,-1.2462,-1.2249,-1.2257,-1.2171,-1.2056,-1.1935,-1.172,-1.1451,-1.1202,-1.1281,-1.1243,-1.1233,-1.1344,-1.1423,-1.1592,-1.1721,-1.1617,-1.1428,-1.123,-1.1037,-1.0818,-1.0669,-1.0368,-1.0148,-0.9841,-0.962,-0.9316,-0.8932,-0.8775,-0.8551,-0.8331,-0.7944,-0.7557,-0.7173,-0.6945,-0.6714,-0.6641,-0.649,-0.6416,-0.6261,-0.6261,-0.6261,-0.619,-0.6162,-0.6227,-0.6328,-0.6279,-0.6303,-0.6048,-0.5695,-0.5542,-0.5277,-0.5013,-0.4748,-0.4389,-0.4119,-0.3762,-0.3226,-0.2689,-0.2332,-0.2063,-0.1798,-0.1548,-0.1284,-0.1024,-0.0567,-0.0,-0.0,-0.0,-0.0,-0.0,-0.0,-0.0,-0.0,-0.0,-0.0,-0.0,-0.0,-0.0,-0.0,-0.0,-0.0,-0.0,-0.0,-0.0,-0.0,-0.0,-0.0,-0.0,-0.0,-0.0,-0.0,-1.542,-1.542,-1.542,-1.542,-1.542,-1.5342,-1.5029,-1.4569,-1.4478,-1.4318,-1.4156,-1.3709,-1.3475,-1.3305,-1.2889,-1.2877,-1.2786,-1.2679,-1.2595,-1.2616,-1.2596,-1.2844,-1.2771,-1.2459,-1.2047,-1.183,-1.1753,-1.1823,-1.1599,-1.1471,-1.1176,-1.0833,-1.1235,-1.1377,-1.1557,-1.1761,-1.1919,-1.2025,-1.2124,-1.1996,-1.1787,-1.1558,-1.1409,-1.118,-1.1037,-1.0818,-1.0674,-1.0293,-0.9997,-0.9695,-0.9306,-0.9074,-0.8922,-0.8627,-0.8322,-0.7795,-0.7488,-0.7253,-0.7026,-0.6795,-0.6563,-0.649,-0.6416,-0.6338,-0.6261,-0.6278,-0.6332,-0.6441,-0.6689,-0.6685,-0.6554,-0.6355,-0.6154,-0.5899,-0.5722,-0.5455,-0.5191,-0.4924,-0.4652,-0.4208,-0.3673,-0.3226,-0.278,-0.2512,-0.2254,-0.2017,-0.1677,-0.1418,-0.1056,-0.0585,-0.0,-0.0,-0.0,-0.0,-0.0,-0.0,-0.0,-0.0,-0.0,-0.0,-0.0,-0.0,-0.0,-0.0,-0.0,-0.0,-0.0,-0.0,-0.0,-0.0,-0.0,-0.0,-0.0,-0.0,-0.0,-1.5478,-1.542,-1.542,-1.542,-1.542,-1.5391,-1.5147,-1.4824,-1.4638,-1.4488,-1.4455,-1.4079,-1.3769,-1.3467,-1.3128,-1.2989,-1.2846,-1.2632,-1.2531,-1.235,-1.2439,-1.2453,-1.2422,-1.2383,-1.2004,-1.1744,-1.158,-1.169,-1.1364,-1.1048,-1.0766,-1.0725,-1.1289,-1.1438,-1.1583,-1.1872,-1.2245,-1.2285,-1.2231,-1.2157,-1.2009,-1.1861,-1.162,-1.1397,-1.1335,-1.1267,-1.1129,-1.0669,-1.0443,-1.0143,-0.9755,-0.9523,-0.9226,-0.9003,-0.8623,-0.8174,-0.7799,-0.7565,-0.7253,-0.7026,-0.6795,-0.6641,-0.649,-0.6412,-0.6335,-0.6268,-0.64,-0.6573,-0.6881,-0.7024,-0.6828,-0.6643,-0.6498,-0.6349,-0.6169,-0.5899,-0.5633,-0.5453,-0.501,-0.4567,-0.4121,-0.3673,-0.3317,-0.296,-0.2712,-0.2485,-0.2251,-0.1911,-0.165,-0.1185,-0.0797,-0.0,-0.0,-0.0,-0.0,-0.0,-0.0,-0.0,-0.0,-0.0,-0.0,-0.0,-0.0,-0.0,-0.0,-0.0,-0.0,-0.0,-0.0,-0.0,-0.0,-0.0,-0.0,-0.0,-0.0,-1.5604,-1.542,-1.542,-1.542,-1.542,-1.542,-1.5381,-1.5371,-1.4824,-1.4569,-1.4538,-1.4465,-1.4156,-1.3709,-1.3528,-1.3224,-1.3063,-1.2833,-1.2555,-1.2176,-1.2428,-1.2428,-1.2248,-1.2119,-1.1909,-1.1741,-1.1606,-1.1494,-1.119,-1.0941,-1.0762,-1.0665,-1.1142,-1.1423,-1.1516,-1.2017,-1.2285,-1.2305,-1.2305,-1.2231,-1.2077,-1.2003,-1.1929,-1.1787,-1.1713,-1.1564,-1.1341,-1.1117,-1.0962,-1.0582,-1.0282,-1.0056,-0.9609,-0.9311,-0.8927,-0.8551,-0.8178,-0.7795,-0.7565,-0.7334,-0.7026,-0.6795,-0.6641,-0.6486,-0.6412,-0.6335,-0.6458,-0.663,-0.6932,-0.7099,-0.6939,-0.6845,-0.6779,-0.6615,-0.6435,-0.6254,-0.5988,-0.5719,-0.5364,-0.501,-0.4654,-0.4208,-0.395,-0.3688,-0.3386,-0.3155,-0.2744,-0.2414,-0.2158,-0.1797,-0.1405,-0.1009,-0.0,-0.0,-0.0,-0.0,-0.0,-0.0,-0.0,-0.0,-0.0,-0.0,-0.0,-0.0,-0.0,-0.0,-0.0,-0.0,-0.0,-0.0,-0.0,-0.0,-0.0,-0.0,-0.0,-1.5672,-1.5604,-1.5478,-1.542,-1.542,-1.542,-1.542,-1.5381,-1.5283,-1.4902,-1.4569,-1.4469,-1.4378,-1.4079,-1.383,-1.358,-1.3338,-1.3103,-1.2899,-1.2601,-1.2594,-1.2554,-1.2269,-1.2161,-1.1909,-1.1652,-1.1503,-1.1368,-1.1142,-1.0918,-1.0764,-1.0812,-1.1189,-1.1423,-1.1463,-1.1997,-1.2291,-1.2305,-1.2305,-1.2305,-1.2231,-1.2231,-1.2157,-1.209,-1.2022,-1.1948,-1.1726,-1.1496,-1.1267,-1.0956,-1.0899,-1.0524,-0.9916,-0.969,-0.9306,-0.878,-0.8551,-0.8174,-0.7872,-0.7565,-0.7257,-0.7026,-0.6795,-0.6641,-0.6486,-0.6412,-0.6469,-0.6675,-0.6909,-0.7051,-0.7139,-0.7051,-0.6966,-0.6877,-0.6792,-0.6523,-0.6343,-0.6074,-0.5719,-0.5364,-0.5008,-0.4839,-0.4582,-0.4365,-0.4073,-0.368,-0.3274,-0.2941,-0.2779,-0.2515,-0.2011,-0.1615,-0.1414,-0.0,-0.0,-0.0,-0.0,-0.0,-0.0,-0.0,-0.0,-0.0,-0.0,-0.0,-0.0,-0.0,-0.0,-0.0,-0.0,-0.0,-0.0,-0.0,-0.0,-0.0,-0.0,-1.5788,-1.5672,-1.5478,-1.542,-1.542,-1.542,-1.542,-1.542,-1.5391,-1.5215,-1.4893,-1.4647,-1.4478,-1.4378,-1.413,-1.389,-1.37,-1.3442,-1.3285,-1.3042,-1.2805,-1.2715,-1.2514,-1.2259,-1.2111,-1.1817,-1.1567,-1.1394,-1.1178,-1.1059,-1.0954,-1.0967,-1.1295,-1.158,-1.1579,-1.2036,-1.2305,-1.2305,-1.2305,-1.2305,-1.2305,-1.2305,-1.2305,-1.2244,-1.2244,-1.2251,-1.2103,-1.1874,-1.1639,-1.1335,-1.1192,-1.098,-1.0449,-1.0067,-0.969,-0.9311,-0.8932,-0.8551,-0.8174,-0.7872,-0.7561,-0.7334,-0.7103,-0.6872,-0.6563,-0.6423,-0.6438,-0.6634,-0.6959,-0.7129,-0.7139,-0.7051,-0.7051,-0.6966,-0.6966,-0.6877,-0.6612,-0.6343,-0.5988,-0.5633,-0.5366,-0.5369,-0.5129,-0.492,-0.464,-0.4263,-0.3776,-0.3457,-0.3303,-0.3128,-0.2624,-0.2221,-0.202,-0.1617,-0.0,-0.0,-0.0,-0.0,-0.0,-0.0,-0.0,-0.0,-0.0,-0.0,-0.0,-0.0,-0.0,-0.0,-0.0,-0.0,-0.0,-0.0,-0.0,-0.0,-0.0,-1.5951,-1.5672,-1.5536,-1.542,-1.542,-1.542,-1.542,-1.542,-1.542,-1.5391,-1.5293,-1.4824,-1.4638,-1.4538,-1.4428,-1.4249,-1.407,-1.3821,-1.3631,-1.3381,-1.3155,-1.305,-1.2875,-1.2621,-1.2375,-1.2065,-1.1817,-1.1622,-1.1365,-1.1247,-1.1227,-1.1263,-1.1483,-1.1771,-1.1874,-1.2087,-1.2305,-1.2378,-1.2378,-1.2305,-1.2305,-1.2305,-1.2305,-1.2305,-1.2305,-1.2318,-1.2244,-1.209,-1.1935,-1.1632,-1.1335,-1.1117,-1.083,-1.0449,-1.0067,-0.969,-0.9311,-0.8932,-0.8627,-0.8178,-0.7872,-0.7565,-0.7334,-0.7111,-0.6732,-0.6553,-0.6486,-0.6627,-0.6867,-0.7129,-0.7136,-0.7139,-0.7051,-0.7051,-0.7054,-0.7054,-0.6877,-0.67,-0.6254,-0.5899,-0.5811,-0.5813,-0.5599,-0.5395,-0.5129,-0.4853,-0.4465,-0.425,-0.391,-0.3624,-0.3229,-0.2826,-0.2424,-0.2121,-0.1617,-0.0,-0.0,-0.0,-0.0,-0.0,-0.0,-0.0,-0.0,-0.0,-0.0,-0.0,-0.0,-0.0,-0.0,-0.0,-0.0,-0.0,-0.0,-0.0,-0.0,-1.6077,-1.5672,-1.5672,-1.5546,-1.541,-1.541,-1.542,-1.542,-1.542,-1.542,-1.5381,-1.5352,-1.5107,-1.4902,-1.4715,-1.4538,-1.4369,-1.4181,-1.3803,-1.3485,-1.345,-1.3407,-1.3233,-1.292,-1.2552,-1.2305,-1.2127,-1.1872,-1.1677,-1.156,-1.1435,-1.1353,-1.1741,-1.199,-1.2019,-1.2203,-1.2439,-1.2445,-1.2378,-1.2298,-1.2305,-1.2305,-1.2305,-1.2305,-1.2305,-1.2305,-1.2231,-1.2083,-1.2003,-1.1855,-1.1558,-1.1335,-1.1037,-1.0743,-1.0443,-1.0067,-0.969,-0.9311,-0.8932,-0.8556,-0.825,-0.7872,-0.7581,-0.7324,-0.695,-0.6592,-0.6558,-0.649,-0.6754,-0.7014,-0.7139,-0.7139,-0.7139,-0.7139,-0.7143,-0.7143,-0.6962,-0.6877,-0.67,-0.652,-0.6432,-0.6192,-0.588,-0.5802,-0.5751,-0.5389,-0.5212,-0.4897,-0.462,-0.4228,-0.3934,-0.3432,-0.3029,-0.2324,-0.1819,-0.1617,-0.0,-0.0,-0.0,-0.0,-0.0,-0.0,-0.0,-0.0,-0.0,-0.0,-0.0,-0.0,-0.0,-0.0,-0.0,-0.0,-0.0,-0.0,-0.0]},{"header":{"parameterUnit":"m.s-1","parameterCategory":1,"la1":31.0,"la2":29.5877,"lo1":-88.7671,"lo2":-86.6584,"dy":0.0162,"dx":0.0185,"nx":115,"ny":88,"refTime":"2024-05-17T06:00:00:Z","depth":0,"parameterNumber":3,"parameterNumberName":"V-component_of_WINDS"},"data":[0.0,0.0,0.0,0.0,0.0,0.0,0.0,0.0,0.0,0.0,0.0,0.0,0.0,0.0,0.0,0.0,0.0,0.0,0.0,0.0,0.0,0.0,0.0,0.0,0.0,0.0,0.0,0.0,0.0,0.0,0.0,0.0,0.0,0.0,0.0,0.0,0.0,0.0,0.0,0.0,0.0,0.0,0.0,0.0,0.0,0.0,0.0,0.0,0.0,0.0,0.0,0.0,0.0,0.0,0.0,0.0,0.0,0.0,0.0,0.0,0.0,0.0,0.0,0.0,0.0,0.0,0.0,0.0,0.0,0.0,0.0,0.0,0.0,0.0,0.0,0.0,0.0,0.0,0.0,0.0,0.0,0.0,0.0,0.0,0.0,0.0,0.0,0.0,0.0,0.0,0.0,0.0,0.0,0.0,0.0,0.0,0.0,0.0,0.0,0.0,0.0,0.0,0.0,0.0,0.0,0.0,0.0,0.0,0.0,0.0,0.0,0.0,0.0,0.0,0.0,0.0,0.0,0.0,0.0,0.0,0.0,0.0,0.0,0.0,0.0,0.0,0.0,0.0,0.0,0.0,0.0,0.0,0.0,0.0,0.0,0.0,0.0,0.0,0.0,0.0,0.0,0.0,0.0,0.0,0.0,0.0,0.0,0.0,0.0,0.0,0.0,0.0,0.0,0.0,0.0,0.0,0.0,0.0,0.0,0.0,0.0,0.0,0.0,0.0,0.0,0.0,0.0,0.0,0.0,0.0,0.0,0.0,0.0,0.0,0.0,0.0,0.0,0.0,0.0,0.0,0.0,0.0,0.0,0.0,0.0,0.0,0.0,0.0,0.0,0.0,0.0,0.0,0.0,0.0,0.0,0.0,0.0,0.0,0.0,0.0,0.0,0.0,0.0,0.0,0.0,0.0,0.0,0.0,0.0,0.0,0.0,0.0,0.0,0.0,0.0,0.0,0.0,0.0,0.0,0.0,0.0,0.0,0.0,0.0,0.0,0.0,0.0,0.0,0.0,0.0,0.0,0.0,0.0,0.0,0.0,0.0,0.0,0.0,0.0,0.0,0.0,0.0,0.0,0.0,0.0,0.0,0.0,0.0,0.0,0.0,0.0,0.0,0.0,0.0,0.0,0.0,0.0,0.0,0.0,0.0,0.0,0.0,0.0,0.0,0.0,0.0,0.0,0.0,0.0,0.0,0.0,0.0,0.0,0.0,0.0,0.0,0.0,0.0,0.0,0.0,0.0,0.0,0.0,0.0,0.0,0.0,0.0,0.0,0.0,0.0,0.0,0.0,0.0,0.0,0.0,0.0,0.0,0.0,0.0,0.0,0.0,0.0,0.0,0.0,0.0,0.0,0.0,0.0,0.0,0.0,0.0,0.0,0.0,0.0,0.0,0.0,0.0,0.0,0.0,0.0,0.0,0.0,0.0,0.0,0.0,0.0,0.0,0.0,0.0,0.0,0.0,0.0,0.0,0.0,0.0,0.0,0.0,0.0,0.0,0.0,0.0,0.0,0.0,0.0,0.0,0.0,0.0,0.0,0.0,0.0,0.0,0.0,0.0,0.0,0.0,0.0,0.0,0.0,0.0,0.0,0.0,0.0,0.0,0.0,0.0,0.0,0.0,0.0,0.0,0.0,0.0,0.0,0.0,0.0,0.0,0.0,0.0,0.0,0.0,0.0,0.0,0.0,0.0,0.0,0.0,0.0,0.0,0.0,0.0,0.0,0.0,0.0,0.0,0.0,0.0,0.0,0.0,0.0,0.0,0.0,0.0,0.0,0.0,0.0,0.0,0.0,0.0,0.0,0.0,0.0,0.0,0.0,0.0,0.0,0.0,0.0,0.0,0.0,0.0,0.0,0.0,0.0,0.0,0.0,0.0,0.0,0.0,0.0,0.0,0.0,0.0,0.0,0.0,0.0,0.0,0.0,0.0,0.0,0.0,0.0,0.0,0.0,0.0,0.0,0.0,0.0,0.0,0.0,0.0,0.0,0.0,0.0,0.0,0.0,0.0,0.0,0.0,0.0,0.0,0.0,0.0,0.0,0.0,0.0,0.0,0.0,0.0,0.0,0.0,0.0,0.0,0.0,0.0,0.0,0.0,0.0,0.0,0.0,0.0,0.0,0.0,0.0,0.0,0.0,0.0,0.0,0.0,0.0,0.0,0.0,0.0,0.0,0.0,0.0,0.0,0.0,0.0,0.0,0.0,0.0,0.0,0.0,0.0,0.0,0.0,0.0,0.0,0.0,0.0,0.0,0.0,0.0,0.0,0.0,0.0,0.0,0.0,0.0,0.0,0.0,0.0,0.0,0.0,0.0,0.0,0.0,0.0,0.0,0.0,0.0,0.0,0.0,0.0,0.0,0.0,0.0,0.0,0.0,0.0,0.0,0.0,0.0,0.0,0.0,0.0,0.0,0.0,0.0,0.0,0.0,0.0,0.0,0.0,0.0,0.0,0.0,0.0,0.0,0.0,0.0,0.0,0.0,0.0,0.0,0.0,0.0,0.0,0.0,0.0,0.0,0.0,0.0,0.0,0.0,0.0,0.0,0.0,0.0,0.0,0.0,0.0,0.0,0.0,0.0,0.0,0.0,0.0,0.0,0.0,0.0,0.0,0.0,0.0,0.0,0.0,0.0,0.0,0.0,0.0,0.0,0.0,0.0,0.0,0.0,0.0,0.0,0.0,0.0,0.0,0.0,0.0,0.0,0.0,0.0,0.0,0.0,0.0,0.0,0.0,0.0,0.0,0.0,0.0,0.0,0.0,0.0,0.0,0.0,0.0,0.0,0.0,0.0,0.0,0.0,0.0,0.0,0.0,0.0,0.0,0.0,0.0,0.0,0.0,0.0,0.0,0.0,0.0,0.0,0.0,0.0,0.0,0.0,0.0,0.0,0.0,0.0,0.0,0.0,0.0,0.0,0.0,0.0,0.0,0.0,0.0,0.0,0.0,0.0,0.0,0.0,0.0,0.0,0.0,0.0,0.0,0.0,0.0,0.0,0.0,0.0,0.0,0.0,0.0,0.0,0.0,0.0,0.0,0.0,0.0,0.0,0.0,0.0,0.0,0.0,0.0,0.0,0.0,0.0,0.0,0.0,0.0,0.0,0.0,0.0,0.0,0.0,0.0,0.0,0.0,0.0,0.0,0.0,0.0,0.0,0.0,0.0,0.0,0.0,0.0,0.0,0.0,0.0,0.0,0.0,0.0,0.0,0.0,0.0,0.0,0.0,0.0,0.0,0.0,0.0,0.0,0.0,0.0,0.0,0.0,0.0,0.0,0.0,0.0,0.0,0.0,0.0,0.0,0.0,0.0,0.0,0.0,0.0,0.0,0.0,0.0,0.0,0.0,0.0,0.0,0.0,0.0,0.0,0.0,0.0,0.0,0.0,0.0,0.0,0.0,0.0,0.0,0.0,0.0,0.0,0.0,0.0,0.0,0.0,0.0,0.0,0.0,0.0,0.0,0.0,0.0,0.0,0.0,0.0,0.0,0.0,0.0,0.0,0.0,0.0,0.0,0.0,0.0,0.0,0.0,0.0,0.0,0.0,0.0,0.0,0.0,0.0,0.0,0.0,0.0,0.0,0.0,0.0,0.0,0.0,0.0,0.0,0.0,0.0,0.0,0.0,0.0,0.0,0.0,0.0,0.0,0.0,0.0,0.0,0.0,0.0,0.0,0.0,0.0,0.0,0.0,0.0,0.0,0.0,0.0,0.0,0.0,0.0,0.0,0.0,0.0,0.0,0.0,0.0,0.0,0.0,0.0,0.0,0.0,0.0,0.0,0.0,0.0,0.0,0.0,0.0,0.0,0.0,0.0,0.0,0.0,0.0,0.0,0.0,0.0,0.0,0.0,0.0,0.0,0.0,0.0,0.0,0.0,0.0,0.0,0.0,0.0,0.0,0.0,0.0,0.0,0.0,0.0,0.0,0.0,0.0,0.0,0.0,0.0,0.0,0.0,0.0,0.0,0.0,0.0,0.0,0.0,0.0,0.0,0.0,0.0,0.0,0.0,0.0,0.0,0.0,0.0,0.0,0.0,0.0,0.0,0.0,0.0,0.0,0.0,0.0,0.0,0.0,0.0,0.0,0.0,0.0,0.0,0.0,0.0,0.0,0.0,0.0,0.0,0.0,0.0,0.0,0.0,0.0,0.0,0.0,0.0,0.0,0.0,0.0,0.0,0.0,0.0,0.0,0.0,0.0,0.0,0.0,0.0,0.0,0.0,0.0,0.0,0.0,0.0,0.0,0.0,0.0,0.0,0.0,0.0,0.0,-1.0105,0.0,0.0,0.0,0.0,0.0,0.0,0.0,0.0,0.0,0.0,0.0,0.0,0.0,0.0,0.0,0.0,0.0,0.0,0.0,0.0,0.0,0.0,0.0,0.0,0.0,0.0,0.0,0.0,0.0,0.0,0.0,0.0,0.0,0.0,0.0,0.0,0.0,0.0,0.0,0.0,0.0,0.0,0.0,0.0,0.0,0.0,0.0,0.0,0.0,0.0,0.0,0.0,0.0,0.0,0.0,0.0,0.0,0.0,0.0,0.0,0.0,0.0,0.0,0.0,0.0,0.0,0.0,0.0,0.0,0.0,0.0,0.0,0.0,0.0,0.0,0.0,0.0,0.0,0.0,0.0,0.0,0.0,0.0,0.0,0.0,0.0,0.0,0.0,0.0,0.0,0.0,0.0,0.0,0.0,0.0,0.0,0.0,0.0,0.0,0.0,0.0,0.0,0.0,0.0,0.0,0.0,0.0,0.0,0.0,0.0,-0.9875,-0.9942,-0.9984,-1.0005,-1.0048,0.0,0.0,0.0,0.0,0.0,0.0,0.0,0.0,0.0,0.0,0.0,0.0,0.0,0.0,0.0,0.0,0.0,0.0,0.0,0.0,0.0,0.0,0.0,0.0,0.0,0.0,0.0,0.0,0.0,0.0,0.0,0.0,0.0,0.0,0.0,0.0,0.0,0.0,0.0,0.0,0.0,0.0,0.0,0.0,0.0,0.0,0.0,0.0,0.0,0.0,0.0,0.0,0.0,0.0,0.0,0.0,0.0,0.0,0.0,0.0,0.0,0.0,0.0,0.0,0.0,0.0,0.0,0.0,0.0,0.0,0.0,0.0,0.0,0.0,0.0,0.0,0.0,0.0,0.0,0.0,0.0,0.0,0.0,0.0,0.0,0.0,0.0,0.0,0.0,0.0,0.0,0.0,0.0,0.0,0.0,0.0,0.0,0.0,0.0,0.0,0.0,0.0,0.0,0.0,0.0,0.0,0.0,0.0,0.0,0.0,0.0,0.0,-0.9942,-0.9971,-1.0014,0.0,0.0,0.0,0.0,0.0,0.0,0.0,0.0,0.0,0.0,0.0,0.0,0.0,0.0,0.0,0.0,0.0,0.0,0.0,0.0,0.0,0.0,0.0,0.0,0.0,0.0,0.0,0.0,0.0,0.0,0.0,0.0,0.0,0.0,0.0,0.0,0.0,0.0,0.0,0.0,0.0,0.0,0.0,0.0,0.0,0.0,0.0,0.0,0.0,0.0,0.0,0.0,0.0,0.0,0.0,0.0,0.0,0.0,0.0,0.0,0.0,0.0,0.0,0.0,0.0,0.0,0.0,0.0,0.0,0.0,0.0,0.0,0.0,0.0,0.0,0.0,0.0,0.0,0.0,0.0,0.0,0.0,0.0,0.0,0.0,0.0,0.0,0.0,0.0,0.0,0.0,0.0,0.0,0.0,0.0,0.0,0.0,0.0,0.0,0.0,0.0,0.0,0.0,0.0,0.0,0.0,0.0,0.0,0.0,0.0,-0.9794,-0.9796,-0.9875,0.0,-0.9999,0.0,0.0,0.0,0.0,0.0,0.0,0.0,0.0,0.0,0.0,0.0,0.0,0.0,0.0,0.0,0.0,0.0,0.0,0.0,0.0,0.0,0.0,0.0,0.0,0.0,0.0,0.0,0.0,0.0,0.0,0.0,0.0,0.0,0.0,0.0,0.0,0.0,0.0,0.0,0.0,0.0,0.0,0.0,0.0,0.0,0.0,0.0,0.0,0.0,0.0,0.0,0.0,0.0,0.0,0.0,0.0,0.0,0.0,0.0,0.0,0.0,0.0,0.0,0.0,0.0,0.0,0.0,0.0,0.0,0.0,0.0,0.0,0.0,0.0,0.0,0.0,0.0,0.0,0.0,0.0,0.0,0.0,0.0,0.0,0.0,0.0,0.0,0.0,0.0,0.0,0.0,0.0,0.0,0.0,0.0,0.0,0.0,0.0,0.0,0.0,0.0,0.0,0.0,0.0,0.0,0.0,0.0,0.0,0.0,0.0,0.0,-1.0449,-1.0532,-1.0354,0.0,0.0,0.0,0.0,0.0,0.0,0.0,0.0,0.0,0.0,0.0,0.0,0.0,0.0,0.0,0.0,0.0,0.0,0.0,0.0,0.0,0.0,0.0,0.0,0.0,0.0,0.0,0.0,0.0,0.0,0.0,0.0,0.0,0.0,0.0,0.0,0.0,0.0,0.0,0.0,0.0,0.0,0.0,0.0,0.0,0.0,0.0,0.0,0.0,0.0,0.0,0.0,0.0,0.0,0.0,0.0,0.0,0.0,0.0,0.0,0.0,0.0,0.0,0.0,0.0,0.0,0.0,0.0,0.0,0.0,0.0,0.0,0.0,0.0,0.0,0.0,0.0,0.0,0.0,0.0,0.0,0.0,0.0,0.0,0.0,0.0,0.0,0.0,0.0,0.0,0.0,0.0,0.0,0.0,0.0,0.0,0.0,0.0,0.0,0.0,0.0,0.0,0.0,0.0,0.0,0.0,0.0,0.0,0.0,0.0,-0.989,0.0,-1.0858,-1.0953,-1.0644,-0.9916,0.0,0.0,0.0,0.0,0.0,0.0,0.0,0.0,0.0,0.0,0.0,0.0,0.0,0.0,0.0,0.0,0.0,0.0,0.0,0.0,0.0,0.0,0.0,0.0,0.0,0.0,0.0,0.0,0.0,0.0,0.0,0.0,0.0,0.0,0.0,0.0,0.0,0.0,0.0,0.0,0.0,0.0,0.0,0.0,0.0,0.0,0.0,0.0,0.0,0.0,0.0,0.0,0.0,0.0,0.0,0.0,0.0,0.0,0.0,0.0,0.0,0.0,0.0,0.0,0.0,0.0,0.0,0.0,0.0,0.0,0.0,0.0,0.0,0.0,0.0,0.0,0.0,0.0,0.0,0.0,0.0,0.0,0.0,0.0,0.0,0.0,0.0,0.0,0.0,0.0,0.0,0.0,0.0,0.0,0.0,0.0,0.0,0.0,0.0,0.0,0.0,0.0,0.0,0.0,0.0,0.0,0.0,0.0,0.0,-1.0371,-1.0785,-1.0893,-1.0956,-1.0624,0.0,0.0,0.0,0.0,0.0,0.0,0.0,0.0,0.0,0.0,0.0,0.0,0.0,0.0,0.0,0.0,0.0,0.0,0.0,0.0,0.0,0.0,0.0,0.0,0.0,0.0,0.0,0.0,0.0,0.0,0.0,0.0,0.0,0.0,0.0,0.0,0.0,0.0,0.0,0.0,0.0,0.0,0.0,0.0,0.0,0.0,0.0,0.0,0.0,0.0,0.0,0.0,0.0,0.0,0.0,0.0,0.0,0.0,0.0,0.0,0.0,0.0,0.0,0.0,0.0,0.0,0.0,0.0,0.0,0.0,0.0,0.0,0.0,0.0,0.0,0.0,0.0,0.0,0.0,0.0,0.0,0.0,0.0,0.0,0.0,0.0,0.0,0.0,0.0,0.0,0.0,0.0,0.0,0.0,0.0,0.0,0.0,0.0,0.0,0.0,0.0,0.0,0.0,0.0,0.0,0.0,0.0,0.0,0.0,-0.9659,-1.0939,-1.1397,-1.0947,-1.1425,-1.1329,0.0,0.0,0.0,0.0,0.0,0.0,0.0,0.0,0.0,0.0,0.0,0.0,0.0,0.0,0.0,0.0,0.0,0.0,0.0,0.0,0.0,0.0,0.0,0.0,0.0,0.0,0.0,0.0,0.0,0.0,0.0,0.0,0.0,0.0,0.0,0.0,0.0,0.0,0.0,0.0,0.0,0.0,0.0,0.0,0.0,0.0,0.0,0.0,0.0,0.0,0.0,0.0,0.0,0.0,0.0,0.0,0.0,0.0,0.0,0.0,0.0,0.0,0.0,0.0,0.0,0.0,0.0,0.0,0.0,0.0,0.0,0.0,0.0,0.0,0.0,0.0,0.0,0.0,0.0,0.0,0.0,0.0,0.0,0.0,0.0,0.0,0.0,0.0,0.0,0.0,0.0,0.0,0.0,0.0,0.0,0.0,0.0,0.0,0.0,0.0,0.0,0.0,0.0,0.0,0.0,0.0,0.0,0.0,0.0,-1.0007,0.0,-1.1835,0.0,-1.1799,-1.1718,0.0,0.0,0.0,0.0,0.0,0.0,0.0,0.0,0.0,0.0,0.0,0.0,0.0,0.0,0.0,0.0,0.0,0.0,0.0,0.0,0.0,0.0,0.0,0.0,0.0,0.0,0.0,0.0,0.0,0.0,0.0,0.0,0.0,0.0,0.0,0.0,0.0,0.0,0.0,0.0,0.0,0.0,0.0,0.0,0.0,0.0,0.0,0.0,0.0,0.0,0.0,0.0,0.0,0.0,0.0,0.0,0.0,0.0,0.0,0.0,0.0,0.0,0.0,0.0,0.0,0.0,0.0,0.0,0.0,0.0,0.0,0.0,0.0,0.0,0.0,0.0,0.0,0.0,0.0,0.0,0.0,0.0,0.0,0.0,0.0,0.0,0.0,0.0,0.0,0.0,0.0,0.0,0.0,0.0,0.0,0.0,0.0,0.0,0.0,0.0,0.0,0.0,0.0,0.0,0.0,0.0,0.0,0.0,-1.002,-1.0784,-1.1673,-1.2134,-1.2119,-1.2087,-1.1718,0.0,0.0,0.0,0.0,0.0,0.0,0.0,0.0,0.0,0.0,0.0,0.0,0.0,0.0,0.0,0.0,0.0,0.0,0.0,0.0,0.0,0.0,0.0,0.0,0.0,0.0,0.0,0.0,0.0,0.0,0.0,0.0,0.0,0.0,0.0,0.0,0.0,0.0,0.0,0.0,0.0,0.0,0.0,0.0,0.0,0.0,0.0,0.0,0.0,0.0,0.0,0.0,0.0,0.0,0.0,0.0,0.0,0.0,0.0,0.0,0.0,0.0,0.0,0.0,0.0,0.0,0.0,0.0,0.0,0.0,0.0,0.0,0.0,0.0,0.0,0.0,0.0,0.0,0.0,0.0,0.0,0.0,0.0,0.0,0.0,0.0,0.0,0.0,0.0,0.0,0.0,0.0,0.0,0.0,0.0,0.0,0.0,0.0,0.0,0.0,0.0,0.0,0.0,0.0,0.0,0.0,0.0,0.0,0.0,-1.17,-1.2509,-1.2923,-1.2913,-1.2388,-1.1985,0.0,0.0,0.0,0.0,0.0,0.0,0.0,0.0,0.0,0.0,0.0,0.0,0.0,0.0,0.0,0.0,0.0,0.0,0.0,0.0,0.0,0.0,0.0,0.0,0.0,0.0,0.0,0.0,0.0,0.0,0.0,0.0,0.0,0.0,0.0,0.0,0.0,0.0,0.0,0.0,0.0,0.0,0.0,0.0,0.0,0.0,0.0,0.0,0.0,0.0,0.0,0.0,0.0,0.0,0.0,0.0,0.0,0.0,0.0,0.0,0.0,0.0,0.0,0.0,0.0,0.0,0.0,0.0,0.0,0.0,0.0,0.0,0.0,0.0,0.0,0.0,0.0,0.0,0.0,0.0,0.0,0.0,0.0,0.0,0.0,0.0,0.0,0.0,0.0,0.0,0.0,0.0,0.0,0.0,0.0,0.0,0.0,0.0,0.0,0.0,0.0,0.0,0.0,0.0,0.0,0.0,0.0,0.0,0.0,-1.3015,-1.3219,-1.3305,-1.3318,-1.2805,-1.2419,-1.2087,0.0,0.0,0.0,0.0,0.0,0.0,0.0,0.0,0.0,0.0,0.0,0.0,0.0,0.0,0.0,0.0,0.0,0.0,0.0,0.0,0.0,0.0,0.0,0.0,0.0,0.0,0.0,0.0,0.0,0.0,0.0,0.0,0.0,0.0,0.0,0.0,0.0,0.0,0.0,0.0,0.0,0.0,0.0,0.0,0.0,0.0,0.0,0.0,0.0,0.0,0.0,0.0,0.0,0.0,0.0,0.0,0.0,0.0,0.0,0.0,0.0,0.0,0.0,0.0,0.0,0.0,0.0,0.0,0.0,0.0,0.0,0.0,0.0,0.0,0.0,0.0,0.0,0.0,0.0,0.0,0.0,0.0,0.0,0.0,0.0,0.0,0.0,0.0,0.0,0.0,0.0,0.0,0.0,0.0,0.0,0.0,0.0,0.0,0.0,0.0,0.0,0.0,0.0,0.0,0.0,0.0,0.0,0.0,-1.4581,-1.3793,-1.3397,-1.3391,-1.3332,-1.2909,0.0,0.0,0.0,0.0,0.0,0.0,0.0,0.0,0.0,0.0,0.0,0.0,0.0,0.0,0.0,0.0,0.0,0.0,0.0,0.0,0.0,0.0,0.0,0.0,0.0,0.0,0.0,0.0,0.0,0.0,0.0,0.0,0.0,0.0,0.0,0.0,0.0,0.0,0.0,0.0,0.0,0.0,0.0,0.0,0.0,0.0,0.0,0.0,0.0,0.0,0.0,0.0,0.0,0.0,0.0,0.0,0.0,0.0,0.0,0.0,0.0,0.0,0.0,0.0,0.0,0.0,0.0,0.0,0.0,0.0,0.0,0.0,0.0,0.0,0.0,0.0,0.0,0.0,0.0,0.0,0.0,0.0,0.0,0.0,0.0,0.0,0.0,0.0,0.0,0.0,0.0,0.0,0.0,0.0,0.0,0.0,0.0,0.0,0.0,0.0,0.0,0.0,0.0,0.0,0.0,0.0,0.0,0.0,0.0,-1.4585,-1.4389,-1.4227,-1.4184,-1.3614,-1.2954,0.0,0.0,0.0,0.0,0.0,0.0,0.0,0.0,0.0,0.0,0.0,0.0,0.0,0.0,0.0,0.0,0.0,0.0,0.0,0.0,0.0,0.0,0.0,0.0,0.0,0.0,0.0,0.0,0.0,0.0,0.0,0.0,0.0,0.0,0.0,0.0,0.0,0.0,0.0,0.0,0.0,0.0,0.0,0.0,0.0,0.0,0.0,0.0,0.0,0.0,0.0,0.0,0.0,0.0,0.0,0.0,0.0,0.0,0.0,0.0,0.0,0.0,0.0,0.0,0.0,0.0,0.0,0.0,0.0,0.0,0.0,0.0,0.0,0.0,0.0,0.0,0.0,0.0,0.0,0.0,0.0,0.0,0.0,0.0,0.0,0.0,0.0,0.0,0.0,0.0,0.0,0.0,0.0,0.0,0.0,0.0,0.0,0.0,0.0,0.0,0.0,0.0,0.0,0.0,0.0,0.0,0.0,0.0,-1.4744,-1.4656,-1.4654,-1.4611,-1.46,-1.4124,-1.3306,0.0,0.0,0.0,0.0,0.0,0.0,0.0,0.0,0.0,0.0,0.0,0.0,0.0,0.0,0.0,0.0,0.0,0.0,0.0,0.0,0.0,0.0,0.0,0.0,0.0,0.0,0.0,0.0,0.0,0.0,0.0,0.0,0.0,0.0,0.0,0.0,0.0,0.0,0.0,0.0,0.0,0.0,0.0,0.0,0.0,0.0,0.0,0.0,0.0,0.0,0.0,0.0,0.0,0.0,0.0,0.0,0.0,0.0,0.0,0.0,0.0,0.0,0.0,0.0,0.0,0.0,0.0,0.0,0.0,0.0,0.0,0.0,0.0,0.0,0.0,0.0,0.0,0.0,0.0,0.0,0.0,0.0,0.0,0.0,0.0,0.0,0.0,0.0,0.0,0.0,0.0,0.0,0.0,0.0,0.0,0.0,0.0,0.0,0.0,0.0,0.0,0.0,0.0,0.0,0.0,0.0,0.0,0.0,-1.4811,-1.4819,-1.4844,-1.485,-1.4836,-1.4688,-1.3903,0.0,0.0,0.0,0.0,0.0,0.0,0.0,0.0,0.0,0.0,0.0,0.0,0.0,0.0,0.0,0.0,0.0,0.0,0.0,0.0,0.0,0.0,0.0,0.0,0.0,0.0,0.0,0.0,0.0,0.0,0.0,0.0,0.0,0.0,0.0,0.0,0.0,0.0,0.0,0.0,0.0,0.0,0.0,0.0,0.0,0.0,0.0,0.0,0.0,0.0,0.0,0.0,0.0,0.0,0.0,0.0,0.0,0.0,0.0,0.0,0.0,0.0,0.0,0.0,0.0,0.0,0.0,0.0,0.0,0.0,0.0,0.0,0.0,0.0,0.0,0.0,0.0,0.0,0.0,0.0,0.0,0.0,0.0,0.0,0.0,0.0,0.0,0.0,0.0,0.0,0.0,0.0,0.0,0.0,0.0,0.0,0.0,0.0,0.0,0.0,0.0,0.0,0.0,0.0,0.0,0.0,0.0,0.0,-1.5169,-1.5716,-1.5718,-1.5737,-1.5801,-1.5053,-1.4242,0.0,0.0,0.0,0.0,0.0,0.0,0.0,0.0,0.0,0.0,0.0,0.0,0.0,0.0,0.0,0.0,0.0,0.0,0.0,0.0,0.0,0.0,0.0,0.0,0.0,0.0,0.0,0.0,0.0,0.0,0.0,0.0,0.0,0.0,0.0,0.0,0.0,0.0,0.0,0.0,0.0,0.0,0.0,0.0,0.0,0.0,0.0,0.0,-1.0984,0.0,0.0,0.0,0.0,0.0,0.0,0.0,0.0,0.0,0.0,0.0,0.0,0.0,0.0,0.0,0.0,0.0,0.0,0.0,0.0,0.0,0.0,0.0,0.0,0.0,0.0,0.0,0.0,0.0,0.0,0.0,0.0,0.0,0.0,0.0,0.0,0.0,0.0,0.0,0.0,0.0,0.0,0.0,0.0,0.0,0.0,0.0,0.0,0.0,0.0,0.0,0.0,0.0,0.0,0.0,0.0,0.0,0.0,0.0,-1.5706,-1.609,-1.6468,-1.6486,-1.6151,-1.5687,-1.4876,0.0,0.0,0.0,0.0,0.0,0.0,0.0,0.0,0.0,0.0,0.0,0.0,0.0,0.0,0.0,0.0,0.0,0.0,0.0,0.0,0.0,0.0,0.0,0.0,0.0,0.0,0.0,0.0,0.0,0.0,0.0,0.0,0.0,0.0,0.0,0.0,0.0,0.0,0.0,0.0,0.0,0.0,0.0,0.0,0.0,0.0,0.0,0.0,0.0,0.0,0.0,0.0,0.0,0.0,0.0,0.0,0.0,0.0,0.0,0.0,0.0,0.0,0.0,0.0,0.0,0.0,0.0,0.0,0.0,0.0,0.0,0.0,0.0,0.0,0.0,0.0,0.0,0.0,0.0,0.0,0.0,0.0,0.0,0.0,0.0,0.0,0.0,0.0,0.0,0.0,0.0,0.0,0.0,0.0,0.0,0.0,0.0,0.0,0.0,0.0,0.0,0.0,0.0,0.0,0.0,0.0,0.0,-1.5421,-1.6272,-1.6423,-1.7198,-1.7225,-1.6461,-1.6468,-1.5708,-1.3989,0.0,0.0,0.0,0.0,0.0,0.0,0.0,0.0,0.0,0.0,0.0,0.0,0.0,0.0,0.0,0.0,0.0,0.0,0.0,0.0,0.0,0.0,0.0,0.0,0.0,0.0,0.0,0.0,0.0,0.0,0.0,0.0,0.0,0.0,0.0,0.0,0.0,0.0,-0.9929,-1.0865,0.0,0.0,0.0,0.0,0.0,0.0,0.0,0.0,-1.2737,0.0,0.0,0.0,0.0,0.0,0.0,0.0,0.0,0.0,0.0,0.0,0.0,0.0,0.0,0.0,0.0,0.0,0.0,0.0,0.0,0.0,0.0,0.0,0.0,0.0,0.0,0.0,0.0,0.0,0.0,0.0,0.0,0.0,0.0,0.0,0.0,0.0,0.0,0.0,0.0,0.0,0.0,0.0,0.0,0.0,0.0,0.0,0.0,0.0,0.0,0.0,0.0,0.0,0.0,0.0,0.0,-1.4768,-1.5779,-1.6616,-1.7283,-1.8117,-1.8203,-1.7407,-1.7432,-1.6646,-1.4922,0.0,0.0,0.0,0.0,0.0,0.0,0.0,0.0,0.0,0.0,0.0,0.0,0.0,0.0,0.0,0.0,0.0,0.0,0.0,0.0,0.0,0.0,0.0,0.0,0.0,0.0,0.0,0.0,0.0,0.0,0.0,0.0,0.0,0.0,0.0,0.0,0.0,0.0,0.0,-1.2984,-1.3956,0.0,0.0,0.0,0.0,0.0,0.0,0.0,0.0,-1.4164,0.0,0.0,0.0,0.0,0.0,0.0,0.0,0.0,0.0,0.0,0.0,0.0,0.0,0.0,0.0,0.0,0.0,0.0,0.0,0.0,0.0,0.0,0.0,0.0,0.0,0.0,0.0,0.0,0.0,0.0,0.0,0.0,0.0,0.0,0.0,0.0,0.0,0.0,0.0,0.0,0.0,0.0,0.0,0.0,0.0,0.0,0.0,0.0,0.0,0.0,0.0,0.0,0.0,0.0,0.0,-1.5004,-1.6327,-1.7156,-1.7581,-1.8844,-1.8924,-1.77,-1.7669,-1.6901,0.0,0.0,0.0,0.0,0.0,0.0,0.0,0.0,0.0,0.0,0.0,0.0,0.0,0.0,0.0,0.0,0.0,0.0,0.0,0.0,0.0,0.0,0.0,0.0,0.0,0.0,0.0,0.0,0.0,0.0,0.0,0.0,0.0,0.0,0.0,0.0,0.0,0.0,0.0,0.0,-1.3664,-1.4684,-1.5514,0.0,0.0,0.0,0.0,0.0,0.0,-1.5129,-1.5358,0.0,0.0,0.0,0.0,0.0,0.0,0.0,0.0,0.0,0.0,0.0,0.0,0.0,0.0,0.0,0.0,0.0,0.0,0.0,0.0,0.0,0.0,0.0,0.0,0.0,0.0,0.0,0.0,0.0,0.0,0.0,0.0,0.0,0.0,0.0,0.0,0.0,0.0,0.0,0.0,0.0,0.0,0.0,0.0,0.0,0.0,0.0,0.0,0.0,0.0,0.0,0.0,0.0,0.0,0.0,-1.5092,-1.6769,-1.7627,-1.7681,-1.9319,-1.9419,-1.7794,-1.772,-1.6937,0.0,0.0,0.0,0.0,0.0,0.0,0.0,0.0,0.0,0.0,0.0,0.0,0.0,0.0,0.0,0.0,0.0,0.0,0.0,0.0,0.0,0.0,0.0,0.0,0.0,0.0,0.0,0.0,0.0,0.0,0.0,0.0,0.0,0.0,0.0,0.0,0.0,0.0,0.0,0.0,0.0,-1.5216,-1.6475,-1.6796,0.0,0.0,0.0,0.0,-1.5129,-1.5918,0.0,0.0,0.0,0.0,0.0,0.0,0.0,0.0,0.0,0.0,0.0,0.0,0.0,0.0,0.0,0.0,0.0,0.0,0.0,0.0,0.0,0.0,0.0,0.0,0.0,0.0,0.0,0.0,0.0,0.0,0.0,0.0,0.0,0.0,0.0,0.0,0.0,0.0,0.0,0.0,0.0,0.0,0.0,0.0,0.0,0.0,0.0,0.0,0.0,0.0,0.0,0.0,0.0,0.0,0.0,0.0,-1.5089,-1.681,-1.7696,-1.7766,-1.9403,-1.9492,-1.7848,-1.7786,-1.7016,0.0,0.0,0.0,0.0,0.0,0.0,0.0,0.0,0.0,0.0,0.0,0.0,0.0,0.0,0.0,0.0,0.0,0.0,0.0,0.0,0.0,0.0,0.0,0.0,0.0,0.0,0.0,0.0,0.0,0.0,0.0,0.0,0.0,0.0,0.0,0.0,0.0,0.0,0.0,0.0,0.0,-1.6378,-1.6499,-1.7123,-1.7304,0.0,0.0,-1.6558,-1.6824,-1.6675,0.0,0.0,0.0,0.0,0.0,0.0,0.0,0.0,0.0,0.0,0.0,0.0,0.0,0.0,0.0,0.0,0.0,0.0,0.0,0.0,0.0,0.0,0.0,0.0,0.0,0.0,0.0,0.0,0.0,0.0,0.0,0.0,0.0,0.0,0.0,0.0,0.0,0.0,0.0,0.0,0.0,0.0,0.0,0.0,0.0,0.0,0.0,0.0,0.0,0.0,0.0,0.0,0.0,0.0,0.0,-1.3664,-1.5799,-1.7074,-1.7941,-1.8442,-1.969,-1.9568,-1.79,-1.7857,-1.7078,0.0,0.0,0.0,0.0,0.0,0.0,0.0,0.0,0.0,0.0,0.0,0.0,0.0,0.0,0.0,0.0,0.0,0.0,0.0,0.0,0.0,0.0,0.0,0.0,0.0,0.0,0.0,0.0,0.0,0.0,0.0,0.0,0.0,0.0,0.0,0.0,0.0,0.0,0.0,0.0,0.0,0.0,-1.8199,-1.8698,0.0,0.0,0.0,-1.8979,-1.887,0.0,0.0,0.0,0.0,0.0,0.0,0.0,0.0,0.0,0.0,0.0,0.0,0.0,0.0,0.0,0.0,0.0,0.0,0.0,0.0,0.0,0.0,0.0,0.0,0.0,0.0,0.0,0.0,0.0,0.0,0.0,0.0,0.0,0.0,0.0,0.0,0.0,0.0,0.0,0.0,0.0,0.0,0.0,0.0,0.0,0.0,0.0,0.0,0.0,0.0,0.0,0.0,0.0,0.0,0.0,0.0,0.0,-1.6381,-1.7279,-1.8146,-1.9021,-1.9914,-1.9593,-1.7973,-1.7922,0.0,0.0,0.0,0.0,0.0,0.0,0.0,0.0,0.0,0.0,0.0,0.0,0.0,0.0,0.0,0.0,0.0,0.0,0.0,0.0,0.0,0.0,0.0,0.0,0.0,0.0,0.0,-0.7843,0.0,0.0,0.0,0.0,0.0,0.0,0.0,0.0,0.0,0.0,0.0,0.0,0.0,0.0,-1.7613,-1.95,-1.9964,-2.0283,0.0,0.0,-2.0788,-2.0318,-2.0015,-1.9651,0.0,0.0,0.0,0.0,0.0,0.0,0.0,0.0,0.0,0.0,0.0,0.0,0.0,0.0,0.0,0.0,0.0,0.0,0.0,0.0,0.0,0.0,0.0,0.0,0.0,0.0,0.0,0.0,0.0,0.0,0.0,0.0,0.0,0.0,0.0,0.0,0.0,0.0,0.0,0.0,0.0,0.0,0.0,0.0,0.0,0.0,0.0,0.0,0.0,0.0,0.0,0.0,0.0,0.0,0.0,-1.6457,-1.7356,-1.8217,-1.9096,-1.9937,-1.9599,-1.7975,-1.7917,-1.7121,0.0,0.0,0.0,0.0,0.0,0.0,0.0,0.0,0.0,0.0,0.0,0.0,0.0,0.0,0.0,0.0,0.0,0.0,0.0,0.0,0.0,0.0,0.0,0.0,0.0,0.0,0.0,0.0,0.0,0.0,0.0,0.0,0.0,0.0,0.0,0.0,0.0,0.0,0.0,0.0,0.0,-1.868,-1.9594,-2.0297,-2.0714,0.0,0.0,-2.0785,-2.0683,-2.0139,-1.975,-1.9795,0.0,0.0,0.0,0.0,0.0,0.0,0.0,0.0,0.0,0.0,0.0,0.0,0.0,0.0,0.0,0.0,0.0,0.0,0.0,0.0,0.0,0.0,0.0,0.0,0.0,0.0,0.0,0.0,0.0,0.0,0.0,0.0,0.0,0.0,0.0,0.0,0.0,0.0,0.0,0.0,0.0,0.0,0.0,0.0,0.0,0.0,0.0,0.0,0.0,0.0,0.0,0.0,0.0,-1.5061,-1.7253,-1.7617,-1.8482,-1.9837,-2.0259,-1.9916,-1.8792,-1.8231,-1.7398,0.0,0.0,0.0,0.0,0.0,0.0,0.0,0.0,0.0,0.0,0.0,0.0,0.0,0.0,0.0,0.0,0.0,0.0,0.0,0.0,0.0,0.0,0.0,0.0,0.0,0.0,0.0,0.0,-0.9518,-0.99,-1.0388,0.0,0.0,0.0,0.0,0.0,0.0,0.0,0.0,0.0,0.0,-1.9235,-2.0939,-2.1432,0.0,0.0,-2.2248,-2.2271,-2.2248,-2.1502,-2.0841,-2.0625,-1.9338,0.0,0.0,0.0,0.0,0.0,0.0,0.0,0.0,0.0,0.0,0.0,0.0,0.0,0.0,0.0,0.0,0.0,0.0,0.0,0.0,0.0,0.0,0.0,0.0,0.0,0.0,0.0,0.0,0.0,0.0,0.0,0.0,0.0,0.0,0.0,0.0,0.0,0.0,0.0,0.0,0.0,0.0,0.0,0.0,0.0,0.0,0.0,0.0,0.0,0.0,0.0,0.0,-1.549,-1.7773,-1.782,-1.8673,-2.0391,-2.0469,-2.0101,-1.9305,-1.8466,-1.7586,0.0,0.0,0.0,0.0,0.0,0.0,0.0,0.0,0.0,0.0,0.0,0.0,0.0,0.0,0.0,0.0,0.0,0.0,0.0,0.0,0.0,0.0,0.0,0.0,0.0,0.0,0.0,0.0,-0.9923,-1.0461,-1.1508,0.0,0.0,0.0,0.0,0.0,0.0,0.0,0.0,0.0,0.0,-2.0078,-2.1856,-2.2334,-2.2647,-2.308,-2.3193,-2.3217,-2.3241,-2.2376,-2.1622,-2.1426,0.0,0.0,0.0,0.0,0.0,0.0,0.0,0.0,0.0,0.0,0.0,0.0,0.0,0.0,0.0,0.0,0.0,0.0,0.0,0.0,0.0,0.0,0.0,0.0,0.0,0.0,0.0,0.0,0.0,0.0,-1.2754,0.0,0.0,0.0,0.0,0.0,0.0,0.0,0.0,0.0,0.0,0.0,0.0,0.0,0.0,0.0,0.0,0.0,0.0,0.0,0.0,0.0,0.0,-1.6036,-1.7755,-1.7883,-1.8749,-2.0433,-2.0503,-2.0107,-1.9347,-1.8471,-1.7591,-1.6699,0.0,0.0,0.0,0.0,0.0,0.0,0.0,0.0,0.0,0.0,0.0,0.0,0.0,0.0,0.0,0.0,0.0,0.0,0.0,0.0,0.0,0.0,0.0,0.0,0.0,0.0,-0.9765,-1.0413,-1.148,0.0,0.0,0.0,0.0,0.0,0.0,0.0,0.0,0.0,0.0,-2.011,-2.1319,-2.2113,-2.2873,-2.3324,-2.3295,-2.3289,-2.3289,-2.3289,-2.2417,-2.1843,0.0,0.0,0.0,0.0,0.0,0.0,0.0,0.0,0.0,0.0,0.0,0.0,0.0,0.0,0.0,0.0,0.0,0.0,0.0,0.0,0.0,0.0,0.0,0.0,0.0,0.0,0.0,-1.2848,-1.291,0.0,0.0,0.0,0.0,0.0,0.0,0.0,0.0,0.0,0.0,0.0,-1.7471,-1.7737,0.0,0.0,0.0,0.0,0.0,0.0,0.0,0.0,0.0,0.0,0.0,0.0,-1.6692,-1.782,-1.8457,-1.9338,-2.0467,-2.0545,-2.0441,-2.0174,-1.9321,-1.7904,-1.5898,0.0,0.0,0.0,0.0,0.0,0.0,0.0,0.0,0.0,0.0,0.0,0.0,0.0,0.0,0.0,0.0,0.0,0.0,0.0,0.0,0.0,0.0,0.0,0.0,0.0,-1.079,0.0,0.0,0.0,0.0,0.0,0.0,0.0,0.0,0.0,0.0,0.0,-1.9,-2.0371,-2.1432,-2.2365,-2.3092,-2.3406,-2.3517,0.0,0.0,0.0,0.0,0.0,0.0,0.0,0.0,0.0,0.0,0.0,0.0,0.0,0.0,-2.107,-1.8904,-1.9069,-1.984,-2.0758,0.0,0.0,0.0,0.0,0.0,0.0,0.0,0.0,0.0,0.0,0.0,0.0,0.0,0.0,-1.4645,0.0,-1.4668,0.0,0.0,0.0,0.0,0.0,0.0,0.0,0.0,-1.8418,-1.8951,-1.9262,-1.9554,-1.9558,0.0,-1.8951,-1.7769,0.0,0.0,0.0,0.0,0.0,0.0,0.0,0.0,-1.7469,-1.8352,-1.891,-1.9626,-2.0441,-2.0577,-2.0607,-2.0573,-1.9758,-1.822,-1.5918,-1.5019,-1.3906,0.0,0.0,0.0,0.0,0.0,0.0,0.0,0.0,0.0,0.0,0.0,0.0,0.0,0.0,0.0,0.0,0.0,0.0,0.0,0.0,0.0,0.0,0.0,-1.1716,0.0,0.0,0.0,0.0,0.0,0.0,0.0,0.0,0.0,-1.839,-1.9477,-2.0643,-2.1712,-2.2289,-2.2922,-2.3638,0.0,0.0,0.0,0.0,0.0,0.0,0.0,-2.4046,-2.375,-2.3925,-2.3923,-2.3356,-2.3801,-2.4245,-2.4264,0.0,0.0,-2.0774,-2.0868,-2.1712,-2.2483,-2.2006,-2.1639,-2.2134,-2.1987,-2.1894,0.0,0.0,0.0,0.0,0.0,0.0,0.0,0.0,-1.8005,-1.8025,0.0,-1.7969,0.0,0.0,0.0,0.0,0.0,-1.8041,0.0,0.0,-2.0172,-2.101,-2.1831,-2.2623,-2.262,-2.1805,-2.0974,-2.0149,-1.9257,-1.7594,0.0,0.0,0.0,0.0,0.0,0.0,-1.836,-1.915,-1.9224,-1.9668,-2.0483,-2.0564,-2.0594,-2.0575,-1.9764,-1.8516,-1.6875,-1.5918,-1.5039,-1.4141,-1.2578,0.0,0.0,0.0,0.0,0.0,0.0,0.0,0.0,0.0,0.0,0.0,0.0,0.0,0.0,0.0,0.0,0.0,0.0,0.0,0.0,-1.2,0.0,0.0,0.0,0.0,0.0,0.0,0.0,0.0,0.0,0.0,-2.1443,-2.2044,-2.2484,-2.2659,0.0,0.0,0.0,0.0,-2.4121,-2.4918,-2.5045,-2.5294,-2.6026,-2.5649,-2.5445,-2.609,0.0,0.0,-2.6646,-2.6657,-2.668,-2.6735,-2.6776,-2.5853,-2.2702,-2.2427,-2.2997,-2.4044,-2.3511,-2.2886,-2.3015,-2.2776,-2.2427,-1.8767,0.0,0.0,0.0,0.0,-1.8114,-1.8559,-1.888,-1.9502,-1.9801,-1.9824,-1.918,0.0,0.0,0.0,0.0,0.0,0.0,-2.0302,-2.1081,-2.1952,-2.2496,-2.273,-2.2986,-2.2966,-2.2728,-2.2466,-2.2207,-2.1929,-2.0853,-1.9375,-1.7575,0.0,0.0,0.0,0.0,-1.9033,-1.9286,-1.9875,-2.0313,-2.0566,-2.0591,-2.0598,-2.0605,-1.9746,-1.9062,-1.8555,-1.7129,-1.5937,-1.5039,-1.3984,0.0,0.0,0.0,0.0,0.0,0.0,0.0,0.0,0.0,0.0,0.0,0.0,0.0,0.0,0.0,0.0,0.0,0.0,0.0,-1.304,-1.3598,-1.4303,0.0,0.0,0.0,0.0,0.0,0.0,0.0,0.0,0.0,-2.329,-2.3052,-2.2777,0.0,0.0,-2.3919,-2.4702,-2.4751,-2.5041,-2.5867,-2.5994,0.0,0.0,-2.5905,-2.6218,-2.6693,-2.6786,-2.678,-2.6753,-2.7237,-2.7627,-2.7645,-2.8146,-2.8204,-2.7255,-2.5185,-2.4412,-2.5629,-2.5778,-2.5612,-2.5667,-2.5501,-2.5391,-2.1211,-1.9598,-1.8969,-1.8919,-1.936,-1.9869,-2.0341,-2.0754,-2.1273,-2.1546,-2.1559,-2.1051,-2.0799,-2.0781,-2.0293,0.0,0.0,0.0,-2.2026,-2.2863,-2.3372,-2.3802,-2.4115,-2.4135,-2.4115,-2.4114,-2.3773,-2.3608,-2.3606,-2.2734,-2.1539,-1.9999,0.0,0.0,-1.9473,-2.0358,-2.0809,-2.082,-2.1329,-2.1612,-2.1636,-2.1285,-2.0975,-2.0605,-2.0078,-1.9648,-1.9297,-1.8281,-1.7168,-1.5957,-1.5078,-1.3926,0.0,0.0,0.0,0.0,0.0,0.0,0.0,0.0,0.0,0.0,0.0,-1.0976,0.0,0.0,0.0,0.0,-1.4463,-1.5476,-1.4239,-1.5084,0.0,0.0,0.0,0.0,0.0,0.0,0.0,-1.9243,-2.1195,-2.318,-2.4612,-2.439,-2.3985,-2.3779,-2.4413,-2.5087,-2.56,0.0,-2.5925,-2.6816,-2.6948,-2.6922,-2.6868,-2.7191,-2.7506,-2.7793,-2.775,-2.7677,-2.7777,-2.8225,-2.8544,-2.8619,-2.8994,-2.9349,-2.931,-2.7636,-2.6338,-2.6822,-2.7453,-2.7769,-2.7412,-2.7079,-2.6931,-2.3329,-2.265,-2.1187,-2.1018,-2.1691,-2.176,-2.2291,-2.3088,-2.3169,-2.3228,-2.3281,-2.3224,-2.3157,-2.3105,-2.3164,0.0,-2.3203,-2.3203,-2.3651,-2.4484,-2.4491,-2.4922,-2.5664,-2.5684,-2.5703,-2.5684,-2.4896,-2.4516,-2.4477,-2.3706,-2.3298,-2.327,-2.2518,-2.2045,-2.1956,-2.2683,-2.3107,-2.3091,-2.309,-2.3121,-2.3184,-2.2344,-2.1504,-2.0723,-2.0625,-2.0215,-1.9453,-1.9316,-1.8516,-1.6894,-1.5977,-1.5488,-1.5352,0.0,0.0,0.0,0.0,0.0,0.0,0.0,0.0,0.0,0.0,0.0,0.0,0.0,0.0,0.0,-1.5654,0.0,-1.5348,-1.6609,0.0,0.0,0.0,-1.929,-2.0749,-2.0845,-2.1282,-2.2494,0.0,0.0,-2.5643,-2.5991,-2.5894,-2.5476,-2.5943,-2.6358,-2.6457,-2.6516,-2.6852,-2.7769,-2.7919,-2.8132,-2.8594,-2.8828,-2.8938,-2.9001,-2.9218,-2.9212,-2.9233,-2.9295,-2.9394,-2.9377,-2.9472,-2.9531,-2.9511,-2.9361,-2.9045,-2.7605,-2.8484,-2.9211,-2.8386,-2.7697,-2.7455,-2.4441,-2.4334,-2.401,-2.3318,-2.2508,-2.3197,-2.3642,-2.3891,-2.4607,-2.4948,-2.4969,-2.4349,-2.3721,-2.3103,-2.3123,-2.3494,-2.408,-2.4101,-2.4551,-2.537,-2.5391,-2.5488,-2.5684,-2.5703,-2.5703,-2.5684,-2.5488,-2.5388,-2.5385,-2.5182,-2.508,-2.5065,-2.4874,-2.4113,-2.2859,-2.2997,-2.3097,-2.3103,-2.3104,-2.3125,-2.3164,-2.2344,-2.1797,-2.1602,-2.0937,-2.0488,-2.0293,-1.9648,-1.8809,-1.7734,-1.6855,-1.6074,-1.541,-1.4411,0.0,0.0,0.0,0.0,0.0,0.0,0.0,0.0,0.0,-1.2743,-1.3566,0.0,-1.4583,0.0,-1.6387,-1.7659,-1.7871,-1.8724,0.0,0.0,-2.0997,-2.148,-2.1753,-2.2247,-2.2444,-2.2039,-2.3824,-2.5502,-2.6505,-2.7668,-2.8101,-2.7371,-2.6768,-2.6688,-2.7277,-2.7427,-2.7787,-2.8588,-2.8798,-2.8909,-2.8984,-2.9222,-2.9372,-2.933,-2.937,-2.9411,-2.9491,-2.9531,-2.955,-2.9626,-2.9645,-2.9626,-2.9531,-2.9569,-2.9533,-2.923,-2.9457,-2.957,-2.9231,-2.9006,-2.8931,-2.4738,-2.4851,-2.4921,-2.448,-2.3774,-2.4369,-2.4658,-2.4741,-2.526,-2.5538,-2.5576,-2.5177,-2.4709,-2.4266,-2.4264,-2.452,-2.4973,-2.4976,-2.5233,-2.5684,-2.5703,-2.5703,-2.5703,-2.5703,-2.5703,-2.5703,-2.5703,-2.5703,-2.5702,-2.57,-2.5696,-2.5687,-2.5699,-2.5213,-2.4314,-2.4255,-2.4237,-2.4258,-2.4258,-2.4082,-2.373,-2.3262,-2.2656,-2.1914,-2.1445,-2.0996,-2.0625,-2.0137,-1.9473,-1.8613,-1.8125,-1.7344,-1.623,-1.5956,-1.564,0.0,0.0,0.0,0.0,0.0,0.0,0.0,0.0,0.0,0.0,0.0,-1.6343,-1.729,-1.8879,-1.9896,-1.9936,-2.0638,-2.143,-2.2186,-2.2588,-2.3088,-2.3749,-2.4153,-2.4014,-2.3137,-2.4764,-2.6523,-2.7866,-2.8756,-2.9122,-2.8593,-2.8067,-2.7893,-2.8231,-2.8342,-2.857,-2.906,-2.9156,-2.9178,-2.9138,-2.9433,-2.9608,-2.9512,-2.9493,-2.957,-2.9626,-2.9701,-2.9737,-2.9792,-2.9789,-2.977,-2.9699,-2.9719,-2.9773,-2.9952,-3.0499,-3.0618,-2.9833,-2.9626,-2.9626,-2.4631,-2.4791,-2.4861,-2.4931,-2.5025,-2.5195,-2.532,-2.538,-2.5453,-2.5529,-2.5607,-2.5664,-2.569,-2.569,-2.5687,-2.5696,-2.5703,-2.5705,-2.5696,-2.5703,-2.5703,-2.5703,-2.5703,-2.5703,-2.5703,-2.5703,-2.5703,-2.5703,-2.5703,-2.5703,-2.5702,-2.5693,-2.5702,-2.5703,-2.5703,-2.5703,-2.5703,-2.5703,-2.5703,-2.5352,-2.459,-2.4473,-2.3711,-2.2305,-2.2012,-2.1543,-2.0801,-2.0664,-2.0195,-1.9355,-1.9297,-1.8672,-1.7324,-1.7715,-1.7773,0.0,-1.6995,0.0,0.0,0.0,0.0,0.0,0.0,0.0,0.0,-1.6939,-1.8009,-2.0331,-2.2067,-2.2662,-2.1808,-2.2367,-2.3111,-2.3936,-2.3925,-2.4463,-2.5957,-2.6085,-2.5739,-2.5016,-2.58,-2.7233,-2.9157,-2.9454,-2.9375,-2.9297,-2.9221,-2.9161,-2.9163,-2.9101,-2.9141,-2.9222,-2.9181,-2.9228,-2.9353,-2.9589,-2.9811,-2.9777,-2.9907,-2.9942,-3.0112,-3.022,-3.0269,-3.0307,-3.0362,-3.03,-3.0186,-3.0007,-3.0007,-3.0519,-3.1632,-3.1903,-3.0519,-3.0203,-3.0127,-2.4584,-2.4714,-2.4723,-2.4827,-2.5004,-2.5038,-2.513,-2.5252,-2.5351,-2.5487,-2.5601,-2.5605,-2.5613,-2.5629,-2.5675,-2.5697,-2.5701,-2.5693,-2.5703,-2.5693,-2.5693,-2.5699,-2.5703,-2.5698,-2.5693,-2.5693,-2.5699,-2.5701,-2.5701,-2.5701,-2.5703,-2.5703,-2.5703,-2.5699,-2.5694,0.0,0.0,0.0,-2.5703,-2.5605,-2.543,-2.4766,-2.4258,-2.3906,-2.2598,0.0,-2.1641,-2.0977,-2.0195,-1.9355,-1.9297,0.0,0.0,0.0,0.0,0.0,0.0,0.0,0.0,0.0,0.0,0.0,-1.8691,-1.9169,-1.8581,-1.7939,-1.8881,-2.1989,-2.3823,-2.4457,-2.3601,-2.3594,-2.4255,-2.5678,-2.576,-2.6062,-2.7006,-2.7064,-2.7076,-2.7339,-2.7698,-2.8372,-2.9439,-2.9569,-2.9492,-2.9472,-2.9454,-2.9434,-2.947,-2.939,-2.937,-2.939,-2.9448,-2.9453,-2.9589,-2.9813,-3.0204,-3.0582,-3.0826,-3.1087,-3.1669,-3.1874,-3.2001,-3.2015,-3.2088,-3.1898,-3.1511,-3.07,-3.0665,-3.2441,-3.2759,-3.2324,-3.1208,-3.1459,-3.1896,-2.4464,0.0,-2.4663,-2.4776,0.0,-2.4945,-2.526,-2.5664,-2.5454,-2.5434,-2.555,-2.555,-2.5585,-2.5615,-2.6087,-2.629,-2.6318,-2.6724,-2.6936,-2.691,-2.6527,-2.6337,-2.6324,-2.5886,-2.5687,-2.5687,-2.5693,-2.5696,-2.5696,-2.5696,-2.5697,-2.5699,-2.5697,-2.5693,-2.5687,-2.5699,-2.5703,-2.5703,-2.5703,-2.5703,-2.5684,-2.5273,-2.4844,-2.4414,0.0,0.0,0.0,0.0,0.0,0.0,0.0,0.0,0.0,0.0,0.0,-1.869,-1.8646,-1.8439,-1.8028,-1.8705,-1.9152,-1.9126,-2.1011,-2.1845,-2.0943,-2.0473,-2.11,-2.3226,-2.4591,-2.5293,-2.5282,-2.5248,-2.5719,-2.6873,-2.6962,-2.7205,-2.7911,-2.8045,-2.8244,-2.883,-2.9058,-2.9322,-2.9735,-2.9701,-2.9645,-2.9683,-3.0021,-3.0283,-3.0227,-2.9793,-2.9622,-3.0186,-2.9792,-3.002,-3.1167,-3.1274,-3.1269,-3.1705,-3.1817,-3.2022,-3.24,-3.2526,-3.2575,-3.2626,-3.2676,-3.2577,-3.234,-3.1794,-3.1688,-3.2573,-3.3406,-3.3578,-3.2641,-3.2447,-3.2511,-2.4653,-2.4927,-2.503,-2.5113,-2.5158,-2.5309,-2.5792,-2.6407,0.0,0.0,0.0,-2.594,-2.5945,-2.6067,-2.6773,-2.7101,-2.7167,-2.7863,-2.8197,-2.8187,-2.7513,-2.7127,-2.6952,-2.6232,-2.5842,-2.5705,-2.5705,-2.5705,-2.5705,-2.5703,-2.5705,-2.5707,-2.5705,-2.5705,-2.5705,-2.5696,-2.57,-2.5703,-2.5703,-2.5703,-2.5703,-2.5703,-2.5352,-2.4648,-2.4492,-2.375,-2.2402,-2.2207,-2.1797,-2.1113,-2.1055,-2.1055,-2.1035,-2.1055,-2.0723,-2.0039,-1.9956,-1.9653,-1.8978,-2.0201,-2.0997,-2.1066,-2.2944,-2.3805,-2.3086,-2.3157,-2.3533,-2.4264,-2.5197,-2.6023,-2.657,-2.6729,-2.7117,-2.7867,-2.7892,-2.815,-2.8912,-2.8988,-2.9188,-2.9796,-2.9888,-2.9981,-3.0139,-3.0143,-3.0145,-3.0316,-3.0901,-3.1334,-3.1222,-3.0641,-3.0414,-3.1036,-3.064,-3.0866,-3.2597,-3.323,-3.2961,-3.2756,-3.279,-3.2899,-3.3013,-3.3064,-3.3112,-3.331,-3.3225,-3.3293,-3.3264,-3.3225,-3.3004,-3.2584,-3.3973,-3.5047,-3.4151,-3.3486,-3.3179,-2.5742,-2.6562,-2.6581,-2.6691,-2.6866,-2.6883,-2.7053,-2.7333,-2.7344,-2.7454,-2.7556,-2.7557,-2.7593,-2.7671,-2.785,-2.7944,-2.7938,-2.8048,-2.814,-2.8197,-2.8084,-2.764,-2.6922,-2.678,-2.6359,-2.5752,-2.5712,-2.5693,-2.5693,-2.5712,-2.5698,-2.5705,-2.5698,-2.5693,-2.5698,-2.5705,-2.5691,-2.5691,-2.5698,-2.5701,-2.5701,-2.5703,-2.5644,-2.5508,-2.4785,-2.4316,-2.4043,-2.3359,-2.2969,-2.2852,-2.2773,-2.2754,-2.2754,-2.2715,-2.2695,-2.2575,-2.2555,-2.2509,-2.2366,-2.2614,-2.3015,-2.3692,-2.4038,-2.4115,-2.3959,-2.4543,-2.5034,-2.5274,-2.6581,-2.724,-2.6754,-2.7259,-2.7984,-2.8763,-2.8785,-2.9044,-2.9865,-2.9889,-2.9901,-3.0053,-3.0015,-3.0304,-3.0826,-3.1002,-3.1269,-3.1838,-3.2103,-3.2236,-3.2256,-3.2052,-3.1788,-3.1691,-3.1788,-3.2353,-3.3365,-3.4304,-3.432,-3.3722,-3.3732,-3.399,-3.4525,-3.4649,-3.4695,-3.4864,-3.4764,-3.4802,-3.4836,-3.4936,-3.4745,-3.4587,-3.5149,-3.5331,-3.5023,-3.4864,-3.481,-2.6326,-2.672,-2.6858,-2.6935,-2.7065,-2.7617,-2.7975,-2.8188,-2.8679,-2.8464,-2.7809,-2.7849,-2.7875,-2.8009,-2.8517,-2.8745,-2.8757,-2.929,-2.9519,-2.953,-2.9055,-2.8646,-2.8246,-2.7829,-2.7409,-2.7059,-2.7067,-2.7055,-2.7016,-2.6607,-2.636,-2.6311,-2.5931,-2.5697,-2.5704,-2.5696,-2.5701,-2.5698,-2.5689,-2.5694,-2.5694,-2.5697,-2.5701,-2.5703,-2.5292,-2.4882,-2.4414,-2.4043,-2.3633,-2.3164,-2.3164,-2.3144,-2.3144,-2.3125,-2.3105,-2.3096,-2.3096,-2.3111,-2.3098,-2.3508,-2.412,-2.4927,-2.4943,-2.5103,-2.555,-2.5434,-2.5543,-2.6025,-2.7187,-2.7926,-2.7948,-2.8291,-2.8837,-2.967,-2.9691,-2.9807,-3.0163,-3.0223,-3.02,-3.02,-3.0513,-3.0712,-3.0627,-3.139,-3.2205,-3.287,-3.308,-3.331,-3.3747,-3.3825,-3.3561,-3.2933,-3.2631,-3.3064,-3.4154,-3.4827,-3.5031,-3.4658,-3.4668,-3.4852,-3.5216,-3.5285,-3.5315,-3.535,-3.5364,-3.5364,-3.5379,-3.5412,-3.5412,-3.5412,-3.5446,-3.5479,-3.5451,-3.5432,-3.5379,-2.6936,-2.7145,-2.7313,-2.7395,-2.7491,-2.8314,-2.8787,-2.8995,-2.9604,-2.9273,-2.8303,-2.83,-2.8379,-2.8539,-2.9226,-2.9554,-2.9668,-3.033,-3.0673,-3.0598,-2.9978,-2.959,-2.9363,-2.8741,-2.8378,-2.8209,-2.8174,-2.817,-2.8092,-2.7493,-2.7069,-2.6864,-2.6275,-2.5866,-2.5664,-2.5681,-2.5668,-2.5681,-2.5671,-2.5698,-2.5703,-2.5705,-2.5694,-2.5702,-2.57,-2.5387,-2.4745,-2.4707,-2.4375,-2.373,-2.373,-2.375,-2.3769,-2.373,-2.3671,-2.37,-2.3679,-2.3696,-2.373,-2.4248,-2.4895,-2.5546,-2.5751,-2.6094,-2.6667,-2.6315,-2.6225,-2.6911,-2.7902,-2.872,-2.8997,-2.9286,-2.964,-3.0239,-3.0304,-3.0273,-3.0305,-3.0464,-3.059,-3.0595,-3.1236,-3.1455,-3.1238,-3.2038,-3.3157,-3.3802,-3.4053,-3.4437,-3.5009,-3.5162,-3.484,-3.427,-3.3584,-3.3734,-3.5005,-3.5273,-3.5285,-3.5308,-3.5281,-3.5277,-3.5315,-3.533,-3.5364,-3.5412,-3.5427,-3.5427,-3.5474,-3.5474,-3.5474,-3.5474,-3.5493,-3.5507,-3.5493,-3.5493,-3.546,-2.7921,-2.8718,-2.8746,-2.8916,-2.9054,-2.9401,-2.9551,-2.9605,-2.9822,-2.9848,-2.9652,-2.9913,-2.9992,-3.0167,-3.0229,-3.0274,-3.0366,-3.054,-3.0615,-3.0591,-3.054,-3.0102,-2.9484,-2.9319,-2.8869,-2.8249,-2.8203,-2.8269,-2.8269,-2.8067,-2.7612,-2.6967,-2.6821,-2.6373,-2.5732,-2.5617,-2.5601,-2.5609,-2.5604,-2.564,-2.569,-2.5703,-2.5687,-2.5689,-2.5689,-2.567,-2.5515,-2.5565,-2.5527,-2.5469,-2.541,-2.5449,-2.543,-2.5449,-2.5429,-2.5406,-2.5406,-2.5461,-2.5447,-2.5519,-2.5578,-2.573,-2.6354,-2.6805,-2.6974,-2.7416,-2.7765,-2.8125,-2.9332,-2.9852,-2.9338,-2.982,-3.0221,-3.0321,-3.0328,-3.0304,-3.0439,-3.1021,-3.1488,-3.1481,-3.2158,-3.279,-3.2996,-3.3566,-3.4212,-3.4849,-3.4944,-3.5025,-3.5197,-3.527,-3.527,-3.512,-3.4974,-3.4955,-3.527,-3.5335,-3.535,-3.5335,-3.535,-3.5379,-3.5398,-3.5427,-3.5493,-3.546,-3.5474,-3.5493,-3.5493,-3.5507,-3.5507,-3.5507,-3.5507,-3.5507,-3.5507,-3.5507,-3.5474,-2.8427,-2.89,-2.897,-2.9115,-2.9293,-2.9414,-2.955,-2.972,-2.9755,-2.9823,-2.9888,-2.9988,-3.0109,-3.0299,-3.0311,-3.039,-3.0436,-3.0469,-3.0501,-3.0528,-3.0528,-3.0382,-3.0139,-3.0122,-2.99,-2.961,-2.9574,-2.9567,-2.9482,-2.9108,-2.8456,-2.7628,-2.7123,-2.665,-2.6287,-2.5839,-2.5595,-2.56,-2.5609,-2.562,-2.5636,-2.5678,-2.5696,-2.5705,-2.5705,-2.5705,-2.5687,-2.5694,-2.5699,-2.5702,-2.5703,-2.5703,-2.5703,-2.5703,-2.5703,-2.5703,-2.5698,-2.5691,-2.5705,-2.5693,-2.5912,-2.6361,-2.6714,-2.7298,-2.8262,-2.8203,-2.8439,-2.9508,-3.0192,-3.0375,-3.0045,-3.0265,-3.0447,-3.0425,-3.0383,-3.0544,-3.1109,-3.1455,-3.1821,-3.2307,-3.3075,-3.3574,-3.3758,-3.4371,-3.4928,-3.5277,-3.5315,-3.5315,-3.5315,-3.5315,-3.5315,-3.535,-3.5335,-3.532,-3.5315,-3.5398,-3.5412,-3.5379,-3.5412,-3.546,-3.546,-3.5474,-3.5507,-3.5507,-3.5507,-3.5507,-3.5507,-3.5507,-3.5507,-3.5507,-3.5507,-3.5507,-3.5507,-3.5507,-3.5507,-2.8637,-2.8761,-2.8923,-2.9112,-2.9249,-2.9272,-2.9414,-2.9589,-2.9664,-2.9737,-2.9841,-2.9893,-2.9991,-3.0128,-3.0234,-3.0311,-3.0386,-3.0402,-3.0439,-3.0472,-3.0492,-3.053,-3.0578,-3.0569,-3.0579,-3.0579,-3.0549,-3.0576,-3.0527,-3.004,-2.9284,-2.8477,-2.7826,-2.7387,-2.7083,-2.6351,-2.5929,-2.5892,-2.5712,-2.5562,-2.559,-2.5639,-2.5687,-2.5696,-2.5693,-2.5696,-2.5703,-2.5705,-2.5691,-2.5697,-2.5701,-2.5703,-2.5703,-2.5703,-2.5703,-2.5703,-2.57,-2.5693,-2.5707,-2.5917,-2.6298,-2.6883,-2.7301,-2.8121,-2.9069,-2.9045,-2.9396,-3.0404,-3.0649,-3.0597,-3.053,-3.0549,-3.049,-3.0439,-3.0601,-3.1072,-3.1588,-3.1992,-3.2653,-3.3231,-3.3967,-3.4408,-3.4351,-3.4875,-3.5379,-3.5364,-3.5364,-3.5345,-3.5345,-3.536,-3.5374,-3.5422,-3.5455,-3.5422,-3.5379,-3.5446,-3.5479,-3.546,-3.546,-3.5493,-3.5507,-3.5507,-3.5507,-3.5507,-3.5507,-3.5507,-3.5507,-3.5507,-3.5507,-3.5507,-3.5526,-3.5545,-3.5507,-3.5507,-3.5507,-2.8536,-2.8637,-2.89,-2.904,-2.913,-2.9246,-2.9314,-2.9373,-2.9569,-2.9701,-2.9738,-2.9827,-2.9912,-2.994,-3.0109,-3.0259,-3.0312,-3.0374,-3.039,-3.0414,-3.0458,-3.0497,-3.0498,-3.0497,-3.049,-3.0509,-3.05,-3.052,-3.0578,-3.0528,-3.0148,-2.9361,-2.9167,-2.8799,-2.8024,-2.7174,-2.6754,-2.6604,-2.5945,-2.5525,-2.5525,-2.5562,-2.5634,-2.5679,-2.5691,-2.5701,-2.569,-2.5703,-2.5687,-2.5687,-2.5689,-2.5696,-2.5703,-2.5703,-2.5703,-2.5703,-2.5723,-2.5721,-2.5847,-2.6488,-2.701,-2.7234,-2.8423,-2.9381,-2.9591,-3.0072,-3.0444,-3.0691,-3.0717,-3.068,-3.0732,-3.0656,-3.0598,-3.0644,-3.1262,-3.1645,-3.1785,-3.3102,-3.3975,-3.425,-3.4814,-3.5218,-3.5353,-3.5455,-3.5493,-3.5493,-3.5493,-3.5474,-3.5488,-3.5495,-3.5509,-3.5599,-3.5631,-3.5566,-3.552,-3.5699,-3.5641,-3.5757,-3.5925,-3.5699,-3.5545,-3.5507,-3.5565,-3.5641,-3.5834,-3.5853,-3.5603,-3.5507,-3.5507,-3.5545,-3.5641,-3.5647,-3.5911,-3.5641,-3.5776,-2.8466,-2.8669,-2.8858,-2.8975,-2.904,-2.9149,-2.9222,-2.9295,-2.9394,-2.953,-2.9626,-2.9738,-2.9773,-2.9859,-2.9956,-3.0098,-3.0245,-3.0272,-3.0305,-3.034,-3.0375,-3.0394,-3.0448,-3.0452,-3.0463,-3.0483,-3.0477,-3.0509,-3.053,-3.052,-3.0395,-3.0057,-2.9535,-2.909,-2.8704,-2.7945,-2.7265,-2.6773,-2.6393,-2.6021,-2.5583,-2.5531,-2.5556,-2.5634,-2.5639,-2.566,-2.5691,-2.5701,-2.5693,-2.5703,-2.5705,-2.5689,-2.5697,-2.5702,-2.5703,-2.5742,-2.6211,-2.6543,-2.6619,-2.7352,-2.8086,-2.8633,-2.9146,-2.978,-3.024,-3.0589,-3.0764,-3.0759,-3.0753,-3.1002,-3.146,-3.1083,-3.0799,-3.1274,-3.1632,-3.2268,-3.3149,-3.3935,-3.4462,-3.4976,-3.54,-3.5534,-3.5522,-3.5541,-3.5554,-3.5554,-3.5554,-3.5592,-3.5573,-3.5566,-3.5791,-3.6215,-3.6344,-3.617,-3.5586,-3.6074,-3.6402,-3.6658,-3.6851,-3.7095,-3.7076,-3.696,-3.7018,-3.6914,-3.6876,-3.667,-3.6535,-3.5988,-3.5911,-3.5795,-3.5878,-3.6353,-3.6546,-3.6546,-3.6815,-2.844,-2.8687,-2.881,-2.8905,-2.897,-2.9049,-2.9163,-2.9225,-2.9291,-2.939,-2.949,-2.9587,-2.9683,-2.9774,-2.9825,-2.9924,-3.0113,-3.0171,-3.024,-3.026,-3.029,-3.0321,-3.0359,-3.0359,-3.0398,-3.0467,-3.0466,-3.0469,-3.0488,-3.0499,-3.0479,-3.0432,-2.9881,-2.9621,-2.9467,-2.8763,-2.8009,-2.7574,-2.7235,-2.6807,-2.6316,-2.6033,-2.5919,-2.5926,-2.5729,-2.5605,-2.5658,-2.5699,-2.5694,-2.5687,-2.5701,-2.5687,-2.5689,-2.5701,-2.584,-2.6133,-2.666,-2.7129,-2.748,-2.8239,-2.8974,-2.9554,-2.9821,-3.0225,-3.0726,-3.079,-3.0793,-3.0867,-3.1427,-3.1957,-3.2129,-3.1851,-3.1701,-3.2212,-3.2503,-3.3093,-3.4171,-3.4562,-3.4967,-3.5384,-3.5546,-3.5572,-3.5572,-3.5572,-3.5591,-3.5623,-3.5797,-3.599,-3.5997,-3.6311,-3.6574,-3.7134,-3.7274,-3.7081,-3.6953,-3.739,-3.8112,-3.8459,-3.7733,-3.8074,-3.8286,-3.8247,-3.8215,-3.8163,-3.7982,-3.7718,-3.7299,-3.6694,-3.643,-3.6295,-3.6661,-3.7199,-3.7411,-3.7642,-3.7777,-2.8458,-2.8612,-2.8755,-2.8834,-2.8905,-2.903,-2.9108,-2.914,-2.9243,-2.9291,-2.9351,-2.9446,-2.9567,-2.9664,-2.9814,-2.9848,-3.0037,-3.0232,-3.028,-3.0213,-3.026,-3.0309,-3.0309,-3.0321,-3.034,-3.0429,-3.0394,-3.0398,-3.0417,-3.0477,-3.0499,-3.0479,-3.043,-3.0314,-3.046,-2.9601,-2.9177,-2.8878,-2.828,-2.7904,-2.7865,-2.7099,-2.6738,-2.6703,-2.6112,-2.5764,-2.5737,-2.5707,-2.5699,-2.5707,-2.5693,-2.5705,-2.5806,-2.5895,-2.6172,-2.6875,-2.707,-2.75,-2.8262,-2.9121,-2.9607,-2.9814,-3.0335,-3.0704,-3.0777,-3.0807,-3.0794,-3.0985,-3.2182,-3.3147,-3.2869,-3.2998,-3.3174,-3.3278,-3.3768,-3.4236,-3.4583,-3.5123,-3.5549,-3.5538,-3.5581,-3.5616,-3.5628,-3.5608,-3.5647,-3.5879,-3.6272,-3.6748,-3.6883,-3.7382,-3.7986,-3.8202,-3.8252,-3.8147,-3.8496,-3.8961,-3.9762,-4.0234,-3.9103,-3.8633,-3.8807,-3.8846,-3.891,-3.8859,-3.8581,-3.8337,-3.8213,-3.7665,-3.7497,-3.7445,-3.7829,-3.7988,-3.82,-3.8354,-3.8411,-2.8406,-2.8536,-2.8687,-2.8761,-2.8834,-2.8929,-2.9017,-2.909,-2.9144,-2.92,-2.9291,-2.9351,-2.9411,-2.9679,-3.0188,-3.0528,-3.0602,-3.0776,-3.0655,-3.03,-3.0259,-3.0234,-3.0299,-3.0304,-3.034,-3.0398,-3.039,-3.0402,-3.0402,-3.0433,-3.0433,-3.0433,-3.0433,-3.0433,-3.0414,-3.0144,-2.9798,-2.9233,-2.894,-2.8546,-2.7991,-2.7672,-2.7554,-2.7594,-2.7354,-2.7257,-2.7272,-2.6236,-2.5683,-2.5734,-2.5691,-2.596,-2.6542,-2.7155,-2.7593,-2.791,-2.8476,-2.8867,-2.9219,-2.998,-3.0469,-3.0525,-3.0737,-3.0849,-3.086,-3.0836,-3.0794,-3.0947,-3.2368,-3.3672,-3.4593,-3.4433,-3.4224,-3.4151,-3.4361,-3.4783,-3.5214,-3.5524,-3.5649,-3.5657,-3.5667,-3.5678,-3.5678,-3.5678,-3.5958,-3.6433,-3.682,-3.7168,-3.7749,-3.8158,-3.8576,-3.9013,-3.9131,-3.9374,-3.9685,-3.9879,-4.0306,-4.0731,-4.0009,-3.9391,-3.9507,-3.9565,-3.9598,-3.9515,-3.9219,-3.9039,-3.8896,-3.8728,-3.8507,-3.8436,-3.8556,-3.8715,-3.8907,-3.9046,-3.9161,-2.8327,-2.8466,-2.8612,-2.8712,-2.881,-2.8892,-2.8957,-2.9072,-2.909,-2.9324,-2.9621,-2.9728,-2.9959,-3.036,-3.0986,-3.1294,-3.1354,-3.1469,-3.1345,-3.0929,-3.0319,-3.0204,-3.0237,-3.0292,-3.0297,-3.0348,-3.0367,-3.0379,-3.0398,-3.0398,-3.0398,-3.0398,-3.0398,-3.0398,-3.0398,-3.0379,-3.0102,-2.969,-2.9629,-2.939,-2.8895,-2.853,-2.8406,-2.8394,-2.8162,-2.8027,-2.7959,-2.7009,-2.6514,-2.6598,-2.6621,-2.6942,-2.7476,-2.7988,-2.8426,-2.8844,-2.9258,-2.9707,-3.0059,-3.0566,-3.0918,-3.0918,-3.0917,-3.0915,-3.0891,-3.0847,-3.0821,-3.1016,-3.2614,-3.4348,-3.5529,-3.5509,-3.5134,-3.5132,-3.5093,-3.5259,-3.5713,-3.5765,-3.5718,-3.5699,-3.5699,-3.5718,-3.5727,-3.6241,-3.6474,-3.6978,-3.756,-3.8035,-3.8695,-3.9102,-3.9549,-3.9908,-4.0072,-4.0382,-4.0768,-4.0866,-4.0885,-4.0906,-4.0743,-4.047,-4.0419,-4.0408,-4.0436,-4.028,-4.0062,-3.9928,-3.9805,-3.9585,-3.9364,-3.9369,-3.9355,-3.9591,-3.9826,-3.9965,-4.0062,-2.8335,-2.8496,-2.868,-2.8898,-2.9041,-2.913,-2.9237,-2.9223,-2.9297,-2.9769,-3.032,-3.0494,-3.0946,-3.163,-3.1849,-3.203,-3.2137,-3.2198,-3.226,-3.1965,-3.1127,-3.0462,-3.0428,-3.0349,-3.0286,-3.0304,-3.0304,-3.0336,-3.0386,-3.0398,-3.0398,-3.0398,-3.0398,-3.0398,-3.0398,-3.0398,-3.0359,-3.0294,-3.0321,-3.0267,-3.0194,-2.9646,-2.9261,-2.9244,-2.8676,-2.8348,-2.8366,-2.8255,-2.8109,-2.8087,-2.8048,-2.8205,-2.8349,-2.8396,-2.8967,-2.9635,-2.9685,-3.0117,-3.0684,-3.0859,-3.0918,-3.0918,-3.0918,-3.0918,-3.0918,-3.1068,-3.1179,-3.1237,-3.3149,-3.4861,-3.5757,-3.5919,-3.5888,-3.5938,-3.5761,-3.5781,-3.5787,-3.5807,-3.5782,-3.5724,-3.5697,-3.5833,-3.6051,-3.6919,-3.7181,-3.7657,-3.8569,-3.9199,-3.9713,-4.012,-4.0671,-4.0816,-4.0715,-4.0809,-4.1018,-4.1006,-4.1006,-4.0999,-4.0976,-4.0943,-4.0888,-4.0898,-4.0867,-4.0784,-4.0711,-4.0655,-4.0539,-4.0204,-4.0152,-4.0177,-4.0298,-4.0545,-4.0569,-4.0515,-4.05,-2.9084,-2.9304,-2.9999,-3.0369,-3.0483,-3.0564,-3.0599,-3.0688,-3.0748,-3.0851,-3.1164,-3.121,-3.1452,-3.1784,-3.2451,-3.2761,-3.2854,-3.2981,-3.3079,-3.2993,-3.2199,-3.1473,-3.1002,-3.048,-3.0272,-3.0292,-3.0305,-3.0305,-3.0318,-3.0343,-3.0336,-3.0316,-3.0398,-3.0398,-3.0398,-3.0398,-3.0398,-3.0398,-3.0398,-3.039,-3.0371,-3.021,-3.0094,-3.0056,-2.9839,-2.9737,-2.9825,-2.99,-2.9272,-2.8236,-2.8807,-2.9148,-2.9219,-2.9709,-3.0113,-3.0333,-3.0494,-3.0598,-3.0818,-3.0898,-3.0918,-3.0918,-3.0918,-3.0918,-3.0937,-3.168,-3.2051,-3.2519,-3.4197,-3.5619,-3.5938,-3.6007,-3.602,-3.5986,-3.5938,-3.5897,-3.5879,-3.5859,-3.585,-3.5779,-3.5815,-3.6421,-3.7226,-3.7595,-3.7872,-3.8708,-3.9369,-3.9921,-4.0396,-4.0645,-4.0979,-4.0986,-4.0954,-4.1013,-4.1064,-4.107,-4.1075,-4.1056,-4.1045,-4.1039,-4.0968,-4.0926,-4.0908,-4.0848,-4.0787,-4.0734,-4.073,-4.0571,-4.07,-4.0726,-4.0668,-4.0626,-4.0593,-4.0574,-4.0559,-2.9461,-2.9973,-3.06,-3.0938,-3.1057,-3.1151,-3.1256,-3.1299,-3.1385,-3.1623,-3.1876,-3.1981,-3.225,-3.265,-3.3215,-3.3491,-3.358,-3.3713,-3.3821,-3.3792,-3.3125,-3.2275,-3.1432,-3.0772,-3.0543,-3.0259,-3.0272,-3.0286,-3.0312,-3.0318,-3.0299,-3.0311,-3.0336,-3.0367,-3.0348,-3.0379,-3.0398,-3.0398,-3.0398,-3.0398,-3.0398,-3.0398,-3.0379,-3.039,-3.0406,-3.0422,-3.0492,-3.0558,-3.0109,-2.9499,-2.9718,-3.0014,-3.0078,-3.049,-3.0785,-3.0799,-3.0841,-3.0843,-3.0849,-3.0874,-3.0915,-3.0918,-3.0918,-3.1113,-3.1426,-3.2109,-3.2519,-3.3418,-3.4726,-3.5488,-3.5947,-3.6016,-3.6007,-3.6001,-3.5966,-3.5934,-3.5953,-3.5922,-3.5898,-3.5963,-3.634,-3.7001,-3.8357,-3.8565,-3.9059,-3.9623,-4.0032,-4.0487,-4.0877,-4.1007,-4.1058,-4.1064,-4.107,-4.1075,-4.1081,-4.1086,-4.1091,-4.1096,-4.1096,-4.1081,-4.1046,-4.0976,-4.0943,-4.0907,-4.0859,-4.0828,-4.0807,-4.0773,-4.0769,-4.0752,-4.0675,-4.0662,-4.0648,-4.0629,-4.0615,-2.9756,-3.0636,-3.0926,-3.1106,-3.1291,-3.1392,-3.1628,-3.1602,-3.1743,-3.2119,-3.2629,-3.2802,-3.3138,-3.3895,-3.382,-3.4087,-3.4141,-3.4157,-3.4315,-3.4236,-3.3776,-3.2919,-3.1781,-3.1286,-3.091,-3.0438,-3.028,-3.0213,-3.0253,-3.0266,-3.0279,-3.0292,-3.0299,-3.0292,-3.0323,-3.0348,-3.0398,-3.0379,-3.0379,-3.0398,-3.0398,-3.0398,-3.0398,-3.039,-3.0394,-3.0419,-3.0501,-3.055,-3.0518,-3.0637,-3.069,-3.0646,-3.073,-3.0774,-3.0802,-3.0788,-3.0813,-3.0796,-3.0801,-3.0862,-3.0903,-3.0912,-3.1014,-3.1308,-3.1934,-3.2422,-3.3105,-3.4082,-3.4609,-3.5332,-3.5837,-3.6005,-3.6018,-3.6016,-3.5994,-3.6007,-3.5994,-3.5958,-3.5909,-3.5953,-3.6869,-3.7742,-3.8902,-3.9858,-4.0674,-4.0181,-4.0557,-4.0791,-4.1011,-4.1061,-4.1086,-4.1091,-4.1096,-4.1096,-4.11,-4.11,-4.11,-4.1105,-4.1105,-4.1096,-4.1061,-4.1013,-4.0979,-4.0929,-4.0904,-4.0888,-4.0858,-4.0856,-4.0834,-4.0812,-4.0769,-4.0732,-4.0707,-4.0681,-4.0668,-3.0985,-3.1418,-3.2166,-3.257,-3.2787,-3.2893,-3.2983,-3.3049,-3.3131,-3.3195,-3.3505,-3.3542,-3.3687,-3.3895,-3.3947,-3.3998,-3.4124,-3.4197,-3.4302,-3.4411,-3.4451,-3.3848,-3.2787,-3.1916,-3.1194,-3.0841,-3.0365,-3.0166,-3.0157,-3.0199,-3.0207,-3.0221,-3.0279,-3.0305,-3.0305,-3.0311,-3.0336,-3.0316,-3.0367,-3.0398,-3.0398,-3.0398,-3.0398,-3.041,-3.039,-3.0402,-3.0436,-3.049,-3.055,-3.0615,-3.0673,-3.0697,-3.0743,-3.0773,-3.0794,-3.0793,-3.079,-3.0801,-3.0796,-3.0819,-3.086,-3.094,-3.1434,-3.1906,-3.2109,-3.3203,-3.3945,-3.4668,-3.5254,-3.5723,-3.5957,-3.6016,-3.6012,-3.6009,-3.6007,-3.6003,-3.601,-3.5994,-3.5962,-3.6216,-3.6859,-3.8116,-4.0102,-3.9993,-4.0467,-4.0701,-4.0916,-4.1072,-4.1115,-4.1105,-4.1105,-4.1109,-4.1117,-4.1101,-4.1101,-4.1101,-4.1101,-4.1101,-4.1101,-4.1117,-4.1066,-4.1052,-4.1025,-4.1,-4.0979,-4.0968,-4.0945,-4.0898,-4.0888,-4.0858,-4.0846,-4.0804,-4.0781,-4.0761,-4.073,-3.1122,-3.2024,-3.266,-3.2979,-3.3152,-3.3352,-3.347,-3.3567,-3.3643,-3.3733,-3.3752,-3.377,-3.3834,-3.3842,-3.3895,-3.3947,-3.4023,-3.4148,-3.425,-3.433,-3.4427,-3.4285,-3.3827,-3.2748,-3.1956,-3.1301,-3.0823,-3.0475,-3.0164,-3.0113,-3.0161,-3.0157,-3.0232,-3.0259,-3.0272,-3.0273,-3.0311,-3.0304,-3.0336,-3.0348,-3.0359,-3.0379,-3.0398,-3.0398,-3.0398,-3.0398,-3.041,-3.0428,-3.0481,-3.054,-3.0623,-3.0673,-3.071,-3.0717,-3.0755,-3.0767,-3.0799,-3.0798,-3.0794,-3.0807,-3.083,-3.0888,-3.1616,-3.2251,-3.2748,-3.3745,-3.4584,-3.5191,-3.5684,-3.6016,-3.6016,-3.6016,-3.6016,-3.6015,-3.6012,-3.6007,-3.6016,-3.6004,-3.6274,-3.6703,-3.7484,-3.8931,-4.0008,-4.0336,-4.0551,-4.0957,-4.0976,-4.1113,-4.1113,-4.1101,-4.1101,-4.1104,-4.1114,-4.1099,-4.1099,-4.1099,-4.1099,-4.1099,-4.1099,-4.1114,-4.1101,-4.1094,-4.1081,-4.1042,-4.1039,-4.1039,-4.103,-4.0988,-4.0943,-4.0945,-4.0927,-4.0898,-4.0867,-4.0837,-4.0796,-3.0972,-3.244,-3.2722,-3.2884,-3.3011,-3.3244,-3.3382,-3.3506,-3.3597,-3.3671,-3.3715,-3.377,-3.377,-3.3815,-3.386,-3.3913,-3.3947,-3.4074,-3.4154,-3.4165,-3.4301,-3.4321,-3.4076,-3.3596,-3.2818,-3.1523,-3.1159,-3.072,-3.0162,-3.0038,-3.0068,-3.0102,-3.0142,-3.019,-3.0185,-3.024,-3.0279,-3.0273,-3.0279,-3.0304,-3.0309,-3.0359,-3.0379,-3.0398,-3.0398,-3.0398,-3.039,-3.0406,-3.043,-3.0492,-3.0559,-3.0615,-3.0653,-3.0683,-3.069,-3.0697,-3.0761,-3.0769,-3.0784,-3.0821,-3.0852,-3.0954,-3.1825,-3.2712,-3.3515,-3.4278,-3.504,-3.5572,-3.6016,-3.6016,-3.6016,-3.6016,-3.6016,-3.6016,-3.6014,-3.6067,-3.6177,-3.6194,-3.6719,-3.7438,-3.8261,-3.9554,-4.0433,-4.0921,-4.1035,-4.1114,-4.1114,-4.1114,-4.1114,-4.1111,-4.1111,-4.1108,-4.1114,-4.1146,-4.1147,-4.1133,-4.1133,-4.1133,-4.1113,-4.1123,-4.1116,-4.1091,-4.1081,-4.1105,-4.1091,-4.1095,-4.1071,-4.1052,-4.1018,-4.1023,-4.1007,-4.0971,-4.0956,-4.0927,-4.0898,-3.1341,-3.2406,-3.2541,-3.269,-3.2916,-3.3086,-3.3274,-3.3411,-3.3517,-3.3605,-3.3707,-3.3733,-3.3752,-3.3788,-3.3807,-3.386,-3.3895,-3.3998,-3.4055,-3.4074,-3.4173,-3.4221,-3.4176,-3.4125,-3.3593,-3.2729,-3.1768,-3.0749,-3.0158,-2.9924,-2.9956,-3.0003,-3.0068,-3.0117,-3.0132,-3.0171,-3.0213,-3.0221,-3.026,-3.0286,-3.0292,-3.0316,-3.0348,-3.0379,-3.0379,-3.0398,-3.039,-3.0394,-3.0406,-3.0406,-3.0488,-3.055,-3.0597,-3.0621,-3.0645,-3.0683,-3.0723,-3.0749,-3.0778,-3.0852,-3.1203,-3.1839,-3.267,-3.3503,-3.4348,-3.5132,-3.562,-3.5818,-3.6018,-3.6016,-3.6016,-3.6016,-3.6016,-3.6016,-3.6055,-3.6269,-3.6797,-3.7105,-3.7276,-3.7914,-3.8955,-3.9916,-4.0638,-4.1126,-4.1125,-4.1125,-4.1125,-4.1125,-4.1125,-4.1123,-4.1103,-4.1116,-4.1111,-4.1144,-4.119,-4.1191,-4.1172,-4.1152,-4.1152,-4.1133,-4.1125,-4.1103,-4.1099,-4.1101,-4.1109,-4.11,-4.1086,-4.1089,-4.1078,-4.1071,-4.1059,-4.1045,-4.1023,-4.098,-4.0971,-3.0959,-3.2214,-3.2371,-3.2626,-3.2838,-3.293,-3.3099,-3.3327,-3.3411,-3.3499,-3.3587,-3.3671,-3.3707,-3.3762,-3.3788,-3.3815,-3.386,-3.3923,-3.3965,-3.3979,-3.4035,-3.4117,-3.4117,-3.4253,-3.3788,-3.3022,-3.2,-3.1129,-3.0433,-2.9959,-2.9859,-2.9891,-2.9959,-2.9991,-2.9988,-3.0049,-3.0109,-3.0152,-3.0226,-3.024,-3.0247,-3.0279,-3.0328,-3.034,-3.0359,-3.0359,-3.041,-3.039,-3.0394,-3.0394,-3.0428,-3.0479,-3.051,-3.054,-3.0597,-3.0679,-3.0719,-3.0729,-3.0879,-3.1092,-3.1649,-3.2079,-3.3229,-3.4101,-3.4718,-3.535,-3.5962,-3.6007,-3.601,-3.6016,-3.6016,-3.6012,-3.6014,-3.6015,-3.6035,-3.6465,-3.7148,-3.7676,-3.8125,-3.8516,-3.9316,-4.0176,-4.0839,-4.1151,-4.1151,-4.1131,-4.1133,-4.1152,-4.1152,-4.1133,-4.1133,-4.1133,-4.1152,-4.1172,-4.1191,-4.1191,-4.1191,-4.1191,-4.1308,-4.1289,-4.1306,-4.1383,-4.124,-4.1111,-4.1104,-4.1413,-4.1097,-4.1105,-4.11,-4.1111,-4.11,-4.107,-4.1052,-4.1039,-4.1149,-3.037,-3.1828,-3.2197,-3.2491,-3.2707,-3.2852,-3.3024,-3.322,-3.3327,-3.3429,-3.3506,-3.3587,-3.3662,-3.3726,-3.378,-3.3807,-3.3807,-3.3889,-3.3889,-3.387,-3.3952,-3.3983,-3.3993,-3.4031,-3.384,-3.3364,-3.2553,-3.1696,-3.0752,-3.0039,-2.9756,-2.9771,-2.9825,-2.9876,-2.9891,-2.9956,-3.0015,-3.0075,-3.0138,-3.0157,-3.0194,-3.0254,-3.0297,-3.0309,-3.0309,-3.0328,-3.0359,-3.0379,-3.039,-3.0394,-3.0406,-3.0436,-3.0477,-3.0488,-3.0664,-3.0975,-3.0991,-3.0936,-3.1161,-3.1785,-3.2382,-3.2837,-3.3835,-3.4475,-3.4998,-3.5558,-3.5986,-3.5978,-3.5991,-3.601,-3.6018,-3.6003,-3.6007,-3.6067,-3.6208,-3.6621,-3.7559,-3.834,-3.9141,-3.957,-3.9961,-4.041,-4.1055,-4.1172,-4.1172,-4.1172,-4.1172,-4.1172,-4.1172,-4.1172,-4.1172,-4.1191,-4.1191,-4.1191,-4.1191,-4.1191,-4.1191,-4.1191,-4.1504,-4.1719,-4.1719,-4.1757,-4.1699,-4.1855,-4.1975,-4.217,-4.166,-4.115,-4.1101,-4.1113,-4.1109,-4.1252,-4.151,-4.1655,-4.1772,-2.9989,-3.0957,-3.183,-3.2301,-3.2491,-3.2755,-3.2916,-3.3011,-3.319,-3.3357,-3.3411,-3.3488,-3.3595,-3.3716,-3.378,-3.3807,-3.3807,-3.3807,-3.3825,-3.3825,-3.3889,-3.3889,-3.3923,-3.397,-3.3965,-3.361,-3.3043,-3.1991,-3.0966,-3.0093,-2.9664,-2.972,-2.9718,-2.9753,-2.9825,-2.9859,-2.9926,-2.9921,-2.9988,-3.0083,-3.0171,-3.0213,-3.0253,-3.0292,-3.0305,-3.0299,-3.0316,-3.0336,-3.0386,-3.0506,-3.0467,-3.0429,-3.0402,-3.0406,-3.1291,-3.1931,-3.2132,-3.169,-3.1889,-3.2566,-3.3308,-3.3759,-3.445,-3.4957,-3.5412,-3.5683,-3.5933,-3.5919,-3.5951,-3.5968,-3.5988,-3.6013,-3.6016,-3.6309,-3.6665,-3.7417,-3.832,-3.8848,-3.9687,-4.0312,-4.0605,-4.0801,-4.1191,-4.1191,-4.1191,-4.1191,-4.1191,-4.1191,-4.1191,-4.1191,-4.1191,-4.1191,-4.1191,-4.1191,-4.1543,-4.1484,-4.166,-4.1543,-4.1875,-4.2266,-4.2363,-4.2539,-4.3008,-4.3144,-4.3125,-4.2793,-4.2253,-4.1763,-4.1325,-4.14,-4.1771,-4.1991,-4.2173,-4.2305,-4.2442,-2.9419,-3.0749,-3.122,-3.1812,-3.2371,-3.2541,-3.274,-3.2898,-3.3006,-3.316,-3.3327,-3.3411,-3.3556,-3.3689,-3.3726,-3.378,-3.3807,-3.3807,-3.3807,-3.3807,-3.3825,-3.3844,-3.3844,-3.388,-3.3934,-3.3747,-3.3204,-3.2316,-3.1281,-3.0567,-3.0091,-2.9607,-2.9589,-2.9645,-2.9738,-2.9774,-2.9809,-2.9842,-2.9907,-2.9988,-3.0064,-3.0123,-3.018,-3.0259,-3.0265,-3.033,-3.0375,-3.0305,-3.0599,-3.0893,-3.1078,-3.084,-3.0821,-3.1249,-3.2249,-3.2673,-3.3138,-3.2974,-3.2764,-3.3442,-3.4032,-3.4514,-3.4928,-3.5465,-3.5826,-3.5898,-3.5892,-3.5891,-3.5943,-3.5942,-3.5955,-3.5997,-3.6336,-3.669,-3.7198,-3.8127,-3.8945,-3.9453,-4.0078,-4.0684,-4.1172,-4.1172,-4.1191,-4.1191,-4.1191,-4.1191,-4.1191,-4.1191,-4.1191,-4.1191,-4.1191,-4.1191,-4.1191,-4.1191,-4.1719,-4.2012,-4.2558,-4.2617,-4.2812,-4.3125,-4.3183,-4.3437,-4.3906,-4.3887,-4.3555,-4.3203,-4.2832,-4.2236,-4.1665,-4.2056,-4.2585,-4.2887,-4.317,-4.3185,-4.3342,-2.8613,-3.0057,-3.0577,-3.1342,-3.2267,-3.2354,-3.2558,-3.2773,-3.2884,-3.3024,-3.319,-3.3316,-3.3509,-3.3633,-3.3671,-3.3726,-3.378,-3.3788,-3.3807,-3.3807,-3.3807,-3.3807,-3.3825,-3.3844,-3.3862,-3.3862,-3.346,-3.2681,-3.1954,-3.1195,-3.0432,-2.9509,-2.9434,-2.9531,-2.9607,-2.9664,-2.9683,-2.9775,-2.9842,-2.9907,-2.9991,-3.0274,-3.0428,-3.0572,-3.0682,-3.0815,-3.0887,-3.0986,-3.1404,-3.1712,-3.1917,-3.177,-3.1725,-3.2237,-3.3083,-3.3545,-3.3968,-3.3966,-3.3967,-3.4348,-3.4651,-3.4962,-3.5252,-3.5696,-3.5807,-3.5857,-3.5885,-3.5852,-3.5872,-3.5897,-3.5958,-3.6129,-3.6606,-3.7164,-3.7757,-3.872,-3.959,-4.0039,-4.0391,-4.0801,-4.1133,-4.1152,-4.1152,-4.1172,-4.1172,-4.1191,-4.1191,-4.1191,-4.1191,-4.1191,-4.125,-4.125,-4.1191,-4.125,-4.166,-4.2266,-4.2949,-4.3711,-4.3906,-4.3984,-4.4043,-4.4336,-4.4766,-4.4551,-4.4219,-4.4414,-4.4531,-4.3242,-4.2138,-4.3021,-4.3784,-4.4013,-4.4181,-4.4181,-4.4335,-2.747,-2.8339,-3.0005,-3.1095,-3.1949,-3.2267,-3.2371,-3.2491,-3.2773,-3.2884,-3.3011,-3.3226,-3.3422,-3.352,-3.3615,-3.3698,-3.3698,-3.378,-3.3807,-3.3807,-3.3807,-3.3807,-3.3807,-3.3807,-3.3807,-3.3807,-3.3629,-3.3232,-3.2576,-3.1684,-3.0635,-2.9516,-2.9407,-2.9411,-2.9471,-2.9531,-2.9607,-2.972,-2.9849,-2.9975,-3.0251,-3.0655,-3.1156,-3.1386,-3.1951,-3.2462,-3.2501,-3.2354,-3.2455,-3.267,-3.2755,-3.3108,-3.3211,-3.3263,-3.3878,-3.457,-3.4507,-3.4623,-3.4911,-3.5121,-3.5388,-3.551,-3.5621,-3.5708,-3.5747,-3.5801,-3.5818,-3.5818,-3.5807,-3.5935,-3.6164,-3.6565,-3.698,-3.782,-3.8517,-3.9271,-4.004,-4.0527,-4.0859,-4.1035,-4.1119,-4.1126,-4.1133,-4.1133,-4.1172,-4.1191,-4.1191,-4.1191,-4.1191,-4.1211,-4.1289,-4.1308,-4.123,-4.1308,-4.1562,-4.248,-4.4082,-4.4785,-4.5019,-4.498,-4.4922,-4.5273,-4.5527,-4.5605,-4.541,-4.584,-4.5937,-4.4629,-4.3945,-4.4531,-4.496,-4.5055,-4.5169,-4.5208,-4.5462,-2.7267,-2.8083,-2.875,-2.9867,-3.1165,-3.1342,-3.1795,-3.2353,-3.2558,-3.274,-3.288,-3.3183,-3.3382,-3.3452,-3.3538,-3.3633,-3.3698,-3.3725,-3.377,-3.3788,-3.3807,-3.3807,-3.3807,-3.3807,-3.3807,-3.3807,-3.3797,-3.3437,-3.2585,-3.1955,-3.1009,-3.0105,-2.9539,-2.9307,-2.9372,-2.9488,-2.9587,-2.9795,-3.0152,-3.049,-3.0696,-3.137,-3.1912,-3.2039,-3.2174,-3.2533,-3.2585,-3.2645,-3.2997,-3.3383,-3.3542,-3.4026,-3.4515,-3.4356,-3.4697,-3.5331,-3.5018,-3.5161,-3.5361,-3.5522,-3.5553,-3.5608,-3.5626,-3.5639,-3.5658,-3.5708,-3.5747,-3.5747,-3.5825,-3.6105,-3.6678,-3.6993,-3.7435,-3.8481,-3.931,-3.997,-4.0433,-4.0879,-4.1046,-4.1085,-4.1108,-4.1116,-4.1105,-4.1113,-4.1152,-4.1172,-4.1191,-4.1211,-4.1211,-4.1367,-4.1504,-4.1699,-4.166,-4.2168,-4.25,-4.3887,-4.543,-4.5723,-4.5957,-4.5781,-4.5586,-4.582,-4.6055,-4.6269,-4.6289,-4.623,-4.6035,-4.5683,-4.5527,-4.5566,-4.5742,-4.5956,-4.6073,-4.6074,-4.6172,-2.7046,-2.7589,-2.7658,-2.8699,-3.023,-3.0387,-3.082,-3.1533,-3.1655,-3.189,-3.2255,-3.2439,-3.2721,-3.2947,-3.3071,-3.3356,-3.3524,-3.3662,-3.3725,-3.377,-3.3788,-3.3807,-3.3807,-3.3807,-3.3807,-3.3807,-3.377,-3.3421,-3.3018,-3.2155,-3.1397,-3.0654,-2.9904,-2.9566,-2.9336,-2.9651,-2.9807,-3.0032,-3.0672,-3.12,-3.1353,-3.2109,-3.2637,-3.2806,-3.3053,-3.3317,-3.3466,-3.3574,-3.3794,-3.4165,-3.4423,-3.4699,-3.509,-3.5335,-3.5364,-3.5398,-3.5446,-3.5479,-3.5488,-3.5509,-3.5515,-3.5572,-3.5589,-3.5612,-3.5615,-3.5648,-3.5698,-3.5756,-3.6074,-3.6646,-3.7278,-3.7597,-3.8244,-3.9256,-3.9916,-4.05,-4.07,-4.1033,-4.1066,-4.1074,-4.1101,-4.1111,-4.1099,-4.1107,-4.1133,-4.1172,-4.1191,-4.123,-4.1269,-4.1504,-4.1914,-4.2109,-4.2266,-4.2949,-4.375,-4.4883,-4.5859,-4.5957,-4.6152,-4.6191,-4.6152,-4.6289,-4.6289,-4.6289,-4.6289,-4.6289,-4.6172,-4.5937,-4.6035,-4.6211,-4.6269,-4.625,-4.625,-4.6191,-4.623,-2.6725,-2.6759,-2.691,-2.7913,-2.9317,-2.9506,-2.9677,-3.0052,-3.0249,-3.0527,-3.0838,-3.0892,-3.1339,-3.1982,-3.2177,-3.2617,-3.3247,-3.3469,-3.3616,-3.3688,-3.3762,-3.3807,-3.3807,-3.3788,-3.3807,-3.3807,-3.3788,-3.3733,-3.3623,-3.2559,-3.1861,-3.1237,-3.0393,-2.9816,-2.9357,-3.0117,-3.0519,-3.0711,-3.1523,-3.1864,-3.2171,-3.2872,-3.3294,-3.3543,-3.3979,-3.4263,-3.432,-3.4414,-3.4582,-3.475,-3.4893,-3.5057,-3.5187,-3.5273,-3.532,-3.5383,-3.5398,-3.5446,-3.5493,-3.5476,-3.5502,-3.5515,-3.5553,-3.5584,-3.5616,-3.5631,-3.5665,-3.5723,-3.6841,-3.7406,-3.7898,-3.8355,-3.9121,-3.9829,-4.0466,-4.077,-4.0935,-4.1025,-4.1047,-4.1057,-4.1094,-4.1108,-4.1114,-4.1121,-4.1129,-4.1152,-4.1191,-4.1269,-4.1406,-4.1758,-4.2246,-4.2851,-4.3105,-4.373,-4.4551,-4.5508,-4.6211,-4.6289,-4.6289,-4.6289,-4.6289,-4.6289,-4.6289,-4.6289,-4.6289,-4.6289,-4.6289,-4.625,-4.6289,-4.6289,-4.6289,-4.6289,-4.6289,-4.6289,-4.6289,-2.6708,-2.6691,-2.6742,-2.7148,-2.781,-2.8441,-2.9025,-2.9575,-2.9939,-3.0158,-3.0309,-3.0493,-3.0719,-3.1117,-3.1351,-3.1808,-3.2545,-3.2756,-3.2922,-3.3588,-3.3643,-3.3743,-3.3743,-3.3788,-3.3807,-3.3807,-3.3807,-3.3788,-3.3752,-3.2651,-3.185,-3.1214,-3.0595,-3.0167,-3.0042,-3.042,-3.0627,-3.1321,-3.2117,-3.2668,-3.2784,-3.353,-3.4052,-3.4083,-3.4499,-3.4689,-3.4768,-3.4869,-3.4927,-3.4983,-3.5054,-3.5143,-3.516,-3.5229,-3.5258,-3.5324,-3.5354,-3.5364,-3.5427,-3.5455,-3.5482,-3.5515,-3.5522,-3.5547,-3.5528,-3.5604,-3.5628,-3.5987,-3.7243,-3.7762,-3.8117,-3.8828,-3.9566,-4.0295,-4.0781,-4.0829,-4.0941,-4.0974,-4.1006,-4.1045,-4.1061,-4.109,-4.1104,-4.1111,-4.1121,-4.1224,-4.1287,-4.1679,-4.1894,-4.2246,-4.2676,-4.3574,-4.4141,-4.4668,-4.5332,-4.5957,-4.6269,-4.6289,-4.6289,-4.6289,-4.6289,-4.6289,-4.6289,-4.6289,-4.6289,-4.6289,-4.6289,-4.6289,-4.6289,-4.6289,-4.6289,-4.6289,-4.6289,-4.6289,-4.6289,-2.6708,-2.6708,-2.6708,-2.6742,-2.6944,-2.7537,-2.8167,-2.8727,-2.9039,-2.9213,-2.9254,-2.9491,-2.9846,-3.0094,-3.0381,-3.09,-3.1717,-3.1837,-3.2309,-3.3068,-3.3232,-3.3414,-3.3615,-3.3707,-3.378,-3.3788,-3.3752,-3.3715,-3.3311,-3.2339,-3.1554,-3.0929,-3.0508,-3.0479,-3.063,-3.1088,-3.15,-3.217,-3.2834,-3.3364,-3.3547,-3.3934,-3.4325,-3.4375,-3.4495,-3.458,-3.4663,-3.4728,-3.4831,-3.487,-3.4964,-3.5056,-3.5091,-3.5145,-3.5176,-3.5242,-3.5304,-3.533,-3.5393,-3.5427,-3.5474,-3.5507,-3.5495,-3.5495,-3.5509,-3.5541,-3.5836,-3.635,-3.745,-3.8099,-3.8627,-3.9359,-4.0026,-4.0757,-4.0798,-4.0849,-4.0907,-4.0949,-4.096,-4.0999,-4.1033,-4.1067,-4.1109,-4.1101,-4.1108,-4.1253,-4.1396,-4.191,-4.25,-4.2969,-4.3398,-4.4199,-4.4941,-4.5391,-4.5742,-4.6074,-4.6289,-4.6289,-4.6289,-4.6289,-4.6289,-4.6289,-4.6289,-4.6289,-4.6289,-4.6289,-4.6289,-4.6289,-4.6289,-4.6289,-4.6289,-4.6289,-4.6289,-4.6289,-4.6289,-2.6708,-2.6708,-2.6708,-2.6708,-2.6742,-2.6944,-2.7125,-2.725,-2.7417,-2.7587,-2.7789,-2.7924,-2.8458,-2.9233,-2.9362,-2.9922,-3.0702,-3.0875,-3.15,-3.2053,-3.232,-3.2794,-3.314,-3.3332,-3.3203,-3.345,-3.344,-3.29,-3.257,-3.1983,-3.1249,-3.0571,-3.0375,-3.0681,-3.1287,-3.2035,-3.2483,-3.2963,-3.3331,-3.3739,-3.3907,-3.4056,-3.4221,-3.4311,-3.4358,-3.445,-3.4536,-3.4604,-3.4687,-3.4769,-3.485,-3.487,-3.4945,-3.5039,-3.5108,-3.5174,-3.5254,-3.532,-3.5364,-3.5398,-3.5446,-3.5479,-3.5507,-3.5507,-3.5507,-3.5559,-3.5861,-3.6722,-3.7814,-3.8554,-3.9243,-3.9876,-4.052,-4.0718,-4.0773,-4.0826,-4.0877,-4.0898,-4.0906,-4.0941,-4.0986,-4.1025,-4.1067,-4.1081,-4.1191,-4.1709,-4.2031,-4.2663,-4.3277,-4.4023,-4.4453,-4.4922,-4.5586,-4.6055,-4.6289,-4.6289,-4.6289,-4.6289,-4.6289,-4.6289,-4.6289,-4.6289,-4.6289,-4.6289,-4.6289,-4.6289,-4.6289,-4.6289,-4.6289,-4.6289,-4.6289,-4.6289,-4.6289,-4.6289,-4.6289,-2.6708,-2.6708,-2.6708,-2.6708,-2.6708,-2.6843,-2.6975,-2.7115,-2.723,-2.7359,-2.7487,-2.7647,-2.7936,-2.8211,-2.8447,-2.9094,-2.9582,-3.0052,-3.0595,-3.103,-3.1374,-3.159,-3.1809,-3.2038,-3.2007,-3.2067,-3.2074,-3.2049,-3.1653,-3.1304,-3.0497,-2.9562,-3.0455,-3.1047,-3.1751,-3.2757,-3.3198,-3.3493,-3.3768,-3.3876,-3.3991,-3.4049,-3.4099,-3.4154,-3.4221,-3.4311,-3.4377,-3.4473,-3.458,-3.4666,-3.4732,-3.4773,-3.4812,-3.4927,-3.5001,-3.5162,-3.5229,-3.5258,-3.5324,-3.5369,-3.5412,-3.5446,-3.5479,-3.5493,-3.5507,-3.5603,-3.5911,-3.7002,-3.8426,-3.9418,-3.9697,-4.0125,-4.0571,-4.0688,-4.0713,-4.075,-4.0804,-4.0837,-4.0829,-4.0897,-4.0949,-4.0986,-4.1039,-4.1075,-4.1286,-4.1983,-4.2682,-4.3317,-4.4011,-4.4723,-4.5234,-4.5644,-4.5898,-4.625,-4.6289,-4.6289,-4.6289,-4.6289,-4.6289,-4.6289,-4.6289,-4.6289,-4.6289,-4.6289,-4.6289,-4.6289,-4.6289,-4.6289,-4.6289,-4.6289,-4.6289,-4.6289,-4.6289,-4.6289,-4.6289,-2.6674,-2.6708,-2.6708,-2.6708,-2.6708,-2.6792,-2.6909,-2.7021,-2.71,-2.7247,-2.733,-2.7483,-2.7617,-2.7766,-2.7993,-2.8337,-2.8852,-2.9052,-2.9521,-3.0188,-3.0405,-3.0822,-3.0939,-3.1039,-3.1271,-3.1203,-3.1181,-3.1265,-3.0803,-3.0149,-2.9379,-2.9269,-3.0601,-3.1212,-3.1825,-3.2842,-3.3642,-3.3752,-3.3834,-3.386,-3.3913,-3.3965,-3.3986,-3.4062,-3.4124,-3.4167,-3.4253,-3.4358,-3.4427,-3.4517,-3.4588,-3.4632,-3.4733,-3.4812,-3.4908,-3.5056,-3.5181,-3.5212,-3.5258,-3.5324,-3.5369,-3.5398,-3.5446,-3.546,-3.5474,-3.5545,-3.6295,-3.7276,-3.9027,-4.035,-4.0265,-4.0236,-4.0458,-4.066,-4.0668,-4.0688,-4.0725,-4.073,-4.0807,-4.0878,-4.0926,-4.0949,-4.0999,-4.1046,-4.1376,-4.2134,-4.2949,-4.3767,-4.4481,-4.5258,-4.5677,-4.6035,-4.6133,-4.6289,-4.6289,-4.6289,-4.6289,-4.6289,-4.6289,-4.6289,-4.6289,-4.6289,-4.6289,-4.6289,-4.6289,-4.6289,-4.6289,-4.6289,-4.6289,-4.6289,-4.6289,-4.6289,-4.6289,-4.6289,-4.6289,-2.6623,-2.6708,-2.6708,-2.6708,-2.6708,-2.6708,-2.6775,-2.6894,-2.7021,-2.7115,-2.7198,-2.7348,-2.7487,-2.7647,-2.7736,-2.7882,-2.8174,-2.8322,-2.8702,-2.9394,-2.9458,-2.9819,-3.0314,-3.0765,-3.0428,-3.0786,-3.0837,-3.0337,-2.993,-2.946,-2.9172,-2.9104,-3.0613,-3.1384,-3.1641,-3.3018,-3.3752,-3.3807,-3.3807,-3.3834,-3.3868,-3.3895,-3.3921,-3.3991,-3.4016,-3.4067,-3.4142,-3.4216,-3.4245,-3.4344,-3.4435,-3.4502,-3.4649,-3.4751,-3.4831,-3.4945,-3.5075,-3.5162,-3.5212,-3.5261,-3.5324,-3.5369,-3.5398,-3.5427,-3.546,-3.5474,-3.6166,-3.7603,-3.9315,-4.0258,-4.0385,-4.0361,-4.0511,-4.0617,-4.0626,-4.0635,-4.0675,-4.0694,-4.0742,-4.0807,-4.0849,-4.0897,-4.1021,-4.1124,-4.1855,-4.2461,-4.3312,-4.4211,-4.4929,-4.5746,-4.5994,-4.6258,-4.6289,-4.6289,-4.6289,-4.6289,-4.6289,-4.6289,-4.6289,-4.6289,-4.6289,-4.6289,-4.6289,-4.6289,-4.6289,-4.6289,-4.6289,-4.6289,-4.6289,-4.6289,-4.6289,-4.6289,-4.6289,-4.6289,-4.6289,-2.6606,-2.6623,-2.6674,-2.6708,-2.6708,-2.6708,-2.6708,-2.6775,-2.6876,-2.7023,-2.7115,-2.7213,-2.7327,-2.7483,-2.7587,-2.7689,-2.7806,-2.794,-2.8142,-2.8469,-2.8621,-2.8873,-2.908,-2.9358,-2.9293,-2.9207,-2.9203,-2.9423,-2.9217,-2.9009,-2.8983,-2.9112,-3.0534,-3.1384,-3.1494,-3.2963,-3.377,-3.3807,-3.3807,-3.3807,-3.3834,-3.3834,-3.386,-3.3905,-3.395,-3.3976,-3.4053,-3.4111,-3.4167,-3.4227,-3.4306,-3.4423,-3.4583,-3.4647,-3.4732,-3.4889,-3.4945,-3.5056,-3.5145,-3.5212,-3.5277,-3.5324,-3.5369,-3.5398,-3.5427,-3.546,-3.6224,-3.7853,-3.9181,-3.9988,-4.0489,-4.0504,-4.0539,-4.0554,-4.0588,-4.0612,-4.0621,-4.0642,-4.0694,-4.0742,-4.0787,-4.0886,-4.1014,-4.1529,-4.2304,-4.3144,-4.4058,-4.4865,-4.5442,-4.6064,-4.605,-4.6261,-4.6287,-4.6289,-4.6289,-4.6289,-4.6289,-4.6289,-4.6289,-4.6289,-4.6289,-4.6289,-4.6289,-4.6289,-4.6289,-4.6289,-4.6289,-4.6289,-4.6289,-4.6289,-4.6289,-4.6289,-4.6289,-4.6289,-4.6289,-2.6537,-2.6606,-2.6674,-2.6708,-2.6708,-2.6708,-2.6708,-2.6708,-2.6792,-2.6893,-2.7006,-2.7117,-2.723,-2.7327,-2.7434,-2.7557,-2.763,-2.7713,-2.7853,-2.7968,-2.8099,-2.8225,-2.8272,-2.8362,-2.8532,-2.8528,-2.863,-2.8742,-2.8743,-2.881,-2.8912,-2.9137,-3.0412,-3.1389,-3.1598,-3.2845,-3.3807,-3.3807,-3.3807,-3.3807,-3.3807,-3.3807,-3.3807,-3.387,-3.387,-3.3889,-3.3942,-3.4002,-3.4042,-3.4124,-3.4191,-3.4301,-3.4446,-3.4539,-3.4647,-3.4751,-3.485,-3.4945,-3.5056,-3.5145,-3.5193,-3.5261,-3.5308,-3.5354,-3.5412,-3.5518,-3.6051,-3.7623,-3.9469,-4.0431,-4.0489,-4.0504,-4.0504,-4.0539,-4.0539,-4.0554,-4.0598,-4.0621,-4.0675,-4.0725,-4.0761,-4.0781,-4.1028,-4.1565,-4.2364,-4.3287,-4.4273,-4.518,-4.5799,-4.6183,-4.6215,-4.6236,-4.6264,-4.63,-4.6289,-4.6289,-4.6289,-4.6289,-4.6289,-4.6289,-4.6289,-4.6289,-4.6289,-4.6289,-4.6289,-4.6289,-4.6289,-4.6289,-4.6289,-4.6289,-4.6289,-4.6289,-4.6289,-4.6289,-4.6289,-2.6417,-2.6606,-2.664,-2.6708,-2.6708,-2.6708,-2.6708,-2.6708,-2.6708,-2.6792,-2.6893,-2.7021,-2.71,-2.7198,-2.7279,-2.7373,-2.7465,-2.7569,-2.7642,-2.7742,-2.7893,-2.7986,-2.8088,-2.8182,-2.8291,-2.8424,-2.8528,-2.8587,-2.8669,-2.8737,-2.887,-2.915,-3.0111,-3.1276,-3.1759,-3.2763,-3.3807,-3.378,-3.378,-3.3807,-3.3807,-3.3807,-3.3807,-3.3807,-3.3807,-3.3844,-3.387,-3.3905,-3.3939,-3.4023,-3.4124,-3.4216,-3.4349,-3.4446,-3.4539,-3.4647,-3.4751,-3.485,-3.4927,-3.5075,-3.5145,-3.5212,-3.5261,-3.5346,-3.546,-3.5792,-3.632,-3.7584,-3.9446,-4.0431,-4.0469,-4.0489,-4.0504,-4.0504,-4.0523,-4.0523,-4.0554,-4.0583,-4.0635,-4.0688,-4.07,-4.072,-4.1144,-4.1683,-4.2543,-4.3441,-4.4346,-4.5171,-4.5849,-4.6049,-4.6176,-4.6203,-4.6245,-4.626,-4.63,-4.6289,-4.6289,-4.6289,-4.6289,-4.6289,-4.6289,-4.6289,-4.6289,-4.6289,-4.6289,-4.6289,-4.6289,-4.6289,-4.6289,-4.6289,-4.6289,-4.6289,-4.6289,-4.6289,-4.6289,-2.6364,-2.6606,-2.6606,-2.6657,-2.6691,-2.6691,-2.6708,-2.6708,-2.6708,-2.6708,-2.6775,-2.686,-2.6976,-2.7023,-2.7103,-2.7198,-2.731,-2.7386,-2.7535,-2.7648,-2.773,-2.7795,-2.79,-2.8025,-2.8191,-2.83,-2.8398,-2.8484,-2.8543,-2.8612,-2.8662,-2.8821,-3.0389,-3.1235,-3.1516,-3.2637,-3.3716,-3.3734,-3.378,-3.3788,-3.3807,-3.3807,-3.3807,-3.3807,-3.3807,-3.3807,-3.3834,-3.3887,-3.3895,-3.3947,-3.4049,-3.4124,-3.4221,-3.4335,-3.4427,-3.4539,-3.4647,-3.4751,-3.485,-3.4964,-3.5038,-3.5145,-3.5288,-3.5602,-3.5756,-3.6003,-3.6724,-3.7767,-3.9307,-4.0292,-4.0489,-4.0489,-4.0489,-4.0489,-4.0508,-4.0508,-4.0519,-4.0554,-4.0583,-4.0593,-4.0607,-4.0822,-4.1184,-4.1944,-4.2957,-4.3889,-4.4874,-4.5636,-4.5881,-4.6017,-4.6122,-4.6181,-4.6209,-4.627,-4.6292,-4.63,-4.6289,-4.6289,-4.6289,-4.6289,-4.6289,-4.6289,-4.6289,-4.6289,-4.6289,-4.6289,-4.6289,-4.6289,-4.6289,-4.6289,-4.6289,-4.6289,-4.6289,-4.6289,-4.6289]}]]